<?xml version="1.0" encoding="UTF-8" standalone="no" ?>
<gpx xmlns="http://www.topografix.com/GPX/1/1" xmlns:xsi="http://www.w3.org/2001/XMLSchema-instance" xsi:schemaLocation="http://www.topografix.com/GPX/1/1 http://www.topografix.com/GPX/1/1/gpx.xsd" version="1.1" creator="VisuGPX - https://www.visugpx.com">
  <metadata>
    <name>Intégrale des Causses 2014</name>
    <desc><![CDATA[Parcours de l\'Intégrale des Causses 2014
Festival des Templiers à Millau.]]></desc>
  </metadata>
  <wpt lat="44.10218" lon="3.12887">
    <ele>374.8046875</ele>
    <name><![CDATA[Point d'eau]]></name>
    <type><![CDATA[user]]></type>
  </wpt>
  <wpt lat="44.19141" lon="3.20525">
    <ele>395.91015625</ele>
    <name><![CDATA[Ravito 1]]></name>
    <type><![CDATA[user]]></type>
  </wpt>
  <wpt lat="44.15257" lon="3.25908">
    <ele>869.09765625</ele>
    <name><![CDATA[Ravito 2]]></name>
    <type><![CDATA[user]]></type>
  </wpt>
  <wpt lat="44.12355" lon="3.22254">
    <ele>404.4453125</ele>
    <name><![CDATA[Ravito 3]]></name>
    <type><![CDATA[user]]></type>
  </wpt>
  <wpt lat="44.12102" lon="3.1187">
    <ele>835.33984375</ele>
    <name><![CDATA[Ravito 4]]></name>
    <type><![CDATA[user]]></type>
  </wpt>
  <trk>
    <name><![CDATA[Move]]></name>
    <trkseg>
      <trkpt lat="44.20131" lon="3.18586">
        <ele>441</ele>
        <time>2014-10-24T04:58:03Z</time>
      </trkpt>
      <trkpt lat="44.20134" lon="3.18601">
        <ele>442</ele>
        <time>2014-10-24T04:58:13Z</time>
      </trkpt>
      <trkpt lat="44.20131" lon="3.18646">
        <ele>441</ele>
        <time>2014-10-24T04:58:27Z</time>
      </trkpt>
      <trkpt lat="44.20123" lon="3.18662">
        <ele>434</ele>
        <time>2014-10-24T04:58:41Z</time>
      </trkpt>
      <trkpt lat="44.20155" lon="3.18666">
        <ele>437</ele>
        <time>2014-10-24T04:58:54Z</time>
      </trkpt>
      <trkpt lat="44.20186" lon="3.1867">
        <ele>439</ele>
        <time>2014-10-24T04:59:07Z</time>
      </trkpt>
      <trkpt lat="44.20214" lon="3.18674">
        <ele>440.9500032</ele>
        <time>2014-10-24T04:59:20Z</time>
      </trkpt>
      <trkpt lat="44.20246" lon="3.18675">
        <ele>444</ele>
        <time>2014-10-24T04:59:33Z</time>
      </trkpt>
      <trkpt lat="44.20275" lon="3.18671">
        <ele>444</ele>
        <time>2014-10-24T04:59:45Z</time>
      </trkpt>
      <trkpt lat="44.20304" lon="3.18666">
        <ele>446</ele>
        <time>2014-10-24T04:59:56Z</time>
      </trkpt>
      <trkpt lat="44.20331" lon="3.18664">
        <ele>446</ele>
        <time>2014-10-24T05:00:06Z</time>
      </trkpt>
      <trkpt lat="44.20357" lon="3.18665">
        <ele>446</ele>
        <time>2014-10-24T05:00:16Z</time>
      </trkpt>
      <trkpt lat="44.20389" lon="3.1867">
        <ele>446</ele>
        <time>2014-10-24T05:00:29Z</time>
      </trkpt>
      <trkpt lat="44.20416" lon="3.1869">
        <ele>448</ele>
        <time>2014-10-24T05:00:41Z</time>
      </trkpt>
      <trkpt lat="44.20441" lon="3.18705">
        <ele>448</ele>
        <time>2014-10-24T05:00:51Z</time>
      </trkpt>
      <trkpt lat="44.20468" lon="3.18704">
        <ele>448</ele>
        <time>2014-10-24T05:01:01Z</time>
      </trkpt>
      <trkpt lat="44.20487" lon="3.18695">
        <ele>450</ele>
        <time>2014-10-24T05:01:11Z</time>
      </trkpt>
      <trkpt lat="44.20507" lon="3.18682">
        <ele>452</ele>
        <time>2014-10-24T05:01:21Z</time>
      </trkpt>
      <trkpt lat="44.20525" lon="3.18669">
        <ele>454</ele>
        <time>2014-10-24T05:01:31Z</time>
      </trkpt>
      <trkpt lat="44.20552" lon="3.18649">
        <ele>456</ele>
        <time>2014-10-24T05:01:44Z</time>
      </trkpt>
      <trkpt lat="44.20578" lon="3.18625">
        <ele>457</ele>
        <time>2014-10-24T05:01:56Z</time>
      </trkpt>
      <trkpt lat="44.2061" lon="3.18612">
        <ele>457</ele>
        <time>2014-10-24T05:02:09Z</time>
      </trkpt>
      <trkpt lat="44.20639" lon="3.18611">
        <ele>458</ele>
        <time>2014-10-24T05:02:21Z</time>
      </trkpt>
      <trkpt lat="44.20666" lon="3.18603">
        <ele>460</ele>
        <time>2014-10-24T05:02:34Z</time>
      </trkpt>
      <trkpt lat="44.20693" lon="3.18586">
        <ele>462</ele>
        <time>2014-10-24T05:02:46Z</time>
      </trkpt>
      <trkpt lat="44.2072" lon="3.18578">
        <ele>463</ele>
        <time>2014-10-24T05:02:59Z</time>
      </trkpt>
      <trkpt lat="44.20749" lon="3.18561">
        <ele>468</ele>
        <time>2014-10-24T05:03:13Z</time>
      </trkpt>
      <trkpt lat="44.20776" lon="3.18542">
        <ele>468</ele>
        <time>2014-10-24T05:03:26Z</time>
      </trkpt>
      <trkpt lat="44.20808" lon="3.18551">
        <ele>468</ele>
        <time>2014-10-24T05:03:38Z</time>
      </trkpt>
      <trkpt lat="44.20834" lon="3.18544">
        <ele>468</ele>
        <time>2014-10-24T05:03:48Z</time>
      </trkpt>
      <trkpt lat="44.20864" lon="3.18536">
        <ele>468</ele>
        <time>2014-10-24T05:04:00Z</time>
      </trkpt>
      <trkpt lat="44.20893" lon="3.18532">
        <ele>469</ele>
        <time>2014-10-24T05:04:12Z</time>
      </trkpt>
      <trkpt lat="44.20923" lon="3.18528">
        <ele>468</ele>
        <time>2014-10-24T05:04:23Z</time>
      </trkpt>
      <trkpt lat="44.20952" lon="3.18524">
        <ele>468</ele>
        <time>2014-10-24T05:04:33Z</time>
      </trkpt>
      <trkpt lat="44.20985" lon="3.18537">
        <ele>466</ele>
        <time>2014-10-24T05:04:45Z</time>
      </trkpt>
      <trkpt lat="44.2101" lon="3.18563">
        <ele>465</ele>
        <time>2014-10-24T05:04:56Z</time>
      </trkpt>
      <trkpt lat="44.2103" lon="3.18587">
        <ele>464</ele>
        <time>2014-10-24T05:05:07Z</time>
      </trkpt>
      <trkpt lat="44.20995" lon="3.18589">
        <ele>466</ele>
        <time>2014-10-24T05:05:20Z</time>
      </trkpt>
      <trkpt lat="44.2096" lon="3.18599">
        <ele>468</ele>
        <time>2014-10-24T05:05:33Z</time>
      </trkpt>
      <trkpt lat="44.20928" lon="3.18613">
        <ele>467</ele>
        <time>2014-10-24T05:05:44Z</time>
      </trkpt>
      <trkpt lat="44.209" lon="3.1864">
        <ele>465</ele>
        <time>2014-10-24T05:05:56Z</time>
      </trkpt>
      <trkpt lat="44.20871" lon="3.18669">
        <ele>462</ele>
        <time>2014-10-24T05:06:08Z</time>
      </trkpt>
      <trkpt lat="44.20847" lon="3.18706">
        <ele>462</ele>
        <time>2014-10-24T05:06:20Z</time>
      </trkpt>
      <trkpt lat="44.20856" lon="3.18694">
        <ele>460</ele>
        <time>2014-10-24T05:06:32Z</time>
      </trkpt>
      <trkpt lat="44.20877" lon="3.18657">
        <ele>462</ele>
        <time>2014-10-24T05:06:45Z</time>
      </trkpt>
      <trkpt lat="44.20905" lon="3.18627">
        <ele>463</ele>
        <time>2014-10-24T05:06:57Z</time>
      </trkpt>
      <trkpt lat="44.20924" lon="3.18624">
        <ele>467</ele>
        <time>2014-10-24T05:07:43Z</time>
      </trkpt>
      <trkpt lat="44.20926" lon="3.18638">
        <ele>468</ele>
        <time>2014-10-24T05:07:56Z</time>
      </trkpt>
      <trkpt lat="44.20929" lon="3.18647">
        <ele>473</ele>
        <time>2014-10-24T05:08:10Z</time>
      </trkpt>
      <trkpt lat="44.20931" lon="3.18657">
        <ele>475</ele>
        <time>2014-10-24T05:08:35Z</time>
      </trkpt>
      <trkpt lat="44.20928" lon="3.18668">
        <ele>478</ele>
        <time>2014-10-24T05:08:56Z</time>
      </trkpt>
      <trkpt lat="44.20935" lon="3.18675">
        <ele>481</ele>
        <time>2014-10-24T05:09:17Z</time>
      </trkpt>
      <trkpt lat="44.20941" lon="3.18685">
        <ele>484</ele>
        <time>2014-10-24T05:09:32Z</time>
      </trkpt>
      <trkpt lat="44.20954" lon="3.18708">
        <ele>487</ele>
        <time>2014-10-24T05:09:43Z</time>
      </trkpt>
      <trkpt lat="44.20971" lon="3.18729">
        <ele>491</ele>
        <time>2014-10-24T05:09:53Z</time>
      </trkpt>
      <trkpt lat="44.20982" lon="3.18764">
        <ele>496</ele>
        <time>2014-10-24T05:10:07Z</time>
      </trkpt>
      <trkpt lat="44.20993" lon="3.18787">
        <ele>501</ele>
        <time>2014-10-24T05:10:22Z</time>
      </trkpt>
      <trkpt lat="44.20999" lon="3.18809">
        <ele>504</ele>
        <time>2014-10-24T05:10:32Z</time>
      </trkpt>
      <trkpt lat="44.20982" lon="3.18851">
        <ele>505</ele>
        <time>2014-10-24T05:10:45Z</time>
      </trkpt>
      <trkpt lat="44.20957" lon="3.18884">
        <ele>503</ele>
        <time>2014-10-24T05:10:57Z</time>
      </trkpt>
      <trkpt lat="44.20926" lon="3.18906">
        <ele>500</ele>
        <time>2014-10-24T05:11:09Z</time>
      </trkpt>
      <trkpt lat="44.20891" lon="3.18914">
        <ele>501.9000064</ele>
        <time>2014-10-24T05:11:21Z</time>
      </trkpt>
      <trkpt lat="44.20858" lon="3.18928">
        <ele>503</ele>
        <time>2014-10-24T05:11:33Z</time>
      </trkpt>
      <trkpt lat="44.20832" lon="3.18956">
        <ele>504</ele>
        <time>2014-10-24T05:11:45Z</time>
      </trkpt>
      <trkpt lat="44.20802" lon="3.18988">
        <ele>502</ele>
        <time>2014-10-24T05:11:57Z</time>
      </trkpt>
      <trkpt lat="44.20777" lon="3.19026">
        <ele>499</ele>
        <time>2014-10-24T05:12:09Z</time>
      </trkpt>
      <trkpt lat="44.20756" lon="3.19057">
        <ele>497</ele>
        <time>2014-10-24T05:12:19Z</time>
      </trkpt>
      <trkpt lat="44.20724" lon="3.19066">
        <ele>495</ele>
        <time>2014-10-24T05:12:31Z</time>
      </trkpt>
      <trkpt lat="44.20687" lon="3.19072">
        <ele>493</ele>
        <time>2014-10-24T05:12:43Z</time>
      </trkpt>
      <trkpt lat="44.20654" lon="3.19093">
        <ele>491</ele>
        <time>2014-10-24T05:12:55Z</time>
      </trkpt>
      <trkpt lat="44.20618" lon="3.19087">
        <ele>489</ele>
        <time>2014-10-24T05:13:07Z</time>
      </trkpt>
      <trkpt lat="44.20585" lon="3.19085">
        <ele>487</ele>
        <time>2014-10-24T05:13:17Z</time>
      </trkpt>
      <trkpt lat="44.20551" lon="3.19092">
        <ele>487</ele>
        <time>2014-10-24T05:13:28Z</time>
      </trkpt>
      <trkpt lat="44.20521" lon="3.19122">
        <ele>482</ele>
        <time>2014-10-24T05:13:40Z</time>
      </trkpt>
      <trkpt lat="44.20495" lon="3.19152">
        <ele>479</ele>
        <time>2014-10-24T05:13:50Z</time>
      </trkpt>
      <trkpt lat="44.20473" lon="3.19191">
        <ele>475</ele>
        <time>2014-10-24T05:14:02Z</time>
      </trkpt>
      <trkpt lat="44.20477" lon="3.19233">
        <ele>478</ele>
        <time>2014-10-24T05:14:14Z</time>
      </trkpt>
      <trkpt lat="44.20473" lon="3.19273">
        <ele>480</ele>
        <time>2014-10-24T05:14:27Z</time>
      </trkpt>
      <trkpt lat="44.20451" lon="3.19296">
        <ele>481</ele>
        <time>2014-10-24T05:14:37Z</time>
      </trkpt>
      <trkpt lat="44.20424" lon="3.1932">
        <ele>486</ele>
        <time>2014-10-24T05:14:50Z</time>
      </trkpt>
      <trkpt lat="44.20396" lon="3.19299">
        <ele>487</ele>
        <time>2014-10-24T05:15:04Z</time>
      </trkpt>
      <trkpt lat="44.20375" lon="3.19282">
        <ele>488</ele>
        <time>2014-10-24T05:15:14Z</time>
      </trkpt>
      <trkpt lat="44.20342" lon="3.19279">
        <ele>490</ele>
        <time>2014-10-24T05:15:28Z</time>
      </trkpt>
      <trkpt lat="44.20323" lon="3.19293">
        <ele>494</ele>
        <time>2014-10-24T05:15:38Z</time>
      </trkpt>
      <trkpt lat="44.20309" lon="3.19315">
        <ele>497</ele>
        <time>2014-10-24T05:15:48Z</time>
      </trkpt>
      <trkpt lat="44.20318" lon="3.19341">
        <ele>500.9500032</ele>
        <time>2014-10-24T05:16:06Z</time>
      </trkpt>
      <trkpt lat="44.20321" lon="3.19357">
        <ele>504</ele>
        <time>2014-10-24T05:16:22Z</time>
      </trkpt>
      <trkpt lat="44.20318" lon="3.19375">
        <ele>507.9000064</ele>
        <time>2014-10-24T05:16:36Z</time>
      </trkpt>
      <trkpt lat="44.20307" lon="3.19378">
        <ele>508</ele>
        <time>2014-10-24T05:16:50Z</time>
      </trkpt>
      <trkpt lat="44.20288" lon="3.19386">
        <ele>514</ele>
        <time>2014-10-24T05:17:03Z</time>
      </trkpt>
      <trkpt lat="44.20285" lon="3.19414">
        <ele>519</ele>
        <time>2014-10-24T05:17:22Z</time>
      </trkpt>
      <trkpt lat="44.20282" lon="3.19438">
        <ele>522</ele>
        <time>2014-10-24T05:17:33Z</time>
      </trkpt>
      <trkpt lat="44.20261" lon="3.19472">
        <ele>523</ele>
        <time>2014-10-24T05:17:46Z</time>
      </trkpt>
      <trkpt lat="44.20241" lon="3.19476">
        <ele>522</ele>
        <time>2014-10-24T05:17:57Z</time>
      </trkpt>
      <trkpt lat="44.20224" lon="3.19461">
        <ele>512.0499968</ele>
        <time>2014-10-24T05:18:07Z</time>
      </trkpt>
      <trkpt lat="44.20216" lon="3.19436">
        <ele>508</ele>
        <time>2014-10-24T05:18:17Z</time>
      </trkpt>
      <trkpt lat="44.20203" lon="3.19424">
        <ele>502.0499968</ele>
        <time>2014-10-24T05:18:29Z</time>
      </trkpt>
      <trkpt lat="44.20178" lon="3.19472">
        <ele>499.0999936</ele>
        <time>2014-10-24T05:18:41Z</time>
      </trkpt>
      <trkpt lat="44.20152" lon="3.19503">
        <ele>495.0499968</ele>
        <time>2014-10-24T05:18:51Z</time>
      </trkpt>
      <trkpt lat="44.20122" lon="3.19528">
        <ele>493</ele>
        <time>2014-10-24T05:19:02Z</time>
      </trkpt>
      <trkpt lat="44.20089" lon="3.19555">
        <ele>492</ele>
        <time>2014-10-24T05:19:14Z</time>
      </trkpt>
      <trkpt lat="44.20067" lon="3.19595">
        <ele>491</ele>
        <time>2014-10-24T05:19:26Z</time>
      </trkpt>
      <trkpt lat="44.20051" lon="3.19638">
        <ele>489</ele>
        <time>2014-10-24T05:19:37Z</time>
      </trkpt>
      <trkpt lat="44.20032" lon="3.19688">
        <ele>487</ele>
        <time>2014-10-24T05:19:49Z</time>
      </trkpt>
      <trkpt lat="44.20044" lon="3.19729">
        <ele>483</ele>
        <time>2014-10-24T05:19:59Z</time>
      </trkpt>
      <trkpt lat="44.20037" lon="3.19787">
        <ele>479</ele>
        <time>2014-10-24T05:20:12Z</time>
      </trkpt>
      <trkpt lat="44.20013" lon="3.19831">
        <ele>478</ele>
        <time>2014-10-24T05:20:24Z</time>
      </trkpt>
      <trkpt lat="44.19986" lon="3.19855">
        <ele>477</ele>
        <time>2014-10-24T05:20:34Z</time>
      </trkpt>
      <trkpt lat="44.19968" lon="3.19871">
        <ele>477</ele>
        <time>2014-10-24T05:20:44Z</time>
      </trkpt>
      <trkpt lat="44.19962" lon="3.19883">
        <ele>478</ele>
        <time>2014-10-24T05:20:58Z</time>
      </trkpt>
      <trkpt lat="44.19961" lon="3.19912">
        <ele>482</ele>
        <time>2014-10-24T05:21:16Z</time>
      </trkpt>
      <trkpt lat="44.19955" lon="3.19938">
        <ele>486.8500096</ele>
        <time>2014-10-24T05:21:31Z</time>
      </trkpt>
      <trkpt lat="44.19948" lon="3.19963">
        <ele>487.9500032</ele>
        <time>2014-10-24T05:21:41Z</time>
      </trkpt>
      <trkpt lat="44.19936" lon="3.19989">
        <ele>488.94060020784</ele>
        <time>2014-10-24T05:21:51Z</time>
      </trkpt>
      <trkpt lat="44.19925" lon="3.20024">
        <ele>490</ele>
        <time>2014-10-24T05:22:03Z</time>
      </trkpt>
      <trkpt lat="44.19922" lon="3.20063">
        <ele>488</ele>
        <time>2014-10-24T05:22:15Z</time>
      </trkpt>
      <trkpt lat="44.19901" lon="3.20092">
        <ele>488</ele>
        <time>2014-10-24T05:22:27Z</time>
      </trkpt>
      <trkpt lat="44.19876" lon="3.20119">
        <ele>488.96</ele>
        <time>2014-10-24T05:22:41Z</time>
      </trkpt>
      <trkpt lat="44.19869" lon="3.20142">
        <ele>493</ele>
        <time>2014-10-24T05:22:57Z</time>
      </trkpt>
      <trkpt lat="44.19862" lon="3.20162">
        <ele>495</ele>
        <time>2014-10-24T05:23:09Z</time>
      </trkpt>
      <trkpt lat="44.19855" lon="3.20186">
        <ele>497</ele>
        <time>2014-10-24T05:23:25Z</time>
      </trkpt>
      <trkpt lat="44.19852" lon="3.20213">
        <ele>501.9500032</ele>
        <time>2014-10-24T05:23:41Z</time>
      </trkpt>
      <trkpt lat="44.19851" lon="3.20222">
        <ele>503</ele>
        <time>2014-10-24T05:23:51Z</time>
      </trkpt>
      <trkpt lat="44.19856" lon="3.20234">
        <ele>506</ele>
        <time>2014-10-24T05:24:08Z</time>
      </trkpt>
      <trkpt lat="44.19863" lon="3.20245">
        <ele>507</ele>
        <time>2014-10-24T05:24:20Z</time>
      </trkpt>
      <trkpt lat="44.19861" lon="3.2026">
        <ele>511</ele>
        <time>2014-10-24T05:24:33Z</time>
      </trkpt>
      <trkpt lat="44.19854" lon="3.20282">
        <ele>515</ele>
        <time>2014-10-24T05:24:47Z</time>
      </trkpt>
      <trkpt lat="44.19849" lon="3.2031">
        <ele>517</ele>
        <time>2014-10-24T05:25:04Z</time>
      </trkpt>
      <trkpt lat="44.19851" lon="3.20325">
        <ele>520</ele>
        <time>2014-10-24T05:25:15Z</time>
      </trkpt>
      <trkpt lat="44.19849" lon="3.20339">
        <ele>523</ele>
        <time>2014-10-24T05:25:25Z</time>
      </trkpt>
      <trkpt lat="44.19853" lon="3.2036">
        <ele>527</ele>
        <time>2014-10-24T05:25:42Z</time>
      </trkpt>
      <trkpt lat="44.19861" lon="3.20365">
        <ele>530</ele>
        <time>2014-10-24T05:25:54Z</time>
      </trkpt>
      <trkpt lat="44.1986" lon="3.20386">
        <ele>533.9500032</ele>
        <time>2014-10-24T05:26:06Z</time>
      </trkpt>
      <trkpt lat="44.19859" lon="3.20406">
        <ele>535.9000064</ele>
        <time>2014-10-24T05:26:21Z</time>
      </trkpt>
      <trkpt lat="44.19856" lon="3.20428">
        <ele>539</ele>
        <time>2014-10-24T05:26:37Z</time>
      </trkpt>
      <trkpt lat="44.19862" lon="3.2043">
        <ele>541</ele>
        <time>2014-10-24T05:26:47Z</time>
      </trkpt>
      <trkpt lat="44.19864" lon="3.2044">
        <ele>542</ele>
        <time>2014-10-24T05:26:57Z</time>
      </trkpt>
      <trkpt lat="44.19862" lon="3.20458">
        <ele>544</ele>
        <time>2014-10-24T05:27:09Z</time>
      </trkpt>
      <trkpt lat="44.19854" lon="3.20477">
        <ele>546</ele>
        <time>2014-10-24T05:27:20Z</time>
      </trkpt>
      <trkpt lat="44.19847" lon="3.20505">
        <ele>549</ele>
        <time>2014-10-24T05:27:30Z</time>
      </trkpt>
      <trkpt lat="44.1985" lon="3.20532">
        <ele>552</ele>
        <time>2014-10-24T05:27:43Z</time>
      </trkpt>
      <trkpt lat="44.19856" lon="3.20554">
        <ele>556.9000064</ele>
        <time>2014-10-24T05:28:01Z</time>
      </trkpt>
      <trkpt lat="44.1986" lon="3.20576">
        <ele>559</ele>
        <time>2014-10-24T05:28:16Z</time>
      </trkpt>
      <trkpt lat="44.19863" lon="3.20602">
        <ele>561</ele>
        <time>2014-10-24T05:28:33Z</time>
      </trkpt>
      <trkpt lat="44.19864" lon="3.20629">
        <ele>563</ele>
        <time>2014-10-24T05:28:43Z</time>
      </trkpt>
      <trkpt lat="44.19864" lon="3.20659">
        <ele>565</ele>
        <time>2014-10-24T05:28:53Z</time>
      </trkpt>
      <trkpt lat="44.19854" lon="3.20697">
        <ele>566</ele>
        <time>2014-10-24T05:29:07Z</time>
      </trkpt>
      <trkpt lat="44.1985" lon="3.20718">
        <ele>566</ele>
        <time>2014-10-24T05:29:19Z</time>
      </trkpt>
      <trkpt lat="44.19849" lon="3.2073">
        <ele>566</ele>
        <time>2014-10-24T05:29:30Z</time>
      </trkpt>
      <trkpt lat="44.19855" lon="3.20747">
        <ele>568</ele>
        <time>2014-10-24T05:29:44Z</time>
      </trkpt>
      <trkpt lat="44.19863" lon="3.20764">
        <ele>571</ele>
        <time>2014-10-24T05:29:54Z</time>
      </trkpt>
      <trkpt lat="44.19868" lon="3.20786">
        <ele>571</ele>
        <time>2014-10-24T05:30:08Z</time>
      </trkpt>
      <trkpt lat="44.19886" lon="3.20817">
        <ele>571</ele>
        <time>2014-10-24T05:30:21Z</time>
      </trkpt>
      <trkpt lat="44.19897" lon="3.20845">
        <ele>571</ele>
        <time>2014-10-24T05:30:33Z</time>
      </trkpt>
      <trkpt lat="44.19904" lon="3.20859">
        <ele>571</ele>
        <time>2014-10-24T05:30:43Z</time>
      </trkpt>
      <trkpt lat="44.19916" lon="3.20877">
        <ele>572</ele>
        <time>2014-10-24T05:30:57Z</time>
      </trkpt>
      <trkpt lat="44.19927" lon="3.20901">
        <ele>572</ele>
        <time>2014-10-24T05:31:09Z</time>
      </trkpt>
      <trkpt lat="44.19932" lon="3.20915">
        <ele>573.7400064</ele>
        <time>2014-10-24T05:31:21Z</time>
      </trkpt>
      <trkpt lat="44.19938" lon="3.2093">
        <ele>574.9500032</ele>
        <time>2014-10-24T05:31:31Z</time>
      </trkpt>
      <trkpt lat="44.19942" lon="3.20945">
        <ele>577</ele>
        <time>2014-10-24T05:31:46Z</time>
      </trkpt>
      <trkpt lat="44.19931" lon="3.20949">
        <ele>577</ele>
        <time>2014-10-24T05:31:57Z</time>
      </trkpt>
      <trkpt lat="44.19919" lon="3.20937">
        <ele>572</ele>
        <time>2014-10-24T05:32:08Z</time>
      </trkpt>
      <trkpt lat="44.19906" lon="3.20924">
        <ele>572</ele>
        <time>2014-10-24T05:32:20Z</time>
      </trkpt>
      <trkpt lat="44.19891" lon="3.20915">
        <ele>565</ele>
        <time>2014-10-24T05:32:35Z</time>
      </trkpt>
      <trkpt lat="44.19873" lon="3.209">
        <ele>560</ele>
        <time>2014-10-24T05:32:47Z</time>
      </trkpt>
      <trkpt lat="44.19852" lon="3.20897">
        <ele>556</ele>
        <time>2014-10-24T05:33:00Z</time>
      </trkpt>
      <trkpt lat="44.19832" lon="3.20896">
        <ele>550</ele>
        <time>2014-10-24T05:33:17Z</time>
      </trkpt>
      <trkpt lat="44.19813" lon="3.20885">
        <ele>547</ele>
        <time>2014-10-24T05:33:34Z</time>
      </trkpt>
      <trkpt lat="44.19802" lon="3.20883">
        <ele>543</ele>
        <time>2014-10-24T05:33:52Z</time>
      </trkpt>
      <trkpt lat="44.1979" lon="3.20857">
        <ele>537</ele>
        <time>2014-10-24T05:34:05Z</time>
      </trkpt>
      <trkpt lat="44.19776" lon="3.20838">
        <ele>535</ele>
        <time>2014-10-24T05:34:20Z</time>
      </trkpt>
      <trkpt lat="44.19765" lon="3.20838">
        <ele>531</ele>
        <time>2014-10-24T05:34:34Z</time>
      </trkpt>
      <trkpt lat="44.19756" lon="3.2083">
        <ele>526</ele>
        <time>2014-10-24T05:34:47Z</time>
      </trkpt>
      <trkpt lat="44.19743" lon="3.20808">
        <ele>521</ele>
        <time>2014-10-24T05:35:02Z</time>
      </trkpt>
      <trkpt lat="44.19731" lon="3.20787">
        <ele>516</ele>
        <time>2014-10-24T05:35:19Z</time>
      </trkpt>
      <trkpt lat="44.19716" lon="3.20766">
        <ele>511</ele>
        <time>2014-10-24T05:35:34Z</time>
      </trkpt>
      <trkpt lat="44.19708" lon="3.20741">
        <ele>505</ele>
        <time>2014-10-24T05:35:50Z</time>
      </trkpt>
      <trkpt lat="44.19706" lon="3.20719">
        <ele>501</ele>
        <time>2014-10-24T05:36:00Z</time>
      </trkpt>
      <trkpt lat="44.19707" lon="3.20686">
        <ele>496</ele>
        <time>2014-10-24T05:36:12Z</time>
      </trkpt>
      <trkpt lat="44.19709" lon="3.20672">
        <ele>493</ele>
        <time>2014-10-24T05:36:22Z</time>
      </trkpt>
      <trkpt lat="44.19712" lon="3.20641">
        <ele>491</ele>
        <time>2014-10-24T05:36:34Z</time>
      </trkpt>
      <trkpt lat="44.19719" lon="3.20615">
        <ele>487</ele>
        <time>2014-10-24T05:36:44Z</time>
      </trkpt>
      <trkpt lat="44.19716" lon="3.20586">
        <ele>481.1499904</ele>
        <time>2014-10-24T05:36:56Z</time>
      </trkpt>
      <trkpt lat="44.19721" lon="3.20556">
        <ele>478</ele>
        <time>2014-10-24T05:37:07Z</time>
      </trkpt>
      <trkpt lat="44.19722" lon="3.20543">
        <ele>474</ele>
        <time>2014-10-24T05:37:18Z</time>
      </trkpt>
      <trkpt lat="44.19712" lon="3.20536">
        <ele>469.0999936</ele>
        <time>2014-10-24T05:37:36Z</time>
      </trkpt>
      <trkpt lat="44.19704" lon="3.2051">
        <ele>466</ele>
        <time>2014-10-24T05:37:50Z</time>
      </trkpt>
      <trkpt lat="44.19699" lon="3.20498">
        <ele>462</ele>
        <time>2014-10-24T05:38:00Z</time>
      </trkpt>
      <trkpt lat="44.19683" lon="3.20516">
        <ele>456</ele>
        <time>2014-10-24T05:38:15Z</time>
      </trkpt>
      <trkpt lat="44.19676" lon="3.20525">
        <ele>452</ele>
        <time>2014-10-24T05:38:25Z</time>
      </trkpt>
      <trkpt lat="44.19656" lon="3.20518">
        <ele>446</ele>
        <time>2014-10-24T05:38:38Z</time>
      </trkpt>
      <trkpt lat="44.19636" lon="3.20512">
        <ele>442</ele>
        <time>2014-10-24T05:38:50Z</time>
      </trkpt>
      <trkpt lat="44.19626" lon="3.20527">
        <ele>437</ele>
        <time>2014-10-24T05:39:01Z</time>
      </trkpt>
      <trkpt lat="44.19627" lon="3.20577">
        <ele>437</ele>
        <time>2014-10-24T05:39:13Z</time>
      </trkpt>
      <trkpt lat="44.19607" lon="3.20625">
        <ele>434.0499968</ele>
        <time>2014-10-24T05:39:26Z</time>
      </trkpt>
      <trkpt lat="44.19591" lon="3.20667">
        <ele>433</ele>
        <time>2014-10-24T05:39:37Z</time>
      </trkpt>
      <trkpt lat="44.19578" lon="3.20706">
        <ele>432</ele>
        <time>2014-10-24T05:39:47Z</time>
      </trkpt>
      <trkpt lat="44.19565" lon="3.20753">
        <ele>431</ele>
        <time>2014-10-24T05:39:58Z</time>
      </trkpt>
      <trkpt lat="44.19558" lon="3.20784">
        <ele>425</ele>
        <time>2014-10-24T05:40:08Z</time>
      </trkpt>
      <trkpt lat="44.19543" lon="3.20787">
        <ele>420</ele>
        <time>2014-10-24T05:40:22Z</time>
      </trkpt>
      <trkpt lat="44.1952" lon="3.20787">
        <ele>413.0999936</ele>
        <time>2014-10-24T05:40:32Z</time>
      </trkpt>
      <trkpt lat="44.19484" lon="3.20786">
        <ele>407</ele>
        <time>2014-10-24T05:40:44Z</time>
      </trkpt>
      <trkpt lat="44.19451" lon="3.20778">
        <ele>401</ele>
        <time>2014-10-24T05:40:57Z</time>
      </trkpt>
      <trkpt lat="44.19423" lon="3.20809">
        <ele>401</ele>
        <time>2014-10-24T05:41:09Z</time>
      </trkpt>
      <trkpt lat="44.19388" lon="3.20827">
        <ele>401.9500032</ele>
        <time>2014-10-24T05:41:21Z</time>
      </trkpt>
      <trkpt lat="44.19355" lon="3.20844">
        <ele>403</ele>
        <time>2014-10-24T05:41:33Z</time>
      </trkpt>
      <trkpt lat="44.19323" lon="3.20852">
        <ele>404</ele>
        <time>2014-10-24T05:41:45Z</time>
      </trkpt>
      <trkpt lat="44.193" lon="3.20818">
        <ele>406</ele>
        <time>2014-10-24T05:41:57Z</time>
      </trkpt>
      <trkpt lat="44.19281" lon="3.20778">
        <ele>407</ele>
        <time>2014-10-24T05:42:09Z</time>
      </trkpt>
      <trkpt lat="44.19256" lon="3.20747">
        <ele>407.9500032</ele>
        <time>2014-10-24T05:42:21Z</time>
      </trkpt>
      <trkpt lat="44.19232" lon="3.20715">
        <ele>408</ele>
        <time>2014-10-24T05:42:33Z</time>
      </trkpt>
      <trkpt lat="44.19207" lon="3.20677">
        <ele>407</ele>
        <time>2014-10-24T05:42:45Z</time>
      </trkpt>
      <trkpt lat="44.1919" lon="3.20632">
        <ele>407</ele>
        <time>2014-10-24T05:42:57Z</time>
      </trkpt>
      <trkpt lat="44.19179" lon="3.20586">
        <ele>407</ele>
        <time>2014-10-24T05:43:09Z</time>
      </trkpt>
      <trkpt lat="44.19169" lon="3.2054">
        <ele>401</ele>
        <time>2014-10-24T05:43:20Z</time>
      </trkpt>
      <trkpt lat="44.1914" lon="3.20525">
        <ele>398</ele>
        <time>2014-10-24T05:43:52Z</time>
      </trkpt>
      <trkpt lat="44.19106" lon="3.20541">
        <ele>398</ele>
        <time>2014-10-24T05:44:06Z</time>
      </trkpt>
      <trkpt lat="44.19088" lon="3.2053">
        <ele>397</ele>
        <time>2014-10-24T05:44:18Z</time>
      </trkpt>
      <trkpt lat="44.19065" lon="3.2057">
        <ele>393</ele>
        <time>2014-10-24T05:44:30Z</time>
      </trkpt>
      <trkpt lat="44.1904" lon="3.20602">
        <ele>393</ele>
        <time>2014-10-24T05:44:42Z</time>
      </trkpt>
      <trkpt lat="44.19017" lon="3.20622">
        <ele>393</ele>
        <time>2014-10-24T05:44:55Z</time>
      </trkpt>
      <trkpt lat="44.19019" lon="3.20655">
        <ele>391</ele>
        <time>2014-10-24T05:45:06Z</time>
      </trkpt>
      <trkpt lat="44.19024" lon="3.20701">
        <ele>391</ele>
        <time>2014-10-24T05:45:18Z</time>
      </trkpt>
      <trkpt lat="44.19021" lon="3.20745">
        <ele>391</ele>
        <time>2014-10-24T05:45:30Z</time>
      </trkpt>
      <trkpt lat="44.19023" lon="3.2079">
        <ele>393</ele>
        <time>2014-10-24T05:45:42Z</time>
      </trkpt>
      <trkpt lat="44.19027" lon="3.2084">
        <ele>392</ele>
        <time>2014-10-24T05:45:54Z</time>
      </trkpt>
      <trkpt lat="44.19027" lon="3.20882">
        <ele>391</ele>
        <time>2014-10-24T05:46:06Z</time>
      </trkpt>
      <trkpt lat="44.19019" lon="3.20913">
        <ele>392</ele>
        <time>2014-10-24T05:46:16Z</time>
      </trkpt>
      <trkpt lat="44.19031" lon="3.20953">
        <ele>397</ele>
        <time>2014-10-24T05:46:37Z</time>
      </trkpt>
      <trkpt lat="44.19037" lon="3.20997">
        <ele>399</ele>
        <time>2014-10-24T05:46:48Z</time>
      </trkpt>
      <trkpt lat="44.19042" lon="3.21042">
        <ele>400</ele>
        <time>2014-10-24T05:47:02Z</time>
      </trkpt>
      <trkpt lat="44.19051" lon="3.21048">
        <ele>401</ele>
        <time>2014-10-24T05:47:13Z</time>
      </trkpt>
      <trkpt lat="44.19062" lon="3.21065">
        <ele>408</ele>
        <time>2014-10-24T05:47:34Z</time>
      </trkpt>
      <trkpt lat="44.19052" lon="3.21093">
        <ele>410</ele>
        <time>2014-10-24T05:47:44Z</time>
      </trkpt>
      <trkpt lat="44.1905" lon="3.21122">
        <ele>416</ele>
        <time>2014-10-24T05:48:05Z</time>
      </trkpt>
      <trkpt lat="44.19053" lon="3.21136">
        <ele>419.9500032</ele>
        <time>2014-10-24T05:48:16Z</time>
      </trkpt>
      <trkpt lat="44.19056" lon="3.21164">
        <ele>424.9500032</ele>
        <time>2014-10-24T05:48:31Z</time>
      </trkpt>
      <trkpt lat="44.19057" lon="3.21179">
        <ele>427</ele>
        <time>2014-10-24T05:48:42Z</time>
      </trkpt>
      <trkpt lat="44.19066" lon="3.21187">
        <ele>431</ele>
        <time>2014-10-24T05:48:55Z</time>
      </trkpt>
      <trkpt lat="44.19075" lon="3.21195">
        <ele>434</ele>
        <time>2014-10-24T05:49:05Z</time>
      </trkpt>
      <trkpt lat="44.19081" lon="3.21184">
        <ele>438</ele>
        <time>2014-10-24T05:49:19Z</time>
      </trkpt>
      <trkpt lat="44.19087" lon="3.21193">
        <ele>441</ele>
        <time>2014-10-24T05:49:30Z</time>
      </trkpt>
      <trkpt lat="44.19098" lon="3.21215">
        <ele>446</ele>
        <time>2014-10-24T05:49:52Z</time>
      </trkpt>
      <trkpt lat="44.19104" lon="3.21227">
        <ele>452.94060020784</ele>
        <time>2014-10-24T05:50:10Z</time>
      </trkpt>
      <trkpt lat="44.19114" lon="3.21228">
        <ele>457.9500032</ele>
        <time>2014-10-24T05:50:31Z</time>
      </trkpt>
      <trkpt lat="44.1912" lon="3.21239">
        <ele>462</ele>
        <time>2014-10-24T05:50:49Z</time>
      </trkpt>
      <trkpt lat="44.19128" lon="3.21245">
        <ele>467.9500032</ele>
        <time>2014-10-24T05:51:06Z</time>
      </trkpt>
      <trkpt lat="44.19136" lon="3.21249">
        <ele>472</ele>
        <time>2014-10-24T05:51:25Z</time>
      </trkpt>
      <trkpt lat="44.19146" lon="3.21247">
        <ele>477</ele>
        <time>2014-10-24T05:51:39Z</time>
      </trkpt>
      <trkpt lat="44.19159" lon="3.21232">
        <ele>479</ele>
        <time>2014-10-24T05:51:54Z</time>
      </trkpt>
      <trkpt lat="44.19172" lon="3.2121">
        <ele>482</ele>
        <time>2014-10-24T05:52:09Z</time>
      </trkpt>
      <trkpt lat="44.19187" lon="3.21189">
        <ele>483.9000064</ele>
        <time>2014-10-24T05:52:21Z</time>
      </trkpt>
      <trkpt lat="44.192" lon="3.21169">
        <ele>486</ele>
        <time>2014-10-24T05:52:33Z</time>
      </trkpt>
      <trkpt lat="44.19213" lon="3.21151">
        <ele>486</ele>
        <time>2014-10-24T05:52:48Z</time>
      </trkpt>
      <trkpt lat="44.19233" lon="3.21125">
        <ele>488.8500096</ele>
        <time>2014-10-24T05:53:01Z</time>
      </trkpt>
      <trkpt lat="44.19258" lon="3.21102">
        <ele>489</ele>
        <time>2014-10-24T05:53:17Z</time>
      </trkpt>
      <trkpt lat="44.19259" lon="3.2112">
        <ele>495.9000064</ele>
        <time>2014-10-24T05:53:31Z</time>
      </trkpt>
      <trkpt lat="44.19244" lon="3.21144">
        <ele>497</ele>
        <time>2014-10-24T05:53:46Z</time>
      </trkpt>
      <trkpt lat="44.19234" lon="3.21163">
        <ele>498</ele>
        <time>2014-10-24T05:53:59Z</time>
      </trkpt>
      <trkpt lat="44.19226" lon="3.21184">
        <ele>503</ele>
        <time>2014-10-24T05:54:12Z</time>
      </trkpt>
      <trkpt lat="44.19217" lon="3.21212">
        <ele>506</ele>
        <time>2014-10-24T05:54:30Z</time>
      </trkpt>
      <trkpt lat="44.19209" lon="3.21237">
        <ele>511.9000064</ele>
        <time>2014-10-24T05:54:46Z</time>
      </trkpt>
      <trkpt lat="44.192" lon="3.21263">
        <ele>517.9000064</ele>
        <time>2014-10-24T05:55:06Z</time>
      </trkpt>
      <trkpt lat="44.19196" lon="3.21289">
        <ele>521</ele>
        <time>2014-10-24T05:55:23Z</time>
      </trkpt>
      <trkpt lat="44.19194" lon="3.21303">
        <ele>524</ele>
        <time>2014-10-24T05:55:33Z</time>
      </trkpt>
      <trkpt lat="44.19197" lon="3.21317">
        <ele>528</ele>
        <time>2014-10-24T05:55:43Z</time>
      </trkpt>
      <trkpt lat="44.192" lon="3.21345">
        <ele>532.8000128</ele>
        <time>2014-10-24T05:56:01Z</time>
      </trkpt>
      <trkpt lat="44.1921" lon="3.21367">
        <ele>537</ele>
        <time>2014-10-24T05:56:19Z</time>
      </trkpt>
      <trkpt lat="44.19225" lon="3.21381">
        <ele>542.8500096</ele>
        <time>2014-10-24T05:56:36Z</time>
      </trkpt>
      <trkpt lat="44.19237" lon="3.214">
        <ele>546</ele>
        <time>2014-10-24T05:56:54Z</time>
      </trkpt>
      <trkpt lat="44.19245" lon="3.21424">
        <ele>551.9000064</ele>
        <time>2014-10-24T05:57:11Z</time>
      </trkpt>
      <trkpt lat="44.19251" lon="3.21445">
        <ele>554</ele>
        <time>2014-10-24T05:57:25Z</time>
      </trkpt>
      <trkpt lat="44.19256" lon="3.21459">
        <ele>557.8415836565</ele>
        <time>2014-10-24T05:57:36Z</time>
      </trkpt>
      <trkpt lat="44.19262" lon="3.21471">
        <ele>560.9500032</ele>
        <time>2014-10-24T05:57:46Z</time>
      </trkpt>
      <trkpt lat="44.19273" lon="3.21494">
        <ele>564</ele>
        <time>2014-10-24T05:58:03Z</time>
      </trkpt>
      <trkpt lat="44.19287" lon="3.21513">
        <ele>566</ele>
        <time>2014-10-24T05:58:20Z</time>
      </trkpt>
      <trkpt lat="44.19297" lon="3.2152">
        <ele>569</ele>
        <time>2014-10-24T05:58:30Z</time>
      </trkpt>
      <trkpt lat="44.19316" lon="3.21531">
        <ele>573</ele>
        <time>2014-10-24T05:58:46Z</time>
      </trkpt>
      <trkpt lat="44.19332" lon="3.2155">
        <ele>574</ele>
        <time>2014-10-24T05:59:00Z</time>
      </trkpt>
      <trkpt lat="44.19342" lon="3.21556">
        <ele>580</ele>
        <time>2014-10-24T05:59:12Z</time>
      </trkpt>
      <trkpt lat="44.19341" lon="3.21539">
        <ele>583</ele>
        <time>2014-10-24T05:59:23Z</time>
      </trkpt>
      <trkpt lat="44.19345" lon="3.21553">
        <ele>588</ele>
        <time>2014-10-24T05:59:42Z</time>
      </trkpt>
      <trkpt lat="44.19351" lon="3.21586">
        <ele>587</ele>
        <time>2014-10-24T05:59:52Z</time>
      </trkpt>
      <trkpt lat="44.19357" lon="3.21616">
        <ele>584</ele>
        <time>2014-10-24T06:00:02Z</time>
      </trkpt>
      <trkpt lat="44.19369" lon="3.21642">
        <ele>582</ele>
        <time>2014-10-24T06:00:14Z</time>
      </trkpt>
      <trkpt lat="44.1938" lon="3.21666">
        <ele>578</ele>
        <time>2014-10-24T06:00:24Z</time>
      </trkpt>
      <trkpt lat="44.19392" lon="3.21691">
        <ele>579</ele>
        <time>2014-10-24T06:00:35Z</time>
      </trkpt>
      <trkpt lat="44.19403" lon="3.21736">
        <ele>579</ele>
        <time>2014-10-24T06:00:48Z</time>
      </trkpt>
      <trkpt lat="44.19394" lon="3.21777">
        <ele>581</ele>
        <time>2014-10-24T06:01:00Z</time>
      </trkpt>
      <trkpt lat="44.19384" lon="3.21819">
        <ele>579</ele>
        <time>2014-10-24T06:01:15Z</time>
      </trkpt>
      <trkpt lat="44.19378" lon="3.21851">
        <ele>580</ele>
        <time>2014-10-24T06:01:25Z</time>
      </trkpt>
      <trkpt lat="44.19375" lon="3.21893">
        <ele>582</ele>
        <time>2014-10-24T06:01:40Z</time>
      </trkpt>
      <trkpt lat="44.19378" lon="3.21921">
        <ele>584</ele>
        <time>2014-10-24T06:01:56Z</time>
      </trkpt>
      <trkpt lat="44.19382" lon="3.2195">
        <ele>589</ele>
        <time>2014-10-24T06:02:12Z</time>
      </trkpt>
      <trkpt lat="44.19375" lon="3.21982">
        <ele>590</ele>
        <time>2014-10-24T06:02:23Z</time>
      </trkpt>
      <trkpt lat="44.19373" lon="3.22013">
        <ele>591</ele>
        <time>2014-10-24T06:02:33Z</time>
      </trkpt>
      <trkpt lat="44.19379" lon="3.22042">
        <ele>592</ele>
        <time>2014-10-24T06:02:46Z</time>
      </trkpt>
      <trkpt lat="44.19391" lon="3.22066">
        <ele>596</ele>
        <time>2014-10-24T06:03:00Z</time>
      </trkpt>
      <trkpt lat="44.19405" lon="3.22088">
        <ele>596</ele>
        <time>2014-10-24T06:03:12Z</time>
      </trkpt>
      <trkpt lat="44.19424" lon="3.22102">
        <ele>596</ele>
        <time>2014-10-24T06:03:22Z</time>
      </trkpt>
      <trkpt lat="44.19442" lon="3.22118">
        <ele>597</ele>
        <time>2014-10-24T06:03:33Z</time>
      </trkpt>
      <trkpt lat="44.1946" lon="3.22127">
        <ele>598</ele>
        <time>2014-10-24T06:03:44Z</time>
      </trkpt>
      <trkpt lat="44.1948" lon="3.2214">
        <ele>600</ele>
        <time>2014-10-24T06:03:58Z</time>
      </trkpt>
      <trkpt lat="44.19498" lon="3.22179">
        <ele>601</ele>
        <time>2014-10-24T06:04:12Z</time>
      </trkpt>
      <trkpt lat="44.19499" lon="3.22226">
        <ele>601</ele>
        <time>2014-10-24T06:04:27Z</time>
      </trkpt>
      <trkpt lat="44.19496" lon="3.22255">
        <ele>603</ele>
        <time>2014-10-24T06:04:38Z</time>
      </trkpt>
      <trkpt lat="44.19508" lon="3.2228">
        <ele>602</ele>
        <time>2014-10-24T06:04:51Z</time>
      </trkpt>
      <trkpt lat="44.19521" lon="3.22305">
        <ele>604</ele>
        <time>2014-10-24T06:05:03Z</time>
      </trkpt>
      <trkpt lat="44.19532" lon="3.2233">
        <ele>606</ele>
        <time>2014-10-24T06:05:14Z</time>
      </trkpt>
      <trkpt lat="44.19545" lon="3.22353">
        <ele>607</ele>
        <time>2014-10-24T06:05:26Z</time>
      </trkpt>
      <trkpt lat="44.19554" lon="3.2238">
        <ele>609</ele>
        <time>2014-10-24T06:05:40Z</time>
      </trkpt>
      <trkpt lat="44.19557" lon="3.22394">
        <ele>616</ele>
        <time>2014-10-24T06:06:07Z</time>
      </trkpt>
      <trkpt lat="44.19562" lon="3.22407">
        <ele>621</ele>
        <time>2014-10-24T06:06:28Z</time>
      </trkpt>
      <trkpt lat="44.19573" lon="3.22408">
        <ele>625</ele>
        <time>2014-10-24T06:06:44Z</time>
      </trkpt>
      <trkpt lat="44.19576" lon="3.22421">
        <ele>629</ele>
        <time>2014-10-24T06:07:04Z</time>
      </trkpt>
      <trkpt lat="44.19567" lon="3.22426">
        <ele>630</ele>
        <time>2014-10-24T06:07:16Z</time>
      </trkpt>
      <trkpt lat="44.19575" lon="3.22435">
        <ele>632</ele>
        <time>2014-10-24T06:07:30Z</time>
      </trkpt>
      <trkpt lat="44.19585" lon="3.22438">
        <ele>636.9500032</ele>
        <time>2014-10-24T06:07:41Z</time>
      </trkpt>
      <trkpt lat="44.19595" lon="3.22434">
        <ele>638</ele>
        <time>2014-10-24T06:07:52Z</time>
      </trkpt>
      <trkpt lat="44.19604" lon="3.22442">
        <ele>643</ele>
        <time>2014-10-24T06:08:19Z</time>
      </trkpt>
      <trkpt lat="44.19615" lon="3.2244">
        <ele>645</ele>
        <time>2014-10-24T06:08:29Z</time>
      </trkpt>
      <trkpt lat="44.19633" lon="3.22426">
        <ele>650</ele>
        <time>2014-10-24T06:08:42Z</time>
      </trkpt>
      <trkpt lat="44.19651" lon="3.22408">
        <ele>652</ele>
        <time>2014-10-24T06:08:55Z</time>
      </trkpt>
      <trkpt lat="44.19658" lon="3.2238">
        <ele>654.9500032</ele>
        <time>2014-10-24T06:09:11Z</time>
      </trkpt>
      <trkpt lat="44.19668" lon="3.22381">
        <ele>659.9000064</ele>
        <time>2014-10-24T06:09:26Z</time>
      </trkpt>
      <trkpt lat="44.1967" lon="3.22369">
        <ele>661.9500032</ele>
        <time>2014-10-24T06:09:36Z</time>
      </trkpt>
      <trkpt lat="44.19668" lon="3.22354">
        <ele>667</ele>
        <time>2014-10-24T06:09:53Z</time>
      </trkpt>
      <trkpt lat="44.19668" lon="3.2234">
        <ele>669</ele>
        <time>2014-10-24T06:10:04Z</time>
      </trkpt>
      <trkpt lat="44.19666" lon="3.22326">
        <ele>670</ele>
        <time>2014-10-24T06:10:15Z</time>
      </trkpt>
      <trkpt lat="44.1967" lon="3.22314">
        <ele>675</ele>
        <time>2014-10-24T06:10:35Z</time>
      </trkpt>
      <trkpt lat="44.19681" lon="3.22336">
        <ele>679</ele>
        <time>2014-10-24T06:10:53Z</time>
      </trkpt>
      <trkpt lat="44.19696" lon="3.22345">
        <ele>683</ele>
        <time>2014-10-24T06:11:07Z</time>
      </trkpt>
      <trkpt lat="44.19704" lon="3.22362">
        <ele>684</ele>
        <time>2014-10-24T06:11:19Z</time>
      </trkpt>
      <trkpt lat="44.19723" lon="3.22378">
        <ele>688</ele>
        <time>2014-10-24T06:11:33Z</time>
      </trkpt>
      <trkpt lat="44.19735" lon="3.22403">
        <ele>691</ele>
        <time>2014-10-24T06:11:48Z</time>
      </trkpt>
      <trkpt lat="44.19737" lon="3.22432">
        <ele>695</ele>
        <time>2014-10-24T06:12:02Z</time>
      </trkpt>
      <trkpt lat="44.19736" lon="3.2246">
        <ele>697</ele>
        <time>2014-10-24T06:12:19Z</time>
      </trkpt>
      <trkpt lat="44.19741" lon="3.22447">
        <ele>702</ele>
        <time>2014-10-24T06:12:39Z</time>
      </trkpt>
      <trkpt lat="44.19755" lon="3.22427">
        <ele>706</ele>
        <time>2014-10-24T06:12:56Z</time>
      </trkpt>
      <trkpt lat="44.19761" lon="3.22415">
        <ele>708</ele>
        <time>2014-10-24T06:13:09Z</time>
      </trkpt>
      <trkpt lat="44.19765" lon="3.22428">
        <ele>714</ele>
        <time>2014-10-24T06:13:22Z</time>
      </trkpt>
      <trkpt lat="44.19764" lon="3.22457">
        <ele>716</ele>
        <time>2014-10-24T06:13:37Z</time>
      </trkpt>
      <trkpt lat="44.19757" lon="3.22484">
        <ele>717.9500032</ele>
        <time>2014-10-24T06:13:51Z</time>
      </trkpt>
      <trkpt lat="44.19744" lon="3.22504">
        <ele>721</ele>
        <time>2014-10-24T06:14:04Z</time>
      </trkpt>
      <trkpt lat="44.1971" lon="3.22514">
        <ele>720</ele>
        <time>2014-10-24T06:14:16Z</time>
      </trkpt>
      <trkpt lat="44.19689" lon="3.22524">
        <ele>718</ele>
        <time>2014-10-24T06:14:27Z</time>
      </trkpt>
      <trkpt lat="44.19662" lon="3.22545">
        <ele>717</ele>
        <time>2014-10-24T06:14:43Z</time>
      </trkpt>
      <trkpt lat="44.19663" lon="3.22559">
        <ele>719</ele>
        <time>2014-10-24T06:14:59Z</time>
      </trkpt>
      <trkpt lat="44.19674" lon="3.22562">
        <ele>721</ele>
        <time>2014-10-24T06:15:14Z</time>
      </trkpt>
      <trkpt lat="44.19693" lon="3.22574">
        <ele>721</ele>
        <time>2014-10-24T06:15:28Z</time>
      </trkpt>
      <trkpt lat="44.19721" lon="3.22597">
        <ele>723.9000064</ele>
        <time>2014-10-24T06:15:41Z</time>
      </trkpt>
      <trkpt lat="44.19737" lon="3.22612">
        <ele>726</ele>
        <time>2014-10-24T06:15:58Z</time>
      </trkpt>
      <trkpt lat="44.19745" lon="3.22622">
        <ele>731</ele>
        <time>2014-10-24T06:16:08Z</time>
      </trkpt>
      <trkpt lat="44.1976" lon="3.22642">
        <ele>734</ele>
        <time>2014-10-24T06:16:25Z</time>
      </trkpt>
      <trkpt lat="44.19776" lon="3.22664">
        <ele>736</ele>
        <time>2014-10-24T06:16:42Z</time>
      </trkpt>
      <trkpt lat="44.19782" lon="3.22675">
        <ele>739</ele>
        <time>2014-10-24T06:16:53Z</time>
      </trkpt>
      <trkpt lat="44.19791" lon="3.22684">
        <ele>743</ele>
        <time>2014-10-24T06:17:04Z</time>
      </trkpt>
      <trkpt lat="44.19803" lon="3.22708">
        <ele>747</ele>
        <time>2014-10-24T06:17:22Z</time>
      </trkpt>
      <trkpt lat="44.19808" lon="3.22722">
        <ele>750</ele>
        <time>2014-10-24T06:17:32Z</time>
      </trkpt>
      <trkpt lat="44.19813" lon="3.22735">
        <ele>754</ele>
        <time>2014-10-24T06:17:45Z</time>
      </trkpt>
      <trkpt lat="44.19797" lon="3.22753">
        <ele>756</ele>
        <time>2014-10-24T06:17:58Z</time>
      </trkpt>
      <trkpt lat="44.19788" lon="3.22782">
        <ele>756</ele>
        <time>2014-10-24T06:18:08Z</time>
      </trkpt>
      <trkpt lat="44.19786" lon="3.22811">
        <ele>758</ele>
        <time>2014-10-24T06:18:20Z</time>
      </trkpt>
      <trkpt lat="44.19768" lon="3.22833">
        <ele>759</ele>
        <time>2014-10-24T06:18:33Z</time>
      </trkpt>
      <trkpt lat="44.19739" lon="3.22855">
        <ele>759</ele>
        <time>2014-10-24T06:18:48Z</time>
      </trkpt>
      <trkpt lat="44.19719" lon="3.22854">
        <ele>759</ele>
        <time>2014-10-24T06:19:00Z</time>
      </trkpt>
      <trkpt lat="44.19698" lon="3.22851">
        <ele>759.9500032</ele>
        <time>2014-10-24T06:19:11Z</time>
      </trkpt>
      <trkpt lat="44.19665" lon="3.22844">
        <ele>760</ele>
        <time>2014-10-24T06:19:23Z</time>
      </trkpt>
      <trkpt lat="44.19633" lon="3.22851">
        <ele>760</ele>
        <time>2014-10-24T06:19:36Z</time>
      </trkpt>
      <trkpt lat="44.19613" lon="3.22861">
        <ele>760.9500032</ele>
        <time>2014-10-24T06:19:51Z</time>
      </trkpt>
      <trkpt lat="44.19592" lon="3.22871">
        <ele>763</ele>
        <time>2014-10-24T06:20:05Z</time>
      </trkpt>
      <trkpt lat="44.19569" lon="3.22871">
        <ele>765</ele>
        <time>2014-10-24T06:20:15Z</time>
      </trkpt>
      <trkpt lat="44.19555" lon="3.22895">
        <ele>765</ele>
        <time>2014-10-24T06:20:29Z</time>
      </trkpt>
      <trkpt lat="44.19539" lon="3.2291">
        <ele>765</ele>
        <time>2014-10-24T06:20:40Z</time>
      </trkpt>
      <trkpt lat="44.19504" lon="3.2292">
        <ele>763</ele>
        <time>2014-10-24T06:20:52Z</time>
      </trkpt>
      <trkpt lat="44.19484" lon="3.22926">
        <ele>762</ele>
        <time>2014-10-24T06:21:03Z</time>
      </trkpt>
      <trkpt lat="44.19468" lon="3.22944">
        <ele>763</ele>
        <time>2014-10-24T06:21:15Z</time>
      </trkpt>
      <trkpt lat="44.1946" lon="3.22956">
        <ele>765</ele>
        <time>2014-10-24T06:21:25Z</time>
      </trkpt>
      <trkpt lat="44.19457" lon="3.22985">
        <ele>767</ele>
        <time>2014-10-24T06:21:40Z</time>
      </trkpt>
      <trkpt lat="44.19456" lon="3.22999">
        <ele>768</ele>
        <time>2014-10-24T06:21:58Z</time>
      </trkpt>
      <trkpt lat="44.19447" lon="3.23023">
        <ele>769</ele>
        <time>2014-10-24T06:22:14Z</time>
      </trkpt>
      <trkpt lat="44.19439" lon="3.23049">
        <ele>768</ele>
        <time>2014-10-24T06:22:26Z</time>
      </trkpt>
      <trkpt lat="44.19419" lon="3.23065">
        <ele>768</ele>
        <time>2014-10-24T06:22:42Z</time>
      </trkpt>
      <trkpt lat="44.19401" lon="3.23077">
        <ele>770</ele>
        <time>2014-10-24T06:22:53Z</time>
      </trkpt>
      <trkpt lat="44.19413" lon="3.23083">
        <ele>777</ele>
        <time>2014-10-24T06:23:20Z</time>
      </trkpt>
      <trkpt lat="44.1942" lon="3.23094">
        <ele>784</ele>
        <time>2014-10-24T06:23:38Z</time>
      </trkpt>
      <trkpt lat="44.19423" lon="3.23107">
        <ele>789.9000064</ele>
        <time>2014-10-24T06:23:56Z</time>
      </trkpt>
      <trkpt lat="44.19431" lon="3.23115">
        <ele>791.9500032</ele>
        <time>2014-10-24T06:24:06Z</time>
      </trkpt>
      <trkpt lat="44.1944" lon="3.23123">
        <ele>794</ele>
        <time>2014-10-24T06:24:20Z</time>
      </trkpt>
      <trkpt lat="44.19457" lon="3.23139">
        <ele>797</ele>
        <time>2014-10-24T06:24:37Z</time>
      </trkpt>
      <trkpt lat="44.1947" lon="3.23158">
        <ele>802</ele>
        <time>2014-10-24T06:25:00Z</time>
      </trkpt>
      <trkpt lat="44.19476" lon="3.23169">
        <ele>806</ele>
        <time>2014-10-24T06:25:12Z</time>
      </trkpt>
      <trkpt lat="44.19481" lon="3.23183">
        <ele>810</ele>
        <time>2014-10-24T06:25:25Z</time>
      </trkpt>
      <trkpt lat="44.19487" lon="3.23209">
        <ele>810</ele>
        <time>2014-10-24T06:25:37Z</time>
      </trkpt>
      <trkpt lat="44.19475" lon="3.23246">
        <ele>810</ele>
        <time>2014-10-24T06:25:50Z</time>
      </trkpt>
      <trkpt lat="44.19452" lon="3.23238">
        <ele>809</ele>
        <time>2014-10-24T06:26:00Z</time>
      </trkpt>
      <trkpt lat="44.19441" lon="3.23264">
        <ele>806</ele>
        <time>2014-10-24T06:26:10Z</time>
      </trkpt>
      <trkpt lat="44.19435" lon="3.23276">
        <ele>799.1999872</ele>
        <time>2014-10-24T06:26:36Z</time>
      </trkpt>
      <trkpt lat="44.19415" lon="3.23275">
        <ele>798</ele>
        <time>2014-10-24T06:26:52Z</time>
      </trkpt>
      <trkpt lat="44.19398" lon="3.23284">
        <ele>798</ele>
        <time>2014-10-24T06:27:07Z</time>
      </trkpt>
      <trkpt lat="44.19379" lon="3.23289">
        <ele>794</ele>
        <time>2014-10-24T06:27:22Z</time>
      </trkpt>
      <trkpt lat="44.19381" lon="3.23321">
        <ele>794</ele>
        <time>2014-10-24T06:27:33Z</time>
      </trkpt>
      <trkpt lat="44.19379" lon="3.23346">
        <ele>781</ele>
        <time>2014-10-24T06:28:02Z</time>
      </trkpt>
      <trkpt lat="44.19362" lon="3.23366">
        <ele>775</ele>
        <time>2014-10-24T06:28:18Z</time>
      </trkpt>
      <trkpt lat="44.19354" lon="3.23394">
        <ele>770</ele>
        <time>2014-10-24T06:28:30Z</time>
      </trkpt>
      <trkpt lat="44.19357" lon="3.23422">
        <ele>766</ele>
        <time>2014-10-24T06:28:42Z</time>
      </trkpt>
      <trkpt lat="44.1935" lon="3.23453">
        <ele>762</ele>
        <time>2014-10-24T06:28:57Z</time>
      </trkpt>
      <trkpt lat="44.19342" lon="3.23481">
        <ele>761</ele>
        <time>2014-10-24T06:29:09Z</time>
      </trkpt>
      <trkpt lat="44.19335" lon="3.23511">
        <ele>762</ele>
        <time>2014-10-24T06:29:20Z</time>
      </trkpt>
      <trkpt lat="44.1935" lon="3.23532">
        <ele>763</ele>
        <time>2014-10-24T06:29:32Z</time>
      </trkpt>
      <trkpt lat="44.1937" lon="3.23539">
        <ele>764</ele>
        <time>2014-10-24T06:29:46Z</time>
      </trkpt>
      <trkpt lat="44.1939" lon="3.23555">
        <ele>766</ele>
        <time>2014-10-24T06:29:57Z</time>
      </trkpt>
      <trkpt lat="44.19388" lon="3.23599">
        <ele>766</ele>
        <time>2014-10-24T06:30:10Z</time>
      </trkpt>
      <trkpt lat="44.19374" lon="3.23622">
        <ele>764</ele>
        <time>2014-10-24T06:30:21Z</time>
      </trkpt>
      <trkpt lat="44.1936" lon="3.23656">
        <ele>764</ele>
        <time>2014-10-24T06:30:35Z</time>
      </trkpt>
      <trkpt lat="44.19371" lon="3.23683">
        <ele>764</ele>
        <time>2014-10-24T06:30:46Z</time>
      </trkpt>
      <trkpt lat="44.19387" lon="3.23703">
        <ele>765</ele>
        <time>2014-10-24T06:30:59Z</time>
      </trkpt>
      <trkpt lat="44.19405" lon="3.23719">
        <ele>770</ele>
        <time>2014-10-24T06:31:11Z</time>
      </trkpt>
      <trkpt lat="44.1941" lon="3.23748">
        <ele>772</ele>
        <time>2014-10-24T06:31:22Z</time>
      </trkpt>
      <trkpt lat="44.19419" lon="3.23777">
        <ele>773</ele>
        <time>2014-10-24T06:31:33Z</time>
      </trkpt>
      <trkpt lat="44.19439" lon="3.23792">
        <ele>773</ele>
        <time>2014-10-24T06:31:45Z</time>
      </trkpt>
      <trkpt lat="44.19453" lon="3.23816">
        <ele>772</ele>
        <time>2014-10-24T06:31:55Z</time>
      </trkpt>
      <trkpt lat="44.19458" lon="3.23861">
        <ele>771</ele>
        <time>2014-10-24T06:32:09Z</time>
      </trkpt>
      <trkpt lat="44.19472" lon="3.2388">
        <ele>772</ele>
        <time>2014-10-24T06:32:20Z</time>
      </trkpt>
      <trkpt lat="44.1949" lon="3.23894">
        <ele>771</ele>
        <time>2014-10-24T06:32:33Z</time>
      </trkpt>
      <trkpt lat="44.19495" lon="3.23903">
        <ele>770</ele>
        <time>2014-10-24T06:32:47Z</time>
      </trkpt>
      <trkpt lat="44.19514" lon="3.23902">
        <ele>772</ele>
        <time>2014-10-24T06:33:05Z</time>
      </trkpt>
      <trkpt lat="44.19529" lon="3.23923">
        <ele>772</ele>
        <time>2014-10-24T06:33:15Z</time>
      </trkpt>
      <trkpt lat="44.19557" lon="3.2394">
        <ele>772</ele>
        <time>2014-10-24T06:33:28Z</time>
      </trkpt>
      <trkpt lat="44.19578" lon="3.23938">
        <ele>773</ele>
        <time>2014-10-24T06:33:39Z</time>
      </trkpt>
      <trkpt lat="44.19596" lon="3.23929">
        <ele>774</ele>
        <time>2014-10-24T06:33:52Z</time>
      </trkpt>
      <trkpt lat="44.19617" lon="3.23918">
        <ele>773</ele>
        <time>2014-10-24T06:34:05Z</time>
      </trkpt>
      <trkpt lat="44.19646" lon="3.23936">
        <ele>773</ele>
        <time>2014-10-24T06:34:18Z</time>
      </trkpt>
      <trkpt lat="44.19673" lon="3.23962">
        <ele>775</ele>
        <time>2014-10-24T06:34:32Z</time>
      </trkpt>
      <trkpt lat="44.19695" lon="3.23934">
        <ele>776</ele>
        <time>2014-10-24T06:34:46Z</time>
      </trkpt>
      <trkpt lat="44.19712" lon="3.23914">
        <ele>776.0499968</ele>
        <time>2014-10-24T06:35:01Z</time>
      </trkpt>
      <trkpt lat="44.19732" lon="3.23923">
        <ele>776</ele>
        <time>2014-10-24T06:35:11Z</time>
      </trkpt>
      <trkpt lat="44.19752" lon="3.23936">
        <ele>777</ele>
        <time>2014-10-24T06:35:22Z</time>
      </trkpt>
      <trkpt lat="44.19784" lon="3.23952">
        <ele>777</ele>
        <time>2014-10-24T06:35:34Z</time>
      </trkpt>
      <trkpt lat="44.19792" lon="3.23979">
        <ele>777</ele>
        <time>2014-10-24T06:35:44Z</time>
      </trkpt>
      <trkpt lat="44.19791" lon="3.24026">
        <ele>775</ele>
        <time>2014-10-24T06:35:58Z</time>
      </trkpt>
      <trkpt lat="44.19793" lon="3.24054">
        <ele>774</ele>
        <time>2014-10-24T06:36:09Z</time>
      </trkpt>
      <trkpt lat="44.19784" lon="3.24081">
        <ele>775</ele>
        <time>2014-10-24T06:36:20Z</time>
      </trkpt>
      <trkpt lat="44.19789" lon="3.24102">
        <ele>777</ele>
        <time>2014-10-24T06:36:34Z</time>
      </trkpt>
      <trkpt lat="44.1981" lon="3.24111">
        <ele>778</ele>
        <time>2014-10-24T06:36:45Z</time>
      </trkpt>
      <trkpt lat="44.1983" lon="3.24125">
        <ele>779</ele>
        <time>2014-10-24T06:36:55Z</time>
      </trkpt>
      <trkpt lat="44.19847" lon="3.24141">
        <ele>781</ele>
        <time>2014-10-24T06:37:08Z</time>
      </trkpt>
      <trkpt lat="44.19844" lon="3.24171">
        <ele>783</ele>
        <time>2014-10-24T06:37:18Z</time>
      </trkpt>
      <trkpt lat="44.19833" lon="3.24199">
        <ele>785</ele>
        <time>2014-10-24T06:37:29Z</time>
      </trkpt>
      <trkpt lat="44.19828" lon="3.2423">
        <ele>784</ele>
        <time>2014-10-24T06:37:40Z</time>
      </trkpt>
      <trkpt lat="44.19833" lon="3.24257">
        <ele>787</ele>
        <time>2014-10-24T06:37:54Z</time>
      </trkpt>
      <trkpt lat="44.19842" lon="3.24284">
        <ele>790</ele>
        <time>2014-10-24T06:38:05Z</time>
      </trkpt>
      <trkpt lat="44.1986" lon="3.24304">
        <ele>791</ele>
        <time>2014-10-24T06:38:19Z</time>
      </trkpt>
      <trkpt lat="44.19877" lon="3.24321">
        <ele>793.9000064</ele>
        <time>2014-10-24T06:38:31Z</time>
      </trkpt>
      <trkpt lat="44.19897" lon="3.24328">
        <ele>795.9000064</ele>
        <time>2014-10-24T06:38:41Z</time>
      </trkpt>
      <trkpt lat="44.19909" lon="3.24304">
        <ele>796</ele>
        <time>2014-10-24T06:38:52Z</time>
      </trkpt>
      <trkpt lat="44.19921" lon="3.24259">
        <ele>794</ele>
        <time>2014-10-24T06:39:06Z</time>
      </trkpt>
      <trkpt lat="44.19947" lon="3.24234">
        <ele>794</ele>
        <time>2014-10-24T06:39:20Z</time>
      </trkpt>
      <trkpt lat="44.19963" lon="3.242">
        <ele>796</ele>
        <time>2014-10-24T06:39:34Z</time>
      </trkpt>
      <trkpt lat="44.19985" lon="3.24197">
        <ele>795</ele>
        <time>2014-10-24T06:39:49Z</time>
      </trkpt>
      <trkpt lat="44.20007" lon="3.24198">
        <ele>796</ele>
        <time>2014-10-24T06:39:59Z</time>
      </trkpt>
      <trkpt lat="44.20028" lon="3.24205">
        <ele>798</ele>
        <time>2014-10-24T06:40:09Z</time>
      </trkpt>
      <trkpt lat="44.20046" lon="3.24209">
        <ele>800.9500032</ele>
        <time>2014-10-24T06:40:21Z</time>
      </trkpt>
      <trkpt lat="44.20068" lon="3.2421">
        <ele>803</ele>
        <time>2014-10-24T06:40:35Z</time>
      </trkpt>
      <trkpt lat="44.20082" lon="3.24244">
        <ele>804</ele>
        <time>2014-10-24T06:40:49Z</time>
      </trkpt>
      <trkpt lat="44.20109" lon="3.24265">
        <ele>798.2800128</ele>
        <time>2014-10-24T06:41:01Z</time>
      </trkpt>
      <trkpt lat="44.20128" lon="3.24281">
        <ele>793.1499904</ele>
        <time>2014-10-24T06:41:11Z</time>
      </trkpt>
      <trkpt lat="44.20146" lon="3.24317">
        <ele>788</ele>
        <time>2014-10-24T06:41:23Z</time>
      </trkpt>
      <trkpt lat="44.2017" lon="3.24332">
        <ele>783</ele>
        <time>2014-10-24T06:41:37Z</time>
      </trkpt>
      <trkpt lat="44.20183" lon="3.24313">
        <ele>779</ele>
        <time>2014-10-24T06:41:47Z</time>
      </trkpt>
      <trkpt lat="44.2021" lon="3.24338">
        <ele>779</ele>
        <time>2014-10-24T06:42:00Z</time>
      </trkpt>
      <trkpt lat="44.2024" lon="3.24341">
        <ele>774</ele>
        <time>2014-10-24T06:42:15Z</time>
      </trkpt>
      <trkpt lat="44.2024" lon="3.24371">
        <ele>764</ele>
        <time>2014-10-24T06:42:29Z</time>
      </trkpt>
      <trkpt lat="44.20228" lon="3.24411">
        <ele>764</ele>
        <time>2014-10-24T06:42:42Z</time>
      </trkpt>
      <trkpt lat="44.20197" lon="3.24433">
        <ele>763</ele>
        <time>2014-10-24T06:42:56Z</time>
      </trkpt>
      <trkpt lat="44.20181" lon="3.24455">
        <ele>760</ele>
        <time>2014-10-24T06:43:07Z</time>
      </trkpt>
      <trkpt lat="44.20154" lon="3.24483">
        <ele>762</ele>
        <time>2014-10-24T06:43:22Z</time>
      </trkpt>
      <trkpt lat="44.20139" lon="3.24503">
        <ele>765</ele>
        <time>2014-10-24T06:43:42Z</time>
      </trkpt>
      <trkpt lat="44.20147" lon="3.24513">
        <ele>766</ele>
        <time>2014-10-24T06:43:52Z</time>
      </trkpt>
      <trkpt lat="44.20139" lon="3.2454">
        <ele>763</ele>
        <time>2014-10-24T06:44:08Z</time>
      </trkpt>
      <trkpt lat="44.20128" lon="3.24565">
        <ele>757</ele>
        <time>2014-10-24T06:44:23Z</time>
      </trkpt>
      <trkpt lat="44.2011" lon="3.24583">
        <ele>748</ele>
        <time>2014-10-24T06:44:38Z</time>
      </trkpt>
      <trkpt lat="44.20088" lon="3.24587">
        <ele>740.0499968</ele>
        <time>2014-10-24T06:44:52Z</time>
      </trkpt>
      <trkpt lat="44.20072" lon="3.24606">
        <ele>736</ele>
        <time>2014-10-24T06:45:02Z</time>
      </trkpt>
      <trkpt lat="44.20068" lon="3.2462">
        <ele>731</ele>
        <time>2014-10-24T06:45:13Z</time>
      </trkpt>
      <trkpt lat="44.2007" lon="3.24635">
        <ele>728</ele>
        <time>2014-10-24T06:45:23Z</time>
      </trkpt>
      <trkpt lat="44.2006" lon="3.24663">
        <ele>721.1499904</ele>
        <time>2014-10-24T06:45:36Z</time>
      </trkpt>
      <trkpt lat="44.20056" lon="3.24649">
        <ele>717</ele>
        <time>2014-10-24T06:45:46Z</time>
      </trkpt>
      <trkpt lat="44.20045" lon="3.24652">
        <ele>710</ele>
        <time>2014-10-24T06:45:59Z</time>
      </trkpt>
      <trkpt lat="44.20025" lon="3.24687">
        <ele>704</ele>
        <time>2014-10-24T06:46:12Z</time>
      </trkpt>
      <trkpt lat="44.20014" lon="3.24694">
        <ele>697.0499968</ele>
        <time>2014-10-24T06:46:25Z</time>
      </trkpt>
      <trkpt lat="44.20001" lon="3.24719">
        <ele>691.0499968</ele>
        <time>2014-10-24T06:46:35Z</time>
      </trkpt>
      <trkpt lat="44.19987" lon="3.24759">
        <ele>684.0499968</ele>
        <time>2014-10-24T06:46:47Z</time>
      </trkpt>
      <trkpt lat="44.1998" lon="3.24786">
        <ele>682</ele>
        <time>2014-10-24T06:46:57Z</time>
      </trkpt>
      <trkpt lat="44.19969" lon="3.24812">
        <ele>674</ele>
        <time>2014-10-24T06:47:08Z</time>
      </trkpt>
      <trkpt lat="44.19956" lon="3.24836">
        <ele>667.0499968</ele>
        <time>2014-10-24T06:47:19Z</time>
      </trkpt>
      <trkpt lat="44.19945" lon="3.24861">
        <ele>665</ele>
        <time>2014-10-24T06:47:30Z</time>
      </trkpt>
      <trkpt lat="44.19941" lon="3.24875">
        <ele>656.0499968</ele>
        <time>2014-10-24T06:47:42Z</time>
      </trkpt>
      <trkpt lat="44.19939" lon="3.24905">
        <ele>650.0499968</ele>
        <time>2014-10-24T06:47:53Z</time>
      </trkpt>
      <trkpt lat="44.19942" lon="3.24935">
        <ele>644</ele>
        <time>2014-10-24T06:48:05Z</time>
      </trkpt>
      <trkpt lat="44.19937" lon="3.24963">
        <ele>638</ele>
        <time>2014-10-24T06:48:17Z</time>
      </trkpt>
      <trkpt lat="44.19937" lon="3.24993">
        <ele>633</ele>
        <time>2014-10-24T06:48:30Z</time>
      </trkpt>
      <trkpt lat="44.19926" lon="3.24993">
        <ele>627.0999936</ele>
        <time>2014-10-24T06:48:41Z</time>
      </trkpt>
      <trkpt lat="44.19907" lon="3.24987">
        <ele>618.0499968</ele>
        <time>2014-10-24T06:48:55Z</time>
      </trkpt>
      <trkpt lat="44.19903" lon="3.25012">
        <ele>610.9500032</ele>
        <time>2014-10-24T06:49:11Z</time>
      </trkpt>
      <trkpt lat="44.19907" lon="3.25034">
        <ele>602.0499968</ele>
        <time>2014-10-24T06:49:24Z</time>
      </trkpt>
      <trkpt lat="44.19899" lon="3.25062">
        <ele>601</ele>
        <time>2014-10-24T06:49:34Z</time>
      </trkpt>
      <trkpt lat="44.19886" lon="3.25087">
        <ele>590.0499968</ele>
        <time>2014-10-24T06:49:46Z</time>
      </trkpt>
      <trkpt lat="44.19875" lon="3.25082">
        <ele>583.0499968</ele>
        <time>2014-10-24T06:50:00Z</time>
      </trkpt>
      <trkpt lat="44.19863" lon="3.25058">
        <ele>575</ele>
        <time>2014-10-24T06:50:12Z</time>
      </trkpt>
      <trkpt lat="44.19843" lon="3.25059">
        <ele>568</ele>
        <time>2014-10-24T06:50:27Z</time>
      </trkpt>
      <trkpt lat="44.19828" lon="3.25056">
        <ele>559</ele>
        <time>2014-10-24T06:50:47Z</time>
      </trkpt>
      <trkpt lat="44.19826" lon="3.25073">
        <ele>551.0499968</ele>
        <time>2014-10-24T06:50:59Z</time>
      </trkpt>
      <trkpt lat="44.19825" lon="3.25086">
        <ele>545.0499968</ele>
        <time>2014-10-24T06:51:10Z</time>
      </trkpt>
      <trkpt lat="44.19823" lon="3.25108">
        <ele>536</ele>
        <time>2014-10-24T06:51:34Z</time>
      </trkpt>
      <trkpt lat="44.19823" lon="3.25133">
        <ele>531</ele>
        <time>2014-10-24T06:51:47Z</time>
      </trkpt>
      <trkpt lat="44.19829" lon="3.25156">
        <ele>530</ele>
        <time>2014-10-24T06:51:59Z</time>
      </trkpt>
      <trkpt lat="44.19851" lon="3.25188">
        <ele>530</ele>
        <time>2014-10-24T06:52:11Z</time>
      </trkpt>
      <trkpt lat="44.19872" lon="3.25217">
        <ele>529</ele>
        <time>2014-10-24T06:52:23Z</time>
      </trkpt>
      <trkpt lat="44.19891" lon="3.25248">
        <ele>528</ele>
        <time>2014-10-24T06:52:35Z</time>
      </trkpt>
      <trkpt lat="44.19899" lon="3.25295">
        <ele>527</ele>
        <time>2014-10-24T06:52:47Z</time>
      </trkpt>
      <trkpt lat="44.19893" lon="3.25336">
        <ele>526</ele>
        <time>2014-10-24T06:52:57Z</time>
      </trkpt>
      <trkpt lat="44.199" lon="3.25383">
        <ele>524</ele>
        <time>2014-10-24T06:53:10Z</time>
      </trkpt>
      <trkpt lat="44.19902" lon="3.25421">
        <ele>523</ele>
        <time>2014-10-24T06:53:22Z</time>
      </trkpt>
      <trkpt lat="44.199" lon="3.25465">
        <ele>523</ele>
        <time>2014-10-24T06:53:33Z</time>
      </trkpt>
      <trkpt lat="44.19907" lon="3.25498">
        <ele>523</ele>
        <time>2014-10-24T06:53:45Z</time>
      </trkpt>
      <trkpt lat="44.19927" lon="3.25521">
        <ele>522</ele>
        <time>2014-10-24T06:53:57Z</time>
      </trkpt>
      <trkpt lat="44.19959" lon="3.25522">
        <ele>520</ele>
        <time>2014-10-24T06:54:08Z</time>
      </trkpt>
      <trkpt lat="44.19989" lon="3.25543">
        <ele>520</ele>
        <time>2014-10-24T06:54:20Z</time>
      </trkpt>
      <trkpt lat="44.19979" lon="3.25611">
        <ele>517</ele>
        <time>2014-10-24T06:54:32Z</time>
      </trkpt>
      <trkpt lat="44.19967" lon="3.25668">
        <ele>517</ele>
        <time>2014-10-24T06:54:45Z</time>
      </trkpt>
      <trkpt lat="44.1996" lon="3.25724">
        <ele>516</ele>
        <time>2014-10-24T06:54:57Z</time>
      </trkpt>
      <trkpt lat="44.19952" lon="3.2577">
        <ele>516</ele>
        <time>2014-10-24T06:55:09Z</time>
      </trkpt>
      <trkpt lat="44.19954" lon="3.258">
        <ele>515</ele>
        <time>2014-10-24T06:55:26Z</time>
      </trkpt>
      <trkpt lat="44.19961" lon="3.25842">
        <ele>514</ele>
        <time>2014-10-24T06:55:37Z</time>
      </trkpt>
      <trkpt lat="44.19971" lon="3.25882">
        <ele>511</ele>
        <time>2014-10-24T06:56:00Z</time>
      </trkpt>
      <trkpt lat="44.19961" lon="3.25878">
        <ele>501</ele>
        <time>2014-10-24T06:56:12Z</time>
      </trkpt>
      <trkpt lat="44.19958" lon="3.25896">
        <ele>495</ele>
        <time>2014-10-24T06:56:28Z</time>
      </trkpt>
      <trkpt lat="44.19967" lon="3.25928">
        <ele>493</ele>
        <time>2014-10-24T06:56:42Z</time>
      </trkpt>
      <trkpt lat="44.19971" lon="3.25944">
        <ele>493</ele>
        <time>2014-10-24T06:56:52Z</time>
      </trkpt>
      <trkpt lat="44.19973" lon="3.25976">
        <ele>492</ele>
        <time>2014-10-24T06:57:05Z</time>
      </trkpt>
      <trkpt lat="44.19968" lon="3.26019">
        <ele>485.1499904</ele>
        <time>2014-10-24T06:57:16Z</time>
      </trkpt>
      <trkpt lat="44.19961" lon="3.26055">
        <ele>477</ele>
        <time>2014-10-24T06:57:29Z</time>
      </trkpt>
      <trkpt lat="44.19948" lon="3.2606">
        <ele>468.0499968</ele>
        <time>2014-10-24T06:57:43Z</time>
      </trkpt>
      <trkpt lat="44.19941" lon="3.26041">
        <ele>461.0700032</ele>
        <time>2014-10-24T06:57:56Z</time>
      </trkpt>
      <trkpt lat="44.19928" lon="3.26013">
        <ele>453</ele>
        <time>2014-10-24T06:58:09Z</time>
      </trkpt>
      <trkpt lat="44.19917" lon="3.25985">
        <ele>438</ele>
        <time>2014-10-24T06:58:37Z</time>
      </trkpt>
      <trkpt lat="44.199" lon="3.25944">
        <ele>435</ele>
        <time>2014-10-24T06:58:49Z</time>
      </trkpt>
      <trkpt lat="44.1988" lon="3.25912">
        <ele>431.1499904</ele>
        <time>2014-10-24T06:59:01Z</time>
      </trkpt>
      <trkpt lat="44.19864" lon="3.25886">
        <ele>431</ele>
        <time>2014-10-24T06:59:12Z</time>
      </trkpt>
      <trkpt lat="44.1985" lon="3.25863">
        <ele>431</ele>
        <time>2014-10-24T06:59:22Z</time>
      </trkpt>
      <trkpt lat="44.19835" lon="3.25828">
        <ele>431</ele>
        <time>2014-10-24T06:59:32Z</time>
      </trkpt>
      <trkpt lat="44.19819" lon="3.25796">
        <ele>431</ele>
        <time>2014-10-24T06:59:42Z</time>
      </trkpt>
      <trkpt lat="44.19812" lon="3.25768">
        <ele>430</ele>
        <time>2014-10-24T06:59:52Z</time>
      </trkpt>
      <trkpt lat="44.19811" lon="3.25735">
        <ele>430</ele>
        <time>2014-10-24T07:00:03Z</time>
      </trkpt>
      <trkpt lat="44.19807" lon="3.25723">
        <ele>430</ele>
        <time>2014-10-24T07:00:16Z</time>
      </trkpt>
      <trkpt lat="44.19792" lon="3.25732">
        <ele>430</ele>
        <time>2014-10-24T07:00:28Z</time>
      </trkpt>
      <trkpt lat="44.19785" lon="3.25707">
        <ele>430</ele>
        <time>2014-10-24T07:00:43Z</time>
      </trkpt>
      <trkpt lat="44.19781" lon="3.25662">
        <ele>433.9500032</ele>
        <time>2014-10-24T07:00:56Z</time>
      </trkpt>
      <trkpt lat="44.19777" lon="3.25628">
        <ele>437</ele>
        <time>2014-10-24T07:01:10Z</time>
      </trkpt>
      <trkpt lat="44.19774" lon="3.25591">
        <ele>436</ele>
        <time>2014-10-24T07:01:21Z</time>
      </trkpt>
      <trkpt lat="44.19775" lon="3.25558">
        <ele>436.9500032</ele>
        <time>2014-10-24T07:01:31Z</time>
      </trkpt>
      <trkpt lat="44.19775" lon="3.25535">
        <ele>437</ele>
        <time>2014-10-24T07:01:44Z</time>
      </trkpt>
      <trkpt lat="44.19773" lon="3.25506">
        <ele>436</ele>
        <time>2014-10-24T07:01:54Z</time>
      </trkpt>
      <trkpt lat="44.19776" lon="3.25471">
        <ele>434</ele>
        <time>2014-10-24T07:02:04Z</time>
      </trkpt>
      <trkpt lat="44.19774" lon="3.25429">
        <ele>435</ele>
        <time>2014-10-24T07:02:15Z</time>
      </trkpt>
      <trkpt lat="44.19771" lon="3.25394">
        <ele>435</ele>
        <time>2014-10-24T07:02:27Z</time>
      </trkpt>
      <trkpt lat="44.19762" lon="3.25366">
        <ele>435.9500032</ele>
        <time>2014-10-24T07:02:37Z</time>
      </trkpt>
      <trkpt lat="44.19754" lon="3.25336">
        <ele>439</ele>
        <time>2014-10-24T07:02:51Z</time>
      </trkpt>
      <trkpt lat="44.19743" lon="3.2531">
        <ele>442.9500032</ele>
        <time>2014-10-24T07:03:02Z</time>
      </trkpt>
      <trkpt lat="44.19732" lon="3.25285">
        <ele>445</ele>
        <time>2014-10-24T07:03:12Z</time>
      </trkpt>
      <trkpt lat="44.1972" lon="3.2526">
        <ele>448</ele>
        <time>2014-10-24T07:03:23Z</time>
      </trkpt>
      <trkpt lat="44.19708" lon="3.25244">
        <ele>450</ele>
        <time>2014-10-24T07:03:33Z</time>
      </trkpt>
      <trkpt lat="44.19697" lon="3.25227">
        <ele>456</ele>
        <time>2014-10-24T07:03:49Z</time>
      </trkpt>
      <trkpt lat="44.19686" lon="3.25207">
        <ele>459</ele>
        <time>2014-10-24T07:03:59Z</time>
      </trkpt>
      <trkpt lat="44.19673" lon="3.25189">
        <ele>460</ele>
        <time>2014-10-24T07:04:11Z</time>
      </trkpt>
      <trkpt lat="44.19661" lon="3.2515">
        <ele>463.9000064</ele>
        <time>2014-10-24T07:04:21Z</time>
      </trkpt>
      <trkpt lat="44.19652" lon="3.25124">
        <ele>466</ele>
        <time>2014-10-24T07:04:39Z</time>
      </trkpt>
      <trkpt lat="44.19643" lon="3.25094">
        <ele>469</ele>
        <time>2014-10-24T07:04:53Z</time>
      </trkpt>
      <trkpt lat="44.19631" lon="3.25073">
        <ele>469</ele>
        <time>2014-10-24T07:05:05Z</time>
      </trkpt>
      <trkpt lat="44.19614" lon="3.25053">
        <ele>469</ele>
        <time>2014-10-24T07:05:18Z</time>
      </trkpt>
      <trkpt lat="44.19594" lon="3.2504">
        <ele>463</ele>
        <time>2014-10-24T07:05:28Z</time>
      </trkpt>
      <trkpt lat="44.19572" lon="3.25014">
        <ele>462</ele>
        <time>2014-10-24T07:05:44Z</time>
      </trkpt>
      <trkpt lat="44.19542" lon="3.24963">
        <ele>461</ele>
        <time>2014-10-24T07:06:43Z</time>
      </trkpt>
      <trkpt lat="44.19518" lon="3.24899">
        <ele>461</ele>
        <time>2014-10-24T07:06:53Z</time>
      </trkpt>
      <trkpt lat="44.19504" lon="3.24843">
        <ele>460</ele>
        <time>2014-10-24T07:07:03Z</time>
      </trkpt>
      <trkpt lat="44.19494" lon="3.24795">
        <ele>460</ele>
        <time>2014-10-24T07:07:18Z</time>
      </trkpt>
      <trkpt lat="44.19485" lon="3.24765">
        <ele>459</ele>
        <time>2014-10-24T07:07:33Z</time>
      </trkpt>
      <trkpt lat="44.19478" lon="3.24741">
        <ele>461</ele>
        <time>2014-10-24T07:07:48Z</time>
      </trkpt>
      <trkpt lat="44.19461" lon="3.24711">
        <ele>465</ele>
        <time>2014-10-24T07:08:01Z</time>
      </trkpt>
      <trkpt lat="44.19449" lon="3.24676">
        <ele>465</ele>
        <time>2014-10-24T07:08:13Z</time>
      </trkpt>
      <trkpt lat="44.1944" lon="3.24654">
        <ele>463</ele>
        <time>2014-10-24T07:08:24Z</time>
      </trkpt>
      <trkpt lat="44.19428" lon="3.24637">
        <ele>464</ele>
        <time>2014-10-24T07:08:35Z</time>
      </trkpt>
      <trkpt lat="44.19418" lon="3.24625">
        <ele>464</ele>
        <time>2014-10-24T07:08:48Z</time>
      </trkpt>
      <trkpt lat="44.1941" lon="3.24608">
        <ele>465</ele>
        <time>2014-10-24T07:08:58Z</time>
      </trkpt>
      <trkpt lat="44.19401" lon="3.24591">
        <ele>465</ele>
        <time>2014-10-24T07:09:08Z</time>
      </trkpt>
      <trkpt lat="44.19389" lon="3.24573">
        <ele>470</ele>
        <time>2014-10-24T07:09:23Z</time>
      </trkpt>
      <trkpt lat="44.19374" lon="3.24552">
        <ele>474</ele>
        <time>2014-10-24T07:09:34Z</time>
      </trkpt>
      <trkpt lat="44.19361" lon="3.24527">
        <ele>472</ele>
        <time>2014-10-24T07:09:48Z</time>
      </trkpt>
      <trkpt lat="44.19352" lon="3.24509">
        <ele>474</ele>
        <time>2014-10-24T07:10:12Z</time>
      </trkpt>
      <trkpt lat="44.19328" lon="3.24477">
        <ele>477</ele>
        <time>2014-10-24T07:10:25Z</time>
      </trkpt>
      <trkpt lat="44.19309" lon="3.24452">
        <ele>490</ele>
        <time>2014-10-24T07:11:08Z</time>
      </trkpt>
      <trkpt lat="44.19289" lon="3.24419">
        <ele>490</ele>
        <time>2014-10-24T07:11:20Z</time>
      </trkpt>
      <trkpt lat="44.19269" lon="3.24395">
        <ele>486</ele>
        <time>2014-10-24T07:11:35Z</time>
      </trkpt>
      <trkpt lat="44.19255" lon="3.24368">
        <ele>457.34375</ele>
      </trkpt>
      <trkpt lat="44.19243" lon="3.24354">
        <ele>456.1640625</ele>
      </trkpt>
      <trkpt lat="44.19224" lon="3.24348">
        <ele>461.49609375</ele>
      </trkpt>
      <trkpt lat="44.19196" lon="3.24345">
        <ele>470.16015625</ele>
      </trkpt>
      <trkpt lat="44.19182" lon="3.24339">
        <ele>473.828125</ele>
      </trkpt>
      <trkpt lat="44.19171" lon="3.24315">
        <ele>470.2734375</ele>
      </trkpt>
      <trkpt lat="44.19153" lon="3.24285">
        <ele>468.99609375</ele>
      </trkpt>
      <trkpt lat="44.1914" lon="3.24268">
        <ele>469.1328125</ele>
      </trkpt>
      <trkpt lat="44.1912" lon="3.24234">
        <ele>470.87890625</ele>
      </trkpt>
      <trkpt lat="44.19105" lon="3.24207">
        <ele>471.6015625</ele>
      </trkpt>
      <trkpt lat="44.19087" lon="3.24163">
        <ele>468.99609375</ele>
      </trkpt>
      <trkpt lat="44.19073" lon="3.24134">
        <ele>471.4609375</ele>
      </trkpt>
      <trkpt lat="44.19056" lon="3.24092">
        <ele>471.48828125</ele>
      </trkpt>
      <trkpt lat="44.19043" lon="3.24057">
        <ele>468.89453125</ele>
      </trkpt>
      <trkpt lat="44.1903" lon="3.24024">
        <ele>463.3515625</ele>
      </trkpt>
      <trkpt lat="44.19026" lon="3.24041">
        <ele>471.97265625</ele>
      </trkpt>
      <trkpt lat="44.19028" lon="3.24063">
        <ele>479.4453125</ele>
      </trkpt>
      <trkpt lat="44.19035" lon="3.24091">
        <ele>485.02734375</ele>
      </trkpt>
      <trkpt lat="44.19043" lon="3.2412">
        <ele>488.0859375</ele>
      </trkpt>
      <trkpt lat="44.19047" lon="3.2415">
        <ele>494.20703125</ele>
      </trkpt>
      <trkpt lat="44.19051" lon="3.2418">
        <ele>499.5234375</ele>
      </trkpt>
      <trkpt lat="44.19049" lon="3.24209">
        <ele>509.8828125</ele>
      </trkpt>
      <trkpt lat="44.19052" lon="3.2425">
        <ele>520.28515625</ele>
      </trkpt>
      <trkpt lat="44.19054" lon="3.24296">
        <ele>533.18359375</ele>
      </trkpt>
      <trkpt lat="44.19057" lon="3.24329">
        <ele>539.3203125</ele>
      </trkpt>
      <trkpt lat="44.1906" lon="3.24367">
        <ele>547.3984375</ele>
      </trkpt>
      <trkpt lat="44.19052" lon="3.24389">
        <ele>559.09765625</ele>
      </trkpt>
      <trkpt lat="44.19038" lon="3.24406">
        <ele>572.98046875</ele>
      </trkpt>
      <trkpt lat="44.19023" lon="3.24428">
        <ele>590.00390625</ele>
      </trkpt>
      <trkpt lat="44.19007" lon="3.24452">
        <ele>608.296875</ele>
      </trkpt>
      <trkpt lat="44.18989" lon="3.24476">
        <ele>625.5</ele>
      </trkpt>
      <trkpt lat="44.18975" lon="3.24502">
        <ele>638.62890625</ele>
      </trkpt>
      <trkpt lat="44.18961" lon="3.24524">
        <ele>653.13671875</ele>
      </trkpt>
      <trkpt lat="44.18948" lon="3.2455">
        <ele>669.9296875</ele>
      </trkpt>
      <trkpt lat="44.18934" lon="3.24572">
        <ele>686.1328125</ele>
      </trkpt>
      <trkpt lat="44.18925" lon="3.24591">
        <ele>698.11328125</ele>
      </trkpt>
      <trkpt lat="44.18915" lon="3.24568">
        <ele>702.14453125</ele>
      </trkpt>
      <trkpt lat="44.18898" lon="3.24525">
        <ele>704.515625</ele>
      </trkpt>
      <trkpt lat="44.18886" lon="3.24497">
        <ele>707.5859375</ele>
      </trkpt>
      <trkpt lat="44.18873" lon="3.24467">
        <ele>710.31640625</ele>
      </trkpt>
      <trkpt lat="44.18857" lon="3.24447">
        <ele>710.7578125</ele>
      </trkpt>
      <trkpt lat="44.18832" lon="3.24458">
        <ele>715.27734375</ele>
      </trkpt>
      <trkpt lat="44.18809" lon="3.24469">
        <ele>718.9453125</ele>
      </trkpt>
      <trkpt lat="44.18793" lon="3.24472">
        <ele>725.71484375</ele>
      </trkpt>
      <trkpt lat="44.1878" lon="3.24446">
        <ele>729.27734375</ele>
      </trkpt>
      <trkpt lat="44.18769" lon="3.24411">
        <ele>732.390625</ele>
      </trkpt>
      <trkpt lat="44.18759" lon="3.24389">
        <ele>736.26171875</ele>
      </trkpt>
      <trkpt lat="44.18744" lon="3.24385">
        <ele>744.6640625</ele>
      </trkpt>
      <trkpt lat="44.18723" lon="3.24386">
        <ele>757.81640625</ele>
      </trkpt>
      <trkpt lat="44.18692" lon="3.24393">
        <ele>776.08203125</ele>
      </trkpt>
      <trkpt lat="44.18668" lon="3.24406">
        <ele>787.24609375</ele>
      </trkpt>
      <trkpt lat="44.18652" lon="3.24416">
        <ele>795.01953125</ele>
      </trkpt>
      <trkpt lat="44.18643" lon="3.24433">
        <ele>840</ele>
        <time>2014-10-24T07:40:57Z</time>
      </trkpt>
      <trkpt lat="44.18633" lon="3.2446">
        <ele>842</ele>
        <time>2014-10-24T07:41:10Z</time>
      </trkpt>
      <trkpt lat="44.18619" lon="3.24479">
        <ele>845</ele>
        <time>2014-10-24T07:41:27Z</time>
      </trkpt>
      <trkpt lat="44.18617" lon="3.24464">
        <ele>849</ele>
        <time>2014-10-24T07:41:38Z</time>
      </trkpt>
      <trkpt lat="44.18617" lon="3.24435">
        <ele>850.9000064</ele>
        <time>2014-10-24T07:41:51Z</time>
      </trkpt>
      <trkpt lat="44.18608" lon="3.24439">
        <ele>855</ele>
        <time>2014-10-24T07:42:19Z</time>
      </trkpt>
      <trkpt lat="44.18597" lon="3.2444">
        <ele>857</ele>
        <time>2014-10-24T07:42:29Z</time>
      </trkpt>
      <trkpt lat="44.18575" lon="3.24442">
        <ele>860</ele>
        <time>2014-10-24T07:42:42Z</time>
      </trkpt>
      <trkpt lat="44.18584" lon="3.24462">
        <ele>861</ele>
        <time>2014-10-24T07:42:58Z</time>
      </trkpt>
      <trkpt lat="44.18577" lon="3.24488">
        <ele>864</ele>
        <time>2014-10-24T07:43:13Z</time>
      </trkpt>
      <trkpt lat="44.18567" lon="3.24515">
        <ele>866</ele>
        <time>2014-10-24T07:43:28Z</time>
      </trkpt>
      <trkpt lat="44.18556" lon="3.2454">
        <ele>869</ele>
        <time>2014-10-24T07:43:43Z</time>
      </trkpt>
      <trkpt lat="44.18545" lon="3.24565">
        <ele>871</ele>
        <time>2014-10-24T07:43:56Z</time>
      </trkpt>
      <trkpt lat="44.18529" lon="3.24585">
        <ele>875</ele>
        <time>2014-10-24T07:44:12Z</time>
      </trkpt>
      <trkpt lat="44.18514" lon="3.24604">
        <ele>877</ele>
        <time>2014-10-24T07:44:30Z</time>
      </trkpt>
      <trkpt lat="44.18495" lon="3.2462">
        <ele>881.9500032</ele>
        <time>2014-10-24T07:44:46Z</time>
      </trkpt>
      <trkpt lat="44.18475" lon="3.24632">
        <ele>882</ele>
        <time>2014-10-24T07:45:00Z</time>
      </trkpt>
      <trkpt lat="44.18457" lon="3.24649">
        <ele>883.9500032</ele>
        <time>2014-10-24T07:45:11Z</time>
      </trkpt>
      <trkpt lat="44.18435" lon="3.24656">
        <ele>884</ele>
        <time>2014-10-24T07:45:21Z</time>
      </trkpt>
      <trkpt lat="44.18405" lon="3.24671">
        <ele>884</ele>
        <time>2014-10-24T07:45:34Z</time>
      </trkpt>
      <trkpt lat="44.18373" lon="3.2467">
        <ele>884</ele>
        <time>2014-10-24T07:45:49Z</time>
      </trkpt>
      <trkpt lat="44.18358" lon="3.24655">
        <ele>887.0499968</ele>
        <time>2014-10-24T07:46:08Z</time>
      </trkpt>
      <trkpt lat="44.18347" lon="3.24655">
        <ele>888</ele>
        <time>2014-10-24T07:46:18Z</time>
      </trkpt>
      <trkpt lat="44.18326" lon="3.2465">
        <ele>891</ele>
        <time>2014-10-24T07:46:35Z</time>
      </trkpt>
      <trkpt lat="44.18324" lon="3.24664">
        <ele>893</ele>
        <time>2014-10-24T07:46:54Z</time>
      </trkpt>
      <trkpt lat="44.18311" lon="3.24678">
        <ele>894</ele>
        <time>2014-10-24T07:47:10Z</time>
      </trkpt>
      <trkpt lat="44.183" lon="3.24683">
        <ele>895</ele>
        <time>2014-10-24T07:47:20Z</time>
      </trkpt>
      <trkpt lat="44.18285" lon="3.24695">
        <ele>899</ele>
        <time>2014-10-24T07:47:37Z</time>
      </trkpt>
      <trkpt lat="44.18266" lon="3.24704">
        <ele>902</ele>
        <time>2014-10-24T07:47:53Z</time>
      </trkpt>
      <trkpt lat="44.18245" lon="3.24704">
        <ele>903</ele>
        <time>2014-10-24T07:48:10Z</time>
      </trkpt>
      <trkpt lat="44.18227" lon="3.24716">
        <ele>906</ele>
        <time>2014-10-24T07:48:26Z</time>
      </trkpt>
      <trkpt lat="44.1821" lon="3.24733">
        <ele>909</ele>
        <time>2014-10-24T07:48:42Z</time>
      </trkpt>
      <trkpt lat="44.18199" lon="3.24755">
        <ele>910</ele>
        <time>2014-10-24T07:49:00Z</time>
      </trkpt>
      <trkpt lat="44.18186" lon="3.24773">
        <ele>913</ele>
        <time>2014-10-24T07:49:16Z</time>
      </trkpt>
      <trkpt lat="44.18172" lon="3.24788">
        <ele>915</ele>
        <time>2014-10-24T07:49:30Z</time>
      </trkpt>
      <trkpt lat="44.1816" lon="3.2481">
        <ele>919</ele>
        <time>2014-10-24T07:49:45Z</time>
      </trkpt>
      <trkpt lat="44.1814" lon="3.24823">
        <ele>922</ele>
        <time>2014-10-24T07:50:02Z</time>
      </trkpt>
      <trkpt lat="44.18123" lon="3.24841">
        <ele>923</ele>
        <time>2014-10-24T07:50:20Z</time>
      </trkpt>
      <trkpt lat="44.18105" lon="3.24855">
        <ele>928</ele>
        <time>2014-10-24T07:50:37Z</time>
      </trkpt>
      <trkpt lat="44.18087" lon="3.24866">
        <ele>928</ele>
        <time>2014-10-24T07:50:50Z</time>
      </trkpt>
      <trkpt lat="44.18066" lon="3.24873">
        <ele>928</ele>
        <time>2014-10-24T07:51:02Z</time>
      </trkpt>
      <trkpt lat="44.18042" lon="3.24871">
        <ele>930</ele>
        <time>2014-10-24T07:51:13Z</time>
      </trkpt>
      <trkpt lat="44.18009" lon="3.24885">
        <ele>928</ele>
        <time>2014-10-24T07:51:26Z</time>
      </trkpt>
      <trkpt lat="44.17987" lon="3.24886">
        <ele>927</ele>
        <time>2014-10-24T07:51:36Z</time>
      </trkpt>
      <trkpt lat="44.17965" lon="3.24888">
        <ele>926</ele>
        <time>2014-10-24T07:51:46Z</time>
      </trkpt>
      <trkpt lat="44.17933" lon="3.24875">
        <ele>926</ele>
        <time>2014-10-24T07:51:56Z</time>
      </trkpt>
      <trkpt lat="44.179" lon="3.24864">
        <ele>923</ele>
        <time>2014-10-24T07:52:09Z</time>
      </trkpt>
      <trkpt lat="44.17867" lon="3.24872">
        <ele>920</ele>
        <time>2014-10-24T07:52:22Z</time>
      </trkpt>
      <trkpt lat="44.17833" lon="3.24863">
        <ele>917</ele>
        <time>2014-10-24T07:52:32Z</time>
      </trkpt>
      <trkpt lat="44.178" lon="3.2486">
        <ele>914</ele>
        <time>2014-10-24T07:52:44Z</time>
      </trkpt>
      <trkpt lat="44.17765" lon="3.24862">
        <ele>912</ele>
        <time>2014-10-24T07:52:56Z</time>
      </trkpt>
      <trkpt lat="44.17731" lon="3.24863">
        <ele>910</ele>
        <time>2014-10-24T07:53:08Z</time>
      </trkpt>
      <trkpt lat="44.17697" lon="3.24867">
        <ele>908</ele>
        <time>2014-10-24T07:53:18Z</time>
      </trkpt>
      <trkpt lat="44.17668" lon="3.24848">
        <ele>904</ele>
        <time>2014-10-24T07:53:29Z</time>
      </trkpt>
      <trkpt lat="44.17637" lon="3.24825">
        <ele>902.0999936</ele>
        <time>2014-10-24T07:53:41Z</time>
      </trkpt>
      <trkpt lat="44.17635" lon="3.2478">
        <ele>901</ele>
        <time>2014-10-24T07:53:53Z</time>
      </trkpt>
      <trkpt lat="44.17614" lon="3.24748">
        <ele>902</ele>
        <time>2014-10-24T07:54:06Z</time>
      </trkpt>
      <trkpt lat="44.17587" lon="3.24727">
        <ele>901</ele>
        <time>2014-10-24T07:54:17Z</time>
      </trkpt>
      <trkpt lat="44.17555" lon="3.24711">
        <ele>900</ele>
        <time>2014-10-24T07:54:30Z</time>
      </trkpt>
      <trkpt lat="44.17524" lon="3.24694">
        <ele>899</ele>
        <time>2014-10-24T07:54:43Z</time>
      </trkpt>
      <trkpt lat="44.17494" lon="3.24709">
        <ele>897</ele>
        <time>2014-10-24T07:54:55Z</time>
      </trkpt>
      <trkpt lat="44.17468" lon="3.24738">
        <ele>896</ele>
        <time>2014-10-24T07:55:07Z</time>
      </trkpt>
      <trkpt lat="44.17437" lon="3.24758">
        <ele>896</ele>
        <time>2014-10-24T07:55:20Z</time>
      </trkpt>
      <trkpt lat="44.17405" lon="3.24752">
        <ele>892</ele>
        <time>2014-10-24T07:55:32Z</time>
      </trkpt>
      <trkpt lat="44.17372" lon="3.24738">
        <ele>890</ele>
        <time>2014-10-24T07:55:45Z</time>
      </trkpt>
      <trkpt lat="44.17341" lon="3.24723">
        <ele>888</ele>
        <time>2014-10-24T07:55:57Z</time>
      </trkpt>
      <trkpt lat="44.17307" lon="3.24705">
        <ele>883</ele>
        <time>2014-10-24T07:56:09Z</time>
      </trkpt>
      <trkpt lat="44.17287" lon="3.24695">
        <ele>882</ele>
        <time>2014-10-24T07:56:32Z</time>
      </trkpt>
      <trkpt lat="44.17269" lon="3.24682">
        <ele>881</ele>
        <time>2014-10-24T07:56:49Z</time>
      </trkpt>
      <trkpt lat="44.17251" lon="3.24668">
        <ele>880</ele>
        <time>2014-10-24T07:56:59Z</time>
      </trkpt>
      <trkpt lat="44.17252" lon="3.24709">
        <ele>879</ele>
        <time>2014-10-24T07:57:11Z</time>
      </trkpt>
      <trkpt lat="44.17265" lon="3.24746">
        <ele>878</ele>
        <time>2014-10-24T07:57:22Z</time>
      </trkpt>
      <trkpt lat="44.17265" lon="3.24784">
        <ele>877</ele>
        <time>2014-10-24T07:57:32Z</time>
      </trkpt>
      <trkpt lat="44.17241" lon="3.24808">
        <ele>875</ele>
        <time>2014-10-24T07:57:45Z</time>
      </trkpt>
      <trkpt lat="44.17221" lon="3.24821">
        <ele>876</ele>
        <time>2014-10-24T07:57:56Z</time>
      </trkpt>
      <trkpt lat="44.17199" lon="3.24853">
        <ele>875</ele>
        <time>2014-10-24T07:58:08Z</time>
      </trkpt>
      <trkpt lat="44.17182" lon="3.24892">
        <ele>877</ele>
        <time>2014-10-24T07:58:21Z</time>
      </trkpt>
      <trkpt lat="44.17152" lon="3.24899">
        <ele>877.9500032</ele>
        <time>2014-10-24T07:58:31Z</time>
      </trkpt>
      <trkpt lat="44.17122" lon="3.24878">
        <ele>878</ele>
        <time>2014-10-24T07:58:44Z</time>
      </trkpt>
      <trkpt lat="44.17095" lon="3.24849">
        <ele>878</ele>
        <time>2014-10-24T07:58:58Z</time>
      </trkpt>
      <trkpt lat="44.17075" lon="3.24841">
        <ele>879</ele>
        <time>2014-10-24T07:59:14Z</time>
      </trkpt>
      <trkpt lat="44.17054" lon="3.24841">
        <ele>880</ele>
        <time>2014-10-24T07:59:29Z</time>
      </trkpt>
      <trkpt lat="44.17032" lon="3.24838">
        <ele>882</ele>
        <time>2014-10-24T07:59:42Z</time>
      </trkpt>
      <trkpt lat="44.17011" lon="3.2484">
        <ele>884</ele>
        <time>2014-10-24T07:59:57Z</time>
      </trkpt>
      <trkpt lat="44.17002" lon="3.24866">
        <ele>885</ele>
        <time>2014-10-24T08:00:07Z</time>
      </trkpt>
      <trkpt lat="44.16982" lon="3.24888">
        <ele>885</ele>
        <time>2014-10-24T08:00:20Z</time>
      </trkpt>
      <trkpt lat="44.16949" lon="3.2488">
        <ele>886</ele>
        <time>2014-10-24T08:00:32Z</time>
      </trkpt>
      <trkpt lat="44.16917" lon="3.24876">
        <ele>887</ele>
        <time>2014-10-24T08:00:44Z</time>
      </trkpt>
      <trkpt lat="44.16888" lon="3.24854">
        <ele>888</ele>
        <time>2014-10-24T08:00:58Z</time>
      </trkpt>
      <trkpt lat="44.16862" lon="3.24819">
        <ele>885.0999936</ele>
        <time>2014-10-24T08:01:11Z</time>
      </trkpt>
      <trkpt lat="44.16829" lon="3.24807">
        <ele>883</ele>
        <time>2014-10-24T08:01:24Z</time>
      </trkpt>
      <trkpt lat="44.16814" lon="3.24778">
        <ele>880</ele>
        <time>2014-10-24T08:01:34Z</time>
      </trkpt>
      <trkpt lat="44.168" lon="3.24743">
        <ele>877</ele>
        <time>2014-10-24T08:01:45Z</time>
      </trkpt>
      <trkpt lat="44.16792" lon="3.24707">
        <ele>876</ele>
        <time>2014-10-24T08:01:55Z</time>
      </trkpt>
      <trkpt lat="44.16793" lon="3.24664">
        <ele>875</ele>
        <time>2014-10-24T08:02:08Z</time>
      </trkpt>
      <trkpt lat="44.16792" lon="3.24635">
        <ele>872.0499968</ele>
        <time>2014-10-24T08:02:21Z</time>
      </trkpt>
      <trkpt lat="44.16783" lon="3.2461">
        <ele>872</ele>
        <time>2014-10-24T08:02:35Z</time>
      </trkpt>
      <trkpt lat="44.16769" lon="3.24573">
        <ele>870</ele>
        <time>2014-10-24T08:02:46Z</time>
      </trkpt>
      <trkpt lat="44.16758" lon="3.2453">
        <ele>868</ele>
        <time>2014-10-24T08:02:57Z</time>
      </trkpt>
      <trkpt lat="44.16751" lon="3.24486">
        <ele>866</ele>
        <time>2014-10-24T08:03:09Z</time>
      </trkpt>
      <trkpt lat="44.16742" lon="3.24443">
        <ele>867</ele>
        <time>2014-10-24T08:03:23Z</time>
      </trkpt>
      <trkpt lat="44.1673" lon="3.244">
        <ele>867</ele>
        <time>2014-10-24T08:03:36Z</time>
      </trkpt>
      <trkpt lat="44.16706" lon="3.24371">
        <ele>866</ele>
        <time>2014-10-24T08:03:50Z</time>
      </trkpt>
      <trkpt lat="44.16699" lon="3.24331">
        <ele>857.3499776</ele>
        <time>2014-10-24T08:04:01Z</time>
      </trkpt>
      <trkpt lat="44.16707" lon="3.24285">
        <ele>852</ele>
        <time>2014-10-24T08:04:13Z</time>
      </trkpt>
      <trkpt lat="44.16712" lon="3.24251">
        <ele>850</ele>
        <time>2014-10-24T08:04:24Z</time>
      </trkpt>
      <trkpt lat="44.16685" lon="3.24233">
        <ele>844</ele>
        <time>2014-10-24T08:04:37Z</time>
      </trkpt>
      <trkpt lat="44.1668" lon="3.24208">
        <ele>836</ele>
        <time>2014-10-24T08:04:52Z</time>
      </trkpt>
      <trkpt lat="44.16649" lon="3.24227">
        <ele>833</ele>
        <time>2014-10-24T08:05:03Z</time>
      </trkpt>
      <trkpt lat="44.16646" lon="3.24187">
        <ele>832</ele>
        <time>2014-10-24T08:05:16Z</time>
      </trkpt>
      <trkpt lat="44.16656" lon="3.24146">
        <ele>828</ele>
        <time>2014-10-24T08:05:29Z</time>
      </trkpt>
      <trkpt lat="44.16667" lon="3.2412">
        <ele>828</ele>
        <time>2014-10-24T08:05:40Z</time>
      </trkpt>
      <trkpt lat="44.16688" lon="3.24114">
        <ele>825</ele>
        <time>2014-10-24T08:05:52Z</time>
      </trkpt>
      <trkpt lat="44.16706" lon="3.24119">
        <ele>818.0700032</ele>
        <time>2014-10-24T08:06:03Z</time>
      </trkpt>
      <trkpt lat="44.16698" lon="3.24097">
        <ele>814</ele>
        <time>2014-10-24T08:06:14Z</time>
      </trkpt>
      <trkpt lat="44.16672" lon="3.24066">
        <ele>811.0499968</ele>
        <time>2014-10-24T08:06:26Z</time>
      </trkpt>
      <trkpt lat="44.16652" lon="3.24038">
        <ele>810</ele>
        <time>2014-10-24T08:06:38Z</time>
      </trkpt>
      <trkpt lat="44.16657" lon="3.2399">
        <ele>809.0499968</ele>
        <time>2014-10-24T08:06:51Z</time>
      </trkpt>
      <trkpt lat="44.16652" lon="3.23944">
        <ele>807</ele>
        <time>2014-10-24T08:07:04Z</time>
      </trkpt>
      <trkpt lat="44.16646" lon="3.23901">
        <ele>807</ele>
        <time>2014-10-24T08:07:17Z</time>
      </trkpt>
      <trkpt lat="44.16626" lon="3.23864">
        <ele>807</ele>
        <time>2014-10-24T08:07:29Z</time>
      </trkpt>
      <trkpt lat="44.16618" lon="3.23818">
        <ele>804.0999936</ele>
        <time>2014-10-24T08:07:41Z</time>
      </trkpt>
      <trkpt lat="44.16619" lon="3.23772">
        <ele>803</ele>
        <time>2014-10-24T08:07:52Z</time>
      </trkpt>
      <trkpt lat="44.16596" lon="3.23739">
        <ele>802</ele>
        <time>2014-10-24T08:08:05Z</time>
      </trkpt>
      <trkpt lat="44.16573" lon="3.23731">
        <ele>801</ele>
        <time>2014-10-24T08:08:15Z</time>
      </trkpt>
      <trkpt lat="44.16555" lon="3.23744">
        <ele>800</ele>
        <time>2014-10-24T08:08:26Z</time>
      </trkpt>
      <trkpt lat="44.16539" lon="3.23762">
        <ele>801</ele>
        <time>2014-10-24T08:08:37Z</time>
      </trkpt>
      <trkpt lat="44.16522" lon="3.2378">
        <ele>802</ele>
        <time>2014-10-24T08:08:50Z</time>
      </trkpt>
      <trkpt lat="44.16507" lon="3.23799">
        <ele>805</ele>
        <time>2014-10-24T08:09:04Z</time>
      </trkpt>
      <trkpt lat="44.16494" lon="3.23822">
        <ele>806</ele>
        <time>2014-10-24T08:09:20Z</time>
      </trkpt>
      <trkpt lat="44.16485" lon="3.23852">
        <ele>808</ele>
        <time>2014-10-24T08:09:36Z</time>
      </trkpt>
      <trkpt lat="44.16466" lon="3.23851">
        <ele>809.9500032</ele>
        <time>2014-10-24T08:09:51Z</time>
      </trkpt>
      <trkpt lat="44.16446" lon="3.23864">
        <ele>812</ele>
        <time>2014-10-24T08:10:08Z</time>
      </trkpt>
      <trkpt lat="44.16426" lon="3.23874">
        <ele>814</ele>
        <time>2014-10-24T08:10:22Z</time>
      </trkpt>
      <trkpt lat="44.1641" lon="3.23882">
        <ele>814</ele>
        <time>2014-10-24T08:10:35Z</time>
      </trkpt>
      <trkpt lat="44.16393" lon="3.23892">
        <ele>816</ele>
        <time>2014-10-24T08:10:45Z</time>
      </trkpt>
      <trkpt lat="44.1638" lon="3.23902">
        <ele>817</ele>
        <time>2014-10-24T08:10:57Z</time>
      </trkpt>
      <trkpt lat="44.16361" lon="3.23919">
        <ele>818</ele>
        <time>2014-10-24T08:11:15Z</time>
      </trkpt>
      <trkpt lat="44.1634" lon="3.23926">
        <ele>822</ele>
        <time>2014-10-24T08:11:32Z</time>
      </trkpt>
      <trkpt lat="44.16321" lon="3.23937">
        <ele>822</ele>
        <time>2014-10-24T08:11:46Z</time>
      </trkpt>
      <trkpt lat="44.16301" lon="3.23946">
        <ele>824</ele>
        <time>2014-10-24T08:11:59Z</time>
      </trkpt>
      <trkpt lat="44.16281" lon="3.23948">
        <ele>827</ele>
        <time>2014-10-24T08:12:13Z</time>
      </trkpt>
      <trkpt lat="44.16261" lon="3.23958">
        <ele>828</ele>
        <time>2014-10-24T08:12:28Z</time>
      </trkpt>
      <trkpt lat="44.16242" lon="3.23969">
        <ele>832</ele>
        <time>2014-10-24T08:12:47Z</time>
      </trkpt>
      <trkpt lat="44.16229" lon="3.23994">
        <ele>835</ele>
        <time>2014-10-24T08:13:04Z</time>
      </trkpt>
      <trkpt lat="44.16218" lon="3.24019">
        <ele>837</ele>
        <time>2014-10-24T08:13:23Z</time>
      </trkpt>
      <trkpt lat="44.16208" lon="3.24012">
        <ele>839</ele>
        <time>2014-10-24T08:13:39Z</time>
      </trkpt>
      <trkpt lat="44.16199" lon="3.24007">
        <ele>844</ele>
        <time>2014-10-24T08:13:52Z</time>
      </trkpt>
      <trkpt lat="44.1619" lon="3.23998">
        <ele>846</ele>
        <time>2014-10-24T08:14:03Z</time>
      </trkpt>
      <trkpt lat="44.1618" lon="3.23973">
        <ele>854</ele>
        <time>2014-10-24T08:14:32Z</time>
      </trkpt>
      <trkpt lat="44.16171" lon="3.2397">
        <ele>855</ele>
        <time>2014-10-24T08:14:50Z</time>
      </trkpt>
      <trkpt lat="44.16162" lon="3.23974">
        <ele>859.0499968</ele>
        <time>2014-10-24T08:15:07Z</time>
      </trkpt>
      <trkpt lat="44.16153" lon="3.23981">
        <ele>861</ele>
        <time>2014-10-24T08:15:17Z</time>
      </trkpt>
      <trkpt lat="44.1614" lon="3.23999">
        <ele>863</ele>
        <time>2014-10-24T08:15:28Z</time>
      </trkpt>
      <trkpt lat="44.16127" lon="3.24033">
        <ele>863.9000064</ele>
        <time>2014-10-24T08:15:41Z</time>
      </trkpt>
      <trkpt lat="44.16101" lon="3.24057">
        <ele>864</ele>
        <time>2014-10-24T08:15:55Z</time>
      </trkpt>
      <trkpt lat="44.16082" lon="3.24094">
        <ele>864</ele>
        <time>2014-10-24T08:16:08Z</time>
      </trkpt>
      <trkpt lat="44.16065" lon="3.24117">
        <ele>864</ele>
        <time>2014-10-24T08:16:20Z</time>
      </trkpt>
      <trkpt lat="44.1605" lon="3.24136">
        <ele>864</ele>
        <time>2014-10-24T08:16:30Z</time>
      </trkpt>
      <trkpt lat="44.16021" lon="3.24125">
        <ele>865</ele>
        <time>2014-10-24T08:16:42Z</time>
      </trkpt>
      <trkpt lat="44.16007" lon="3.24135">
        <ele>862</ele>
        <time>2014-10-24T08:16:53Z</time>
      </trkpt>
      <trkpt lat="44.16001" lon="3.24164">
        <ele>860</ele>
        <time>2014-10-24T08:17:03Z</time>
      </trkpt>
      <trkpt lat="44.1598" lon="3.24162">
        <ele>860</ele>
        <time>2014-10-24T08:17:14Z</time>
      </trkpt>
      <trkpt lat="44.15959" lon="3.24153">
        <ele>862</ele>
        <time>2014-10-24T08:17:30Z</time>
      </trkpt>
      <trkpt lat="44.15938" lon="3.2415">
        <ele>865</ele>
        <time>2014-10-24T08:17:48Z</time>
      </trkpt>
      <trkpt lat="44.15923" lon="3.2417">
        <ele>867</ele>
        <time>2014-10-24T08:18:05Z</time>
      </trkpt>
      <trkpt lat="44.15932" lon="3.24187">
        <ele>870</ele>
        <time>2014-10-24T08:18:22Z</time>
      </trkpt>
      <trkpt lat="44.15942" lon="3.24206">
        <ele>871</ele>
        <time>2014-10-24T08:18:38Z</time>
      </trkpt>
      <trkpt lat="44.15929" lon="3.2423">
        <ele>874</ele>
        <time>2014-10-24T08:18:52Z</time>
      </trkpt>
      <trkpt lat="44.15916" lon="3.24256">
        <ele>876</ele>
        <time>2014-10-24T08:19:05Z</time>
      </trkpt>
      <trkpt lat="44.1591" lon="3.24283">
        <ele>876</ele>
        <time>2014-10-24T08:19:15Z</time>
      </trkpt>
      <trkpt lat="44.15898" lon="3.24307">
        <ele>877</ele>
        <time>2014-10-24T08:19:25Z</time>
      </trkpt>
      <trkpt lat="44.15877" lon="3.2431">
        <ele>878</ele>
        <time>2014-10-24T08:19:35Z</time>
      </trkpt>
      <trkpt lat="44.15858" lon="3.24318">
        <ele>880</ele>
        <time>2014-10-24T08:19:50Z</time>
      </trkpt>
      <trkpt lat="44.15839" lon="3.24334">
        <ele>880.9500032</ele>
        <time>2014-10-24T08:20:01Z</time>
      </trkpt>
      <trkpt lat="44.15816" lon="3.24337">
        <ele>882</ele>
        <time>2014-10-24T08:20:12Z</time>
      </trkpt>
      <trkpt lat="44.15784" lon="3.24335">
        <ele>884</ele>
        <time>2014-10-24T08:20:28Z</time>
      </trkpt>
      <trkpt lat="44.15765" lon="3.24348">
        <ele>886</ele>
        <time>2014-10-24T08:20:43Z</time>
      </trkpt>
      <trkpt lat="44.15743" lon="3.24349">
        <ele>888</ele>
        <time>2014-10-24T08:20:57Z</time>
      </trkpt>
      <trkpt lat="44.15724" lon="3.24353">
        <ele>892</ele>
        <time>2014-10-24T08:21:13Z</time>
      </trkpt>
      <trkpt lat="44.15705" lon="3.2437">
        <ele>893</ele>
        <time>2014-10-24T08:21:27Z</time>
      </trkpt>
      <trkpt lat="44.15676" lon="3.24393">
        <ele>894</ele>
        <time>2014-10-24T08:21:41Z</time>
      </trkpt>
      <trkpt lat="44.15649" lon="3.24417">
        <ele>892</ele>
        <time>2014-10-24T08:21:53Z</time>
      </trkpt>
      <trkpt lat="44.15624" lon="3.24448">
        <ele>892</ele>
        <time>2014-10-24T08:22:06Z</time>
      </trkpt>
      <trkpt lat="44.15596" lon="3.24472">
        <ele>892</ele>
        <time>2014-10-24T08:22:19Z</time>
      </trkpt>
      <trkpt lat="44.15572" lon="3.245">
        <ele>892</ele>
        <time>2014-10-24T08:22:32Z</time>
      </trkpt>
      <trkpt lat="44.15556" lon="3.24523">
        <ele>892</ele>
        <time>2014-10-24T08:22:42Z</time>
      </trkpt>
      <trkpt lat="44.15545" lon="3.24546">
        <ele>893</ele>
        <time>2014-10-24T08:22:52Z</time>
      </trkpt>
      <trkpt lat="44.1553" lon="3.24569">
        <ele>893</ele>
        <time>2014-10-24T08:23:02Z</time>
      </trkpt>
      <trkpt lat="44.15513" lon="3.24591">
        <ele>893</ele>
        <time>2014-10-24T08:23:12Z</time>
      </trkpt>
      <trkpt lat="44.15498" lon="3.24616">
        <ele>893</ele>
        <time>2014-10-24T08:23:22Z</time>
      </trkpt>
      <trkpt lat="44.15485" lon="3.24642">
        <ele>893</ele>
        <time>2014-10-24T08:23:32Z</time>
      </trkpt>
      <trkpt lat="44.15474" lon="3.24669">
        <ele>895</ele>
        <time>2014-10-24T08:23:42Z</time>
      </trkpt>
      <trkpt lat="44.15469" lon="3.247">
        <ele>895</ele>
        <time>2014-10-24T08:23:52Z</time>
      </trkpt>
      <trkpt lat="44.15476" lon="3.24742">
        <ele>891</ele>
        <time>2014-10-24T08:24:05Z</time>
      </trkpt>
      <trkpt lat="44.15489" lon="3.24784">
        <ele>889</ele>
        <time>2014-10-24T08:24:18Z</time>
      </trkpt>
      <trkpt lat="44.15485" lon="3.2483">
        <ele>888</ele>
        <time>2014-10-24T08:24:31Z</time>
      </trkpt>
      <trkpt lat="44.15488" lon="3.24859">
        <ele>888</ele>
        <time>2014-10-24T08:24:41Z</time>
      </trkpt>
      <trkpt lat="44.15493" lon="3.24889">
        <ele>888</ele>
        <time>2014-10-24T08:24:51Z</time>
      </trkpt>
      <trkpt lat="44.15482" lon="3.24915">
        <ele>890</ele>
        <time>2014-10-24T08:25:04Z</time>
      </trkpt>
      <trkpt lat="44.15462" lon="3.24913">
        <ele>892</ele>
        <time>2014-10-24T08:25:17Z</time>
      </trkpt>
      <trkpt lat="44.15461" lon="3.24884">
        <ele>892</ele>
        <time>2014-10-24T08:25:28Z</time>
      </trkpt>
      <trkpt lat="44.15452" lon="3.24875">
        <ele>887</ele>
        <time>2014-10-24T08:25:58Z</time>
      </trkpt>
      <trkpt lat="44.15434" lon="3.24856">
        <ele>885</ele>
        <time>2014-10-24T08:26:08Z</time>
      </trkpt>
      <trkpt lat="44.15418" lon="3.24834">
        <ele>885</ele>
        <time>2014-10-24T08:26:18Z</time>
      </trkpt>
      <trkpt lat="44.15398" lon="3.24797">
        <ele>878</ele>
        <time>2014-10-24T08:26:30Z</time>
      </trkpt>
      <trkpt lat="44.15376" lon="3.24787">
        <ele>877</ele>
        <time>2014-10-24T08:26:42Z</time>
      </trkpt>
      <trkpt lat="44.15344" lon="3.24778">
        <ele>873</ele>
        <time>2014-10-24T08:27:03Z</time>
      </trkpt>
      <trkpt lat="44.15329" lon="3.24757">
        <ele>871</ele>
        <time>2014-10-24T08:27:13Z</time>
      </trkpt>
      <trkpt lat="44.15329" lon="3.24712">
        <ele>863.1499904</ele>
        <time>2014-10-24T08:27:26Z</time>
      </trkpt>
      <trkpt lat="44.15344" lon="3.24692">
        <ele>862</ele>
        <time>2014-10-24T08:27:38Z</time>
      </trkpt>
      <trkpt lat="44.15334" lon="3.24685">
        <ele>862</ele>
        <time>2014-10-24T08:27:48Z</time>
      </trkpt>
      <trkpt lat="44.15313" lon="3.24685">
        <ele>854</ele>
        <time>2014-10-24T08:28:02Z</time>
      </trkpt>
      <trkpt lat="44.15293" lon="3.24674">
        <ele>853</ele>
        <time>2014-10-24T08:28:18Z</time>
      </trkpt>
      <trkpt lat="44.15283" lon="3.2467">
        <ele>857</ele>
        <time>2014-10-24T08:28:30Z</time>
      </trkpt>
      <trkpt lat="44.15273" lon="3.24668">
        <ele>860</ele>
        <time>2014-10-24T08:28:40Z</time>
      </trkpt>
      <trkpt lat="44.15262" lon="3.24668">
        <ele>862</ele>
        <time>2014-10-24T08:28:52Z</time>
      </trkpt>
      <trkpt lat="44.15251" lon="3.24672">
        <ele>867</ele>
        <time>2014-10-24T08:29:08Z</time>
      </trkpt>
      <trkpt lat="44.1524" lon="3.24671">
        <ele>868</ele>
        <time>2014-10-24T08:29:18Z</time>
      </trkpt>
      <trkpt lat="44.15219" lon="3.24668">
        <ele>871</ele>
        <time>2014-10-24T08:29:33Z</time>
      </trkpt>
      <trkpt lat="44.1521" lon="3.24691">
        <ele>871</ele>
        <time>2014-10-24T08:29:50Z</time>
      </trkpt>
      <trkpt lat="44.15209" lon="3.24721">
        <ele>874.0499968</ele>
        <time>2014-10-24T08:30:08Z</time>
      </trkpt>
      <trkpt lat="44.15209" lon="3.24749">
        <ele>879</ele>
        <time>2014-10-24T08:30:25Z</time>
      </trkpt>
      <trkpt lat="44.1522" lon="3.24773">
        <ele>879</ele>
        <time>2014-10-24T08:30:40Z</time>
      </trkpt>
      <trkpt lat="44.15212" lon="3.24799">
        <ele>883</ele>
        <time>2014-10-24T08:30:56Z</time>
      </trkpt>
      <trkpt lat="44.15196" lon="3.24819">
        <ele>884</ele>
        <time>2014-10-24T08:31:10Z</time>
      </trkpt>
      <trkpt lat="44.15195" lon="3.24848">
        <ele>887</ele>
        <time>2014-10-24T08:31:25Z</time>
      </trkpt>
      <trkpt lat="44.15189" lon="3.24878">
        <ele>886</ele>
        <time>2014-10-24T08:31:37Z</time>
      </trkpt>
      <trkpt lat="44.15191" lon="3.24909">
        <ele>888</ele>
        <time>2014-10-24T08:31:48Z</time>
      </trkpt>
      <trkpt lat="44.15182" lon="3.24934">
        <ele>889</ele>
        <time>2014-10-24T08:31:59Z</time>
      </trkpt>
      <trkpt lat="44.15174" lon="3.24962">
        <ele>890</ele>
        <time>2014-10-24T08:32:12Z</time>
      </trkpt>
      <trkpt lat="44.15173" lon="3.24991">
        <ele>891</ele>
        <time>2014-10-24T08:32:23Z</time>
      </trkpt>
      <trkpt lat="44.15169" lon="3.2502">
        <ele>892</ele>
        <time>2014-10-24T08:32:37Z</time>
      </trkpt>
      <trkpt lat="44.1515" lon="3.25036">
        <ele>893</ele>
        <time>2014-10-24T08:32:51Z</time>
      </trkpt>
      <trkpt lat="44.15128" lon="3.25044">
        <ele>891.0999936</ele>
        <time>2014-10-24T08:33:01Z</time>
      </trkpt>
      <trkpt lat="44.15095" lon="3.25047">
        <ele>890</ele>
        <time>2014-10-24T08:33:15Z</time>
      </trkpt>
      <trkpt lat="44.15063" lon="3.25054">
        <ele>890</ele>
        <time>2014-10-24T08:33:28Z</time>
      </trkpt>
      <trkpt lat="44.15043" lon="3.25086">
        <ele>890</ele>
        <time>2014-10-24T08:33:39Z</time>
      </trkpt>
      <trkpt lat="44.15034" lon="3.25129">
        <ele>889</ele>
        <time>2014-10-24T08:33:52Z</time>
      </trkpt>
      <trkpt lat="44.15042" lon="3.25175">
        <ele>888</ele>
        <time>2014-10-24T08:34:04Z</time>
      </trkpt>
      <trkpt lat="44.15054" lon="3.2522">
        <ele>888</ele>
        <time>2014-10-24T08:34:17Z</time>
      </trkpt>
      <trkpt lat="44.15058" lon="3.25265">
        <ele>888</ele>
        <time>2014-10-24T08:34:29Z</time>
      </trkpt>
      <trkpt lat="44.15067" lon="3.25309">
        <ele>885.0999936</ele>
        <time>2014-10-24T08:34:41Z</time>
      </trkpt>
      <trkpt lat="44.15074" lon="3.25349">
        <ele>885</ele>
        <time>2014-10-24T08:34:54Z</time>
      </trkpt>
      <trkpt lat="44.15079" lon="3.25379">
        <ele>886</ele>
        <time>2014-10-24T08:35:04Z</time>
      </trkpt>
      <trkpt lat="44.15098" lon="3.25416">
        <ele>886</ele>
        <time>2014-10-24T08:35:17Z</time>
      </trkpt>
      <trkpt lat="44.15113" lon="3.25454">
        <ele>886</ele>
        <time>2014-10-24T08:35:29Z</time>
      </trkpt>
      <trkpt lat="44.15132" lon="3.25491">
        <ele>885</ele>
        <time>2014-10-24T08:35:42Z</time>
      </trkpt>
      <trkpt lat="44.15156" lon="3.25522">
        <ele>884</ele>
        <time>2014-10-24T08:35:54Z</time>
      </trkpt>
      <trkpt lat="44.15169" lon="3.25563">
        <ele>884</ele>
        <time>2014-10-24T08:36:07Z</time>
      </trkpt>
      <trkpt lat="44.15183" lon="3.25602">
        <ele>883</ele>
        <time>2014-10-24T08:36:19Z</time>
      </trkpt>
      <trkpt lat="44.15182" lon="3.25651">
        <ele>881.0499968</ele>
        <time>2014-10-24T08:36:31Z</time>
      </trkpt>
      <trkpt lat="44.15176" lon="3.25694">
        <ele>880</ele>
        <time>2014-10-24T08:36:45Z</time>
      </trkpt>
      <trkpt lat="44.15195" lon="3.25711">
        <ele>880</ele>
        <time>2014-10-24T08:36:56Z</time>
      </trkpt>
      <trkpt lat="44.15226" lon="3.2572">
        <ele>881</ele>
        <time>2014-10-24T08:37:08Z</time>
      </trkpt>
      <trkpt lat="44.15248" lon="3.25726">
        <ele>882</ele>
        <time>2014-10-24T08:37:19Z</time>
      </trkpt>
      <trkpt lat="44.1527" lon="3.25735">
        <ele>884</ele>
        <time>2014-10-24T08:37:29Z</time>
      </trkpt>
      <trkpt lat="44.15282" lon="3.25771">
        <ele>887</ele>
        <time>2014-10-24T08:37:43Z</time>
      </trkpt>
      <trkpt lat="44.15285" lon="3.25804">
        <ele>887</ele>
        <time>2014-10-24T08:37:53Z</time>
      </trkpt>
      <trkpt lat="44.15291" lon="3.25848">
        <ele>885</ele>
        <time>2014-10-24T08:38:06Z</time>
      </trkpt>
      <trkpt lat="44.15285" lon="3.25894">
        <ele>885</ele>
        <time>2014-10-24T08:38:18Z</time>
      </trkpt>
      <trkpt lat="44.1527" lon="3.25917">
        <ele>883</ele>
        <time>2014-10-24T08:38:29Z</time>
      </trkpt>
      <trkpt lat="44.15253" lon="3.25905">
        <ele>881</ele>
        <time>2014-10-24T08:38:52Z</time>
      </trkpt>
      <trkpt lat="44.15263" lon="3.25904">
        <ele>881</ele>
        <time>2014-10-24T08:41:09Z</time>
      </trkpt>
      <trkpt lat="44.15258" lon="3.25891">
        <ele>881</ele>
        <time>2014-10-24T08:41:20Z</time>
      </trkpt>
      <trkpt lat="44.15238" lon="3.25881">
        <ele>882</ele>
        <time>2014-10-24T08:41:33Z</time>
      </trkpt>
      <trkpt lat="44.15215" lon="3.25864">
        <ele>881</ele>
        <time>2014-10-24T08:41:44Z</time>
      </trkpt>
      <trkpt lat="44.15191" lon="3.25837">
        <ele>880</ele>
        <time>2014-10-24T08:41:56Z</time>
      </trkpt>
      <trkpt lat="44.15175" lon="3.25805">
        <ele>879</ele>
        <time>2014-10-24T08:42:07Z</time>
      </trkpt>
      <trkpt lat="44.15159" lon="3.25786">
        <ele>878</ele>
        <time>2014-10-24T08:42:17Z</time>
      </trkpt>
      <trkpt lat="44.1514" lon="3.25757">
        <ele>877</ele>
        <time>2014-10-24T08:42:30Z</time>
      </trkpt>
      <trkpt lat="44.15131" lon="3.25714">
        <ele>875</ele>
        <time>2014-10-24T08:42:44Z</time>
      </trkpt>
      <trkpt lat="44.15122" lon="3.2567">
        <ele>874</ele>
        <time>2014-10-24T08:42:57Z</time>
      </trkpt>
      <trkpt lat="44.15092" lon="3.25656">
        <ele>873</ele>
        <time>2014-10-24T08:43:10Z</time>
      </trkpt>
      <trkpt lat="44.15061" lon="3.25652">
        <ele>871</ele>
        <time>2014-10-24T08:43:22Z</time>
      </trkpt>
      <trkpt lat="44.15028" lon="3.25638">
        <ele>869</ele>
        <time>2014-10-24T08:43:34Z</time>
      </trkpt>
      <trkpt lat="44.14999" lon="3.25621">
        <ele>867</ele>
        <time>2014-10-24T08:43:46Z</time>
      </trkpt>
      <trkpt lat="44.14969" lon="3.25605">
        <ele>865</ele>
        <time>2014-10-24T08:43:58Z</time>
      </trkpt>
      <trkpt lat="44.14943" lon="3.25579">
        <ele>863</ele>
        <time>2014-10-24T08:44:11Z</time>
      </trkpt>
      <trkpt lat="44.14924" lon="3.2556">
        <ele>863</ele>
        <time>2014-10-24T08:44:21Z</time>
      </trkpt>
      <trkpt lat="44.14907" lon="3.25538">
        <ele>863</ele>
        <time>2014-10-24T08:44:31Z</time>
      </trkpt>
      <trkpt lat="44.1489" lon="3.25499">
        <ele>862</ele>
        <time>2014-10-24T08:44:44Z</time>
      </trkpt>
      <trkpt lat="44.14864" lon="3.25474">
        <ele>862</ele>
        <time>2014-10-24T08:44:57Z</time>
      </trkpt>
      <trkpt lat="44.14831" lon="3.25486">
        <ele>861</ele>
        <time>2014-10-24T08:45:09Z</time>
      </trkpt>
      <trkpt lat="44.14799" lon="3.25494">
        <ele>855.1999872</ele>
        <time>2014-10-24T08:45:21Z</time>
      </trkpt>
      <trkpt lat="44.1477" lon="3.25464">
        <ele>853</ele>
        <time>2014-10-24T08:45:33Z</time>
      </trkpt>
      <trkpt lat="44.14739" lon="3.25451">
        <ele>851</ele>
        <time>2014-10-24T08:45:46Z</time>
      </trkpt>
      <trkpt lat="44.14714" lon="3.25454">
        <ele>850</ele>
        <time>2014-10-24T08:45:56Z</time>
      </trkpt>
      <trkpt lat="44.14682" lon="3.25466">
        <ele>848</ele>
        <time>2014-10-24T08:46:08Z</time>
      </trkpt>
      <trkpt lat="44.1465" lon="3.25459">
        <ele>846</ele>
        <time>2014-10-24T08:46:20Z</time>
      </trkpt>
      <trkpt lat="44.14617" lon="3.25456">
        <ele>841</ele>
        <time>2014-10-24T08:46:32Z</time>
      </trkpt>
      <trkpt lat="44.14584" lon="3.25451">
        <ele>840</ele>
        <time>2014-10-24T08:46:45Z</time>
      </trkpt>
      <trkpt lat="44.14552" lon="3.25445">
        <ele>839</ele>
        <time>2014-10-24T08:46:58Z</time>
      </trkpt>
      <trkpt lat="44.1452" lon="3.25444">
        <ele>835</ele>
        <time>2014-10-24T08:47:14Z</time>
      </trkpt>
      <trkpt lat="44.14491" lon="3.25421">
        <ele>835</ele>
        <time>2014-10-24T08:47:27Z</time>
      </trkpt>
      <trkpt lat="44.14463" lon="3.25404">
        <ele>834</ele>
        <time>2014-10-24T08:47:40Z</time>
      </trkpt>
      <trkpt lat="44.14431" lon="3.254">
        <ele>832</ele>
        <time>2014-10-24T08:47:53Z</time>
      </trkpt>
      <trkpt lat="44.14411" lon="3.25401">
        <ele>832</ele>
        <time>2014-10-24T08:48:04Z</time>
      </trkpt>
      <trkpt lat="44.14379" lon="3.254">
        <ele>834</ele>
        <time>2014-10-24T08:48:18Z</time>
      </trkpt>
      <trkpt lat="44.14347" lon="3.25388">
        <ele>833</ele>
        <time>2014-10-24T08:48:32Z</time>
      </trkpt>
      <trkpt lat="44.14318" lon="3.25369">
        <ele>832</ele>
        <time>2014-10-24T08:48:42Z</time>
      </trkpt>
      <trkpt lat="44.14287" lon="3.25364">
        <ele>830</ele>
        <time>2014-10-24T08:48:54Z</time>
      </trkpt>
      <trkpt lat="44.1425" lon="3.25361">
        <ele>826</ele>
        <time>2014-10-24T08:49:07Z</time>
      </trkpt>
      <trkpt lat="44.14218" lon="3.25351">
        <ele>821</ele>
        <time>2014-10-24T08:49:19Z</time>
      </trkpt>
      <trkpt lat="44.14187" lon="3.25335">
        <ele>820</ele>
        <time>2014-10-24T08:49:31Z</time>
      </trkpt>
      <trkpt lat="44.14157" lon="3.25319">
        <ele>817</ele>
        <time>2014-10-24T08:49:43Z</time>
      </trkpt>
      <trkpt lat="44.14125" lon="3.25306">
        <ele>815</ele>
        <time>2014-10-24T08:49:55Z</time>
      </trkpt>
      <trkpt lat="44.14091" lon="3.25301">
        <ele>811</ele>
        <time>2014-10-24T08:50:07Z</time>
      </trkpt>
      <trkpt lat="44.14059" lon="3.25293">
        <ele>810</ele>
        <time>2014-10-24T08:50:19Z</time>
      </trkpt>
      <trkpt lat="44.14027" lon="3.25284">
        <ele>809</ele>
        <time>2014-10-24T08:50:32Z</time>
      </trkpt>
      <trkpt lat="44.13994" lon="3.25283">
        <ele>808</ele>
        <time>2014-10-24T08:50:45Z</time>
      </trkpt>
      <trkpt lat="44.13966" lon="3.25288">
        <ele>807</ele>
        <time>2014-10-24T08:50:56Z</time>
      </trkpt>
      <trkpt lat="44.13935" lon="3.25294">
        <ele>804</ele>
        <time>2014-10-24T08:51:08Z</time>
      </trkpt>
      <trkpt lat="44.13903" lon="3.25301">
        <ele>803</ele>
        <time>2014-10-24T08:51:20Z</time>
      </trkpt>
      <trkpt lat="44.13872" lon="3.2531">
        <ele>801.0499968</ele>
        <time>2014-10-24T08:51:31Z</time>
      </trkpt>
      <trkpt lat="44.13844" lon="3.25321">
        <ele>800</ele>
        <time>2014-10-24T08:51:42Z</time>
      </trkpt>
      <trkpt lat="44.1381" lon="3.2533">
        <ele>797</ele>
        <time>2014-10-24T08:51:54Z</time>
      </trkpt>
      <trkpt lat="44.13778" lon="3.25335">
        <ele>792.05050165494</ele>
        <time>2014-10-24T08:52:06Z</time>
      </trkpt>
      <trkpt lat="44.13747" lon="3.25339">
        <ele>791</ele>
        <time>2014-10-24T08:52:18Z</time>
      </trkpt>
      <trkpt lat="44.13716" lon="3.25346">
        <ele>789</ele>
        <time>2014-10-24T08:52:30Z</time>
      </trkpt>
      <trkpt lat="44.13683" lon="3.25341">
        <ele>785</ele>
        <time>2014-10-24T08:52:43Z</time>
      </trkpt>
      <trkpt lat="44.13653" lon="3.25349">
        <ele>783</ele>
        <time>2014-10-24T08:52:55Z</time>
      </trkpt>
      <trkpt lat="44.13621" lon="3.25355">
        <ele>778</ele>
        <time>2014-10-24T08:53:07Z</time>
      </trkpt>
      <trkpt lat="44.1359" lon="3.25356">
        <ele>777</ele>
        <time>2014-10-24T08:53:20Z</time>
      </trkpt>
      <trkpt lat="44.13572" lon="3.25352">
        <ele>779</ele>
        <time>2014-10-24T08:53:32Z</time>
      </trkpt>
      <trkpt lat="44.1355" lon="3.25324">
        <ele>779</ele>
        <time>2014-10-24T08:53:43Z</time>
      </trkpt>
      <trkpt lat="44.13528" lon="3.25296">
        <ele>777</ele>
        <time>2014-10-24T08:53:54Z</time>
      </trkpt>
      <trkpt lat="44.13502" lon="3.25265">
        <ele>775</ele>
        <time>2014-10-24T08:54:06Z</time>
      </trkpt>
      <trkpt lat="44.13478" lon="3.25234">
        <ele>775</ele>
        <time>2014-10-24T08:54:18Z</time>
      </trkpt>
      <trkpt lat="44.13482" lon="3.25191">
        <ele>768</ele>
        <time>2014-10-24T08:54:32Z</time>
      </trkpt>
      <trkpt lat="44.13466" lon="3.25168">
        <ele>768</ele>
        <time>2014-10-24T08:54:42Z</time>
      </trkpt>
      <trkpt lat="44.1345" lon="3.25149">
        <ele>769</ele>
        <time>2014-10-24T08:54:52Z</time>
      </trkpt>
      <trkpt lat="44.13431" lon="3.25118">
        <ele>769</ele>
        <time>2014-10-24T08:55:05Z</time>
      </trkpt>
      <trkpt lat="44.13413" lon="3.25079">
        <ele>770</ele>
        <time>2014-10-24T08:55:19Z</time>
      </trkpt>
      <trkpt lat="44.134" lon="3.25035">
        <ele>767.0999936</ele>
        <time>2014-10-24T08:55:31Z</time>
      </trkpt>
      <trkpt lat="44.13379" lon="3.25005">
        <ele>764</ele>
        <time>2014-10-24T08:55:42Z</time>
      </trkpt>
      <trkpt lat="44.13356" lon="3.24985">
        <ele>763</ele>
        <time>2014-10-24T08:55:53Z</time>
      </trkpt>
      <trkpt lat="44.1334" lon="3.24961">
        <ele>763</ele>
        <time>2014-10-24T08:56:03Z</time>
      </trkpt>
      <trkpt lat="44.13324" lon="3.24925">
        <ele>763</ele>
        <time>2014-10-24T08:56:15Z</time>
      </trkpt>
      <trkpt lat="44.13304" lon="3.24894">
        <ele>761</ele>
        <time>2014-10-24T08:56:27Z</time>
      </trkpt>
      <trkpt lat="44.13284" lon="3.24873">
        <ele>760</ele>
        <time>2014-10-24T08:56:37Z</time>
      </trkpt>
      <trkpt lat="44.13259" lon="3.24846">
        <ele>755</ele>
        <time>2014-10-24T08:56:49Z</time>
      </trkpt>
      <trkpt lat="44.13237" lon="3.24811">
        <ele>752</ele>
        <time>2014-10-24T08:57:02Z</time>
      </trkpt>
      <trkpt lat="44.13216" lon="3.24775">
        <ele>750</ele>
        <time>2014-10-24T08:57:15Z</time>
      </trkpt>
      <trkpt lat="44.13194" lon="3.24743">
        <ele>748</ele>
        <time>2014-10-24T08:57:27Z</time>
      </trkpt>
      <trkpt lat="44.13169" lon="3.24712">
        <ele>748</ele>
        <time>2014-10-24T08:57:41Z</time>
      </trkpt>
      <trkpt lat="44.13148" lon="3.24679">
        <ele>747</ele>
        <time>2014-10-24T08:57:55Z</time>
      </trkpt>
      <trkpt lat="44.13138" lon="3.24662">
        <ele>747</ele>
        <time>2014-10-24T08:58:14Z</time>
      </trkpt>
      <trkpt lat="44.13128" lon="3.24646">
        <ele>747</ele>
        <time>2014-10-24T08:58:26Z</time>
      </trkpt>
      <trkpt lat="44.13117" lon="3.24632">
        <ele>747</ele>
        <time>2014-10-24T08:58:37Z</time>
      </trkpt>
      <trkpt lat="44.13089" lon="3.24609">
        <ele>745</ele>
        <time>2014-10-24T08:58:49Z</time>
      </trkpt>
      <trkpt lat="44.13058" lon="3.24589">
        <ele>740.1999872</ele>
        <time>2014-10-24T08:59:01Z</time>
      </trkpt>
      <trkpt lat="44.13037" lon="3.24555">
        <ele>738</ele>
        <time>2014-10-24T08:59:14Z</time>
      </trkpt>
      <trkpt lat="44.13017" lon="3.24565">
        <ele>735</ele>
        <time>2014-10-24T08:59:24Z</time>
      </trkpt>
      <trkpt lat="44.12995" lon="3.24556">
        <ele>725</ele>
        <time>2014-10-24T08:59:39Z</time>
      </trkpt>
      <trkpt lat="44.13014" lon="3.2453">
        <ele>723</ele>
        <time>2014-10-24T08:59:49Z</time>
      </trkpt>
      <trkpt lat="44.13036" lon="3.24496">
        <ele>717.1799936</ele>
        <time>2014-10-24T09:00:01Z</time>
      </trkpt>
      <trkpt lat="44.1306" lon="3.24463">
        <ele>715</ele>
        <time>2014-10-24T09:00:13Z</time>
      </trkpt>
      <trkpt lat="44.13066" lon="3.2445">
        <ele>709</ele>
        <time>2014-10-24T09:00:32Z</time>
      </trkpt>
      <trkpt lat="44.13033" lon="3.2447">
        <ele>707</ele>
        <time>2014-10-24T09:00:45Z</time>
      </trkpt>
      <trkpt lat="44.13012" lon="3.24483">
        <ele>702</ele>
        <time>2014-10-24T09:00:55Z</time>
      </trkpt>
      <trkpt lat="44.12991" lon="3.24493">
        <ele>696</ele>
        <time>2014-10-24T09:01:05Z</time>
      </trkpt>
      <trkpt lat="44.12968" lon="3.24492">
        <ele>689.0499968</ele>
        <time>2014-10-24T09:01:15Z</time>
      </trkpt>
      <trkpt lat="44.12947" lon="3.24503">
        <ele>683.04</ele>
        <time>2014-10-24T09:01:26Z</time>
      </trkpt>
      <trkpt lat="44.12928" lon="3.24509">
        <ele>680</ele>
        <time>2014-10-24T09:01:40Z</time>
      </trkpt>
      <trkpt lat="44.12911" lon="3.2448">
        <ele>673</ele>
        <time>2014-10-24T09:01:53Z</time>
      </trkpt>
      <trkpt lat="44.12889" lon="3.24471">
        <ele>667</ele>
        <time>2014-10-24T09:02:03Z</time>
      </trkpt>
      <trkpt lat="44.12869" lon="3.24483">
        <ele>663</ele>
        <time>2014-10-24T09:02:14Z</time>
      </trkpt>
      <trkpt lat="44.12878" lon="3.24472">
        <ele>657</ele>
        <time>2014-10-24T09:02:29Z</time>
      </trkpt>
      <trkpt lat="44.12908" lon="3.24468">
        <ele>657</ele>
        <time>2014-10-24T09:02:42Z</time>
      </trkpt>
      <trkpt lat="44.12935" lon="3.24456">
        <ele>656</ele>
        <time>2014-10-24T09:02:53Z</time>
      </trkpt>
      <trkpt lat="44.12963" lon="3.24429">
        <ele>652</ele>
        <time>2014-10-24T09:03:05Z</time>
      </trkpt>
      <trkpt lat="44.12987" lon="3.24403">
        <ele>650</ele>
        <time>2014-10-24T09:03:17Z</time>
      </trkpt>
      <trkpt lat="44.12998" lon="3.24371">
        <ele>649</ele>
        <time>2014-10-24T09:03:30Z</time>
      </trkpt>
      <trkpt lat="44.12967" lon="3.24365">
        <ele>646</ele>
        <time>2014-10-24T09:03:42Z</time>
      </trkpt>
      <trkpt lat="44.12939" lon="3.2434">
        <ele>644</ele>
        <time>2014-10-24T09:03:54Z</time>
      </trkpt>
      <trkpt lat="44.12914" lon="3.24305">
        <ele>638.0499968</ele>
        <time>2014-10-24T09:04:06Z</time>
      </trkpt>
      <trkpt lat="44.12898" lon="3.24266">
        <ele>637</ele>
        <time>2014-10-24T09:04:18Z</time>
      </trkpt>
      <trkpt lat="44.12905" lon="3.24226">
        <ele>636</ele>
        <time>2014-10-24T09:04:30Z</time>
      </trkpt>
      <trkpt lat="44.12913" lon="3.24181">
        <ele>636</ele>
        <time>2014-10-24T09:04:43Z</time>
      </trkpt>
      <trkpt lat="44.12918" lon="3.24147">
        <ele>635</ele>
        <time>2014-10-24T09:04:53Z</time>
      </trkpt>
      <trkpt lat="44.12928" lon="3.24108">
        <ele>632</ele>
        <time>2014-10-24T09:05:06Z</time>
      </trkpt>
      <trkpt lat="44.1293" lon="3.24092">
        <ele>633</ele>
        <time>2014-10-24T09:05:17Z</time>
      </trkpt>
      <trkpt lat="44.12911" lon="3.24074">
        <ele>635</ele>
        <time>2014-10-24T09:05:31Z</time>
      </trkpt>
      <trkpt lat="44.12893" lon="3.24068">
        <ele>633</ele>
        <time>2014-10-24T09:05:42Z</time>
      </trkpt>
      <trkpt lat="44.12868" lon="3.24096">
        <ele>631</ele>
        <time>2014-10-24T09:05:54Z</time>
      </trkpt>
      <trkpt lat="44.12847" lon="3.24104">
        <ele>630</ele>
        <time>2014-10-24T09:06:04Z</time>
      </trkpt>
      <trkpt lat="44.12824" lon="3.24111">
        <ele>630</ele>
        <time>2014-10-24T09:06:14Z</time>
      </trkpt>
      <trkpt lat="44.12796" lon="3.24123">
        <ele>629</ele>
        <time>2014-10-24T09:06:26Z</time>
      </trkpt>
      <trkpt lat="44.12786" lon="3.24126">
        <ele>629</ele>
        <time>2014-10-24T09:06:36Z</time>
      </trkpt>
      <trkpt lat="44.12766" lon="3.24138">
        <ele>633</ele>
        <time>2014-10-24T09:06:55Z</time>
      </trkpt>
      <trkpt lat="44.12757" lon="3.24141">
        <ele>635</ele>
        <time>2014-10-24T09:07:08Z</time>
      </trkpt>
      <trkpt lat="44.1275" lon="3.24139">
        <ele>637</ele>
        <time>2014-10-24T09:07:18Z</time>
      </trkpt>
      <trkpt lat="44.12733" lon="3.24134">
        <ele>645</ele>
        <time>2014-10-24T09:07:45Z</time>
      </trkpt>
      <trkpt lat="44.12719" lon="3.24118">
        <ele>648</ele>
        <time>2014-10-24T09:08:02Z</time>
      </trkpt>
      <trkpt lat="44.1271" lon="3.24099">
        <ele>651.9000064</ele>
        <time>2014-10-24T09:08:21Z</time>
      </trkpt>
      <trkpt lat="44.12713" lon="3.24074">
        <ele>656</ele>
        <time>2014-10-24T09:08:37Z</time>
      </trkpt>
      <trkpt lat="44.12714" lon="3.24045">
        <ele>657</ele>
        <time>2014-10-24T09:08:53Z</time>
      </trkpt>
      <trkpt lat="44.12716" lon="3.24021">
        <ele>658</ele>
        <time>2014-10-24T09:09:05Z</time>
      </trkpt>
      <trkpt lat="44.12714" lon="3.23998">
        <ele>661</ele>
        <time>2014-10-24T09:09:22Z</time>
      </trkpt>
      <trkpt lat="44.12707" lon="3.23989">
        <ele>662</ele>
        <time>2014-10-24T09:09:32Z</time>
      </trkpt>
      <trkpt lat="44.12702" lon="3.23984">
        <ele>664</ele>
        <time>2014-10-24T09:09:44Z</time>
      </trkpt>
      <trkpt lat="44.12692" lon="3.23977">
        <ele>669</ele>
        <time>2014-10-24T09:10:00Z</time>
      </trkpt>
      <trkpt lat="44.12677" lon="3.23968">
        <ele>674</ele>
        <time>2014-10-24T09:10:19Z</time>
      </trkpt>
      <trkpt lat="44.12663" lon="3.23962">
        <ele>676</ele>
        <time>2014-10-24T09:10:35Z</time>
      </trkpt>
      <trkpt lat="44.1265" lon="3.23957">
        <ele>681</ele>
        <time>2014-10-24T09:10:54Z</time>
      </trkpt>
      <trkpt lat="44.1264" lon="3.23953">
        <ele>684</ele>
        <time>2014-10-24T09:11:07Z</time>
      </trkpt>
      <trkpt lat="44.12629" lon="3.23954">
        <ele>685</ele>
        <time>2014-10-24T09:11:18Z</time>
      </trkpt>
      <trkpt lat="44.12608" lon="3.23943">
        <ele>688</ele>
        <time>2014-10-24T09:11:35Z</time>
      </trkpt>
      <trkpt lat="44.12588" lon="3.23935">
        <ele>691</ele>
        <time>2014-10-24T09:11:52Z</time>
      </trkpt>
      <trkpt lat="44.12567" lon="3.23927">
        <ele>692</ele>
        <time>2014-10-24T09:12:10Z</time>
      </trkpt>
      <trkpt lat="44.12547" lon="3.2393">
        <ele>693</ele>
        <time>2014-10-24T09:12:20Z</time>
      </trkpt>
      <trkpt lat="44.12525" lon="3.23939">
        <ele>693</ele>
        <time>2014-10-24T09:12:30Z</time>
      </trkpt>
      <trkpt lat="44.12507" lon="3.23935">
        <ele>692</ele>
        <time>2014-10-24T09:12:43Z</time>
      </trkpt>
      <trkpt lat="44.12498" lon="3.23919">
        <ele>693</ele>
        <time>2014-10-24T09:12:57Z</time>
      </trkpt>
      <trkpt lat="44.125" lon="3.23899">
        <ele>697</ele>
        <time>2014-10-24T09:13:08Z</time>
      </trkpt>
      <trkpt lat="44.12505" lon="3.23881">
        <ele>697</ele>
        <time>2014-10-24T09:13:20Z</time>
      </trkpt>
      <trkpt lat="44.12514" lon="3.23866">
        <ele>701</ele>
        <time>2014-10-24T09:13:35Z</time>
      </trkpt>
      <trkpt lat="44.1252" lon="3.23848">
        <ele>703</ele>
        <time>2014-10-24T09:13:49Z</time>
      </trkpt>
      <trkpt lat="44.12521" lon="3.23837">
        <ele>705.9500032</ele>
        <time>2014-10-24T09:14:01Z</time>
      </trkpt>
      <trkpt lat="44.12526" lon="3.23832">
        <ele>706</ele>
        <time>2014-10-24T09:14:19Z</time>
      </trkpt>
      <trkpt lat="44.12534" lon="3.23822">
        <ele>707.9500032</ele>
        <time>2014-10-24T09:14:31Z</time>
      </trkpt>
      <trkpt lat="44.12547" lon="3.23799">
        <ele>709</ele>
        <time>2014-10-24T09:14:49Z</time>
      </trkpt>
      <trkpt lat="44.1255" lon="3.23785">
        <ele>715</ele>
        <time>2014-10-24T09:15:03Z</time>
      </trkpt>
      <trkpt lat="44.12555" lon="3.23772">
        <ele>717</ele>
        <time>2014-10-24T09:15:14Z</time>
      </trkpt>
      <trkpt lat="44.1256" lon="3.2376">
        <ele>718</ele>
        <time>2014-10-24T09:15:28Z</time>
      </trkpt>
      <trkpt lat="44.12567" lon="3.23737">
        <ele>720</ele>
        <time>2014-10-24T09:15:48Z</time>
      </trkpt>
      <trkpt lat="44.12572" lon="3.23726">
        <ele>726</ele>
        <time>2014-10-24T09:16:03Z</time>
      </trkpt>
      <trkpt lat="44.12577" lon="3.23719">
        <ele>728</ele>
        <time>2014-10-24T09:16:13Z</time>
      </trkpt>
      <trkpt lat="44.12581" lon="3.23709">
        <ele>730</ele>
        <time>2014-10-24T09:16:24Z</time>
      </trkpt>
      <trkpt lat="44.12588" lon="3.23687">
        <ele>732</ele>
        <time>2014-10-24T09:16:40Z</time>
      </trkpt>
      <trkpt lat="44.12605" lon="3.23675">
        <ele>739</ele>
        <time>2014-10-24T09:17:02Z</time>
      </trkpt>
      <trkpt lat="44.12614" lon="3.23671">
        <ele>743</ele>
        <time>2014-10-24T09:17:18Z</time>
      </trkpt>
      <trkpt lat="44.1262" lon="3.23683">
        <ele>745</ele>
        <time>2014-10-24T09:17:34Z</time>
      </trkpt>
      <trkpt lat="44.12629" lon="3.23684">
        <ele>753</ele>
        <time>2014-10-24T09:18:02Z</time>
      </trkpt>
      <trkpt lat="44.12639" lon="3.23679">
        <ele>755</ele>
        <time>2014-10-24T09:18:13Z</time>
      </trkpt>
      <trkpt lat="44.12649" lon="3.23673">
        <ele>756</ele>
        <time>2014-10-24T09:18:25Z</time>
      </trkpt>
      <trkpt lat="44.12659" lon="3.23666">
        <ele>758</ele>
        <time>2014-10-24T09:18:36Z</time>
      </trkpt>
      <trkpt lat="44.12678" lon="3.23654">
        <ele>761</ele>
        <time>2014-10-24T09:18:54Z</time>
      </trkpt>
      <trkpt lat="44.127" lon="3.2365">
        <ele>763.9500032</ele>
        <time>2014-10-24T09:19:11Z</time>
      </trkpt>
      <trkpt lat="44.12717" lon="3.23635">
        <ele>764.9500032</ele>
        <time>2014-10-24T09:19:31Z</time>
      </trkpt>
      <trkpt lat="44.12726" lon="3.23628">
        <ele>768</ele>
        <time>2014-10-24T09:19:43Z</time>
      </trkpt>
      <trkpt lat="44.12737" lon="3.23626">
        <ele>771.9500032</ele>
        <time>2014-10-24T09:19:56Z</time>
      </trkpt>
      <trkpt lat="44.12745" lon="3.23616">
        <ele>776.9000064</ele>
        <time>2014-10-24T09:20:21Z</time>
      </trkpt>
      <trkpt lat="44.12754" lon="3.2361">
        <ele>781</ele>
        <time>2014-10-24T09:20:44Z</time>
      </trkpt>
      <trkpt lat="44.12763" lon="3.23602">
        <ele>784</ele>
        <time>2014-10-24T09:21:00Z</time>
      </trkpt>
      <trkpt lat="44.12773" lon="3.23596">
        <ele>788</ele>
        <time>2014-10-24T09:21:16Z</time>
      </trkpt>
      <trkpt lat="44.12782" lon="3.23592">
        <ele>791.9000064</ele>
        <time>2014-10-24T09:21:31Z</time>
      </trkpt>
      <trkpt lat="44.12792" lon="3.23587">
        <ele>794</ele>
        <time>2014-10-24T09:21:45Z</time>
      </trkpt>
      <trkpt lat="44.12807" lon="3.23573">
        <ele>796</ele>
        <time>2014-10-24T09:21:59Z</time>
      </trkpt>
      <trkpt lat="44.12819" lon="3.23559">
        <ele>799</ele>
        <time>2014-10-24T09:22:13Z</time>
      </trkpt>
      <trkpt lat="44.12836" lon="3.23547">
        <ele>800</ele>
        <time>2014-10-24T09:22:28Z</time>
      </trkpt>
      <trkpt lat="44.12851" lon="3.23535">
        <ele>801</ele>
        <time>2014-10-24T09:22:40Z</time>
      </trkpt>
      <trkpt lat="44.12865" lon="3.23522">
        <ele>805</ele>
        <time>2014-10-24T09:22:53Z</time>
      </trkpt>
      <trkpt lat="44.12885" lon="3.23522">
        <ele>805</ele>
        <time>2014-10-24T09:23:07Z</time>
      </trkpt>
      <trkpt lat="44.12902" lon="3.23513">
        <ele>807</ele>
        <time>2014-10-24T09:23:19Z</time>
      </trkpt>
      <trkpt lat="44.12929" lon="3.23497">
        <ele>809</ele>
        <time>2014-10-24T09:23:34Z</time>
      </trkpt>
      <trkpt lat="44.12944" lon="3.23478">
        <ele>810</ele>
        <time>2014-10-24T09:23:47Z</time>
      </trkpt>
      <trkpt lat="44.1296" lon="3.23463">
        <ele>811</ele>
        <time>2014-10-24T09:23:58Z</time>
      </trkpt>
      <trkpt lat="44.12975" lon="3.23447">
        <ele>811</ele>
        <time>2014-10-24T09:24:10Z</time>
      </trkpt>
      <trkpt lat="44.12985" lon="3.23428">
        <ele>813</ele>
        <time>2014-10-24T09:24:22Z</time>
      </trkpt>
      <trkpt lat="44.12996" lon="3.2341">
        <ele>814</ele>
        <time>2014-10-24T09:24:33Z</time>
      </trkpt>
      <trkpt lat="44.13014" lon="3.23401">
        <ele>814</ele>
        <time>2014-10-24T09:24:43Z</time>
      </trkpt>
      <trkpt lat="44.13034" lon="3.23395">
        <ele>815</ele>
        <time>2014-10-24T09:24:54Z</time>
      </trkpt>
      <trkpt lat="44.13054" lon="3.23394">
        <ele>817</ele>
        <time>2014-10-24T09:25:05Z</time>
      </trkpt>
      <trkpt lat="44.13074" lon="3.23388">
        <ele>816</ele>
        <time>2014-10-24T09:25:16Z</time>
      </trkpt>
      <trkpt lat="44.13089" lon="3.23369">
        <ele>817</ele>
        <time>2014-10-24T09:25:28Z</time>
      </trkpt>
      <trkpt lat="44.13099" lon="3.23333">
        <ele>818</ele>
        <time>2014-10-24T09:25:40Z</time>
      </trkpt>
      <trkpt lat="44.13113" lon="3.23306">
        <ele>818</ele>
        <time>2014-10-24T09:25:52Z</time>
      </trkpt>
      <trkpt lat="44.13128" lon="3.2328">
        <ele>818</ele>
        <time>2014-10-24T09:26:08Z</time>
      </trkpt>
      <trkpt lat="44.13136" lon="3.23264">
        <ele>821</ele>
        <time>2014-10-24T09:26:23Z</time>
      </trkpt>
      <trkpt lat="44.13143" lon="3.23242">
        <ele>823</ele>
        <time>2014-10-24T09:26:36Z</time>
      </trkpt>
      <trkpt lat="44.13151" lon="3.23216">
        <ele>823.9500032</ele>
        <time>2014-10-24T09:26:51Z</time>
      </trkpt>
      <trkpt lat="44.13161" lon="3.23202">
        <ele>826</ele>
        <time>2014-10-24T09:27:04Z</time>
      </trkpt>
      <trkpt lat="44.13168" lon="3.23197">
        <ele>829</ele>
        <time>2014-10-24T09:27:32Z</time>
      </trkpt>
      <trkpt lat="44.13179" lon="3.23187">
        <ele>830</ele>
        <time>2014-10-24T09:27:44Z</time>
      </trkpt>
      <trkpt lat="44.13188" lon="3.23175">
        <ele>831</ele>
        <time>2014-10-24T09:27:55Z</time>
      </trkpt>
      <trkpt lat="44.13198" lon="3.23161">
        <ele>832</ele>
        <time>2014-10-24T09:28:07Z</time>
      </trkpt>
      <trkpt lat="44.13203" lon="3.23143">
        <ele>834</ele>
        <time>2014-10-24T09:28:17Z</time>
      </trkpt>
      <trkpt lat="44.13214" lon="3.23108">
        <ele>834</ele>
        <time>2014-10-24T09:28:30Z</time>
      </trkpt>
      <trkpt lat="44.13212" lon="3.23085">
        <ele>835</ele>
        <time>2014-10-24T09:28:40Z</time>
      </trkpt>
      <trkpt lat="44.13204" lon="3.23051">
        <ele>833</ele>
        <time>2014-10-24T09:28:52Z</time>
      </trkpt>
      <trkpt lat="44.13219" lon="3.23023">
        <ele>833</ele>
        <time>2014-10-24T09:29:09Z</time>
      </trkpt>
      <trkpt lat="44.13233" lon="3.23007">
        <ele>835</ele>
        <time>2014-10-24T09:29:19Z</time>
      </trkpt>
      <trkpt lat="44.13252" lon="3.22991">
        <ele>838</ele>
        <time>2014-10-24T09:29:32Z</time>
      </trkpt>
      <trkpt lat="44.13265" lon="3.22979">
        <ele>839</ele>
        <time>2014-10-24T09:29:45Z</time>
      </trkpt>
      <trkpt lat="44.13275" lon="3.22962">
        <ele>840</ele>
        <time>2014-10-24T09:29:58Z</time>
      </trkpt>
      <trkpt lat="44.13283" lon="3.22944">
        <ele>841</ele>
        <time>2014-10-24T09:30:09Z</time>
      </trkpt>
      <trkpt lat="44.13292" lon="3.22912">
        <ele>841</ele>
        <time>2014-10-24T09:30:19Z</time>
      </trkpt>
      <trkpt lat="44.13281" lon="3.2289">
        <ele>841</ele>
        <time>2014-10-24T09:30:30Z</time>
      </trkpt>
      <trkpt lat="44.1328" lon="3.22845">
        <ele>840</ele>
        <time>2014-10-24T09:30:44Z</time>
      </trkpt>
      <trkpt lat="44.13277" lon="3.22814">
        <ele>841</ele>
        <time>2014-10-24T09:30:56Z</time>
      </trkpt>
      <trkpt lat="44.13279" lon="3.22786">
        <ele>840</ele>
        <time>2014-10-24T09:31:09Z</time>
      </trkpt>
      <trkpt lat="44.13266" lon="3.22767">
        <ele>840.0499968</ele>
        <time>2014-10-24T09:31:21Z</time>
      </trkpt>
      <trkpt lat="44.13261" lon="3.22742">
        <ele>836</ele>
        <time>2014-10-24T09:31:35Z</time>
      </trkpt>
      <trkpt lat="44.13274" lon="3.22718">
        <ele>833</ele>
        <time>2014-10-24T09:31:45Z</time>
      </trkpt>
      <trkpt lat="44.13286" lon="3.22694">
        <ele>833</ele>
        <time>2014-10-24T09:31:59Z</time>
      </trkpt>
      <trkpt lat="44.13308" lon="3.22692">
        <ele>836.9000064</ele>
        <time>2014-10-24T09:32:11Z</time>
      </trkpt>
      <trkpt lat="44.13329" lon="3.22691">
        <ele>839</ele>
        <time>2014-10-24T09:32:28Z</time>
      </trkpt>
      <trkpt lat="44.13339" lon="3.2269">
        <ele>841.9500032</ele>
        <time>2014-10-24T09:32:41Z</time>
      </trkpt>
      <trkpt lat="44.13349" lon="3.22691">
        <ele>843.9000064</ele>
        <time>2014-10-24T09:32:51Z</time>
      </trkpt>
      <trkpt lat="44.1336" lon="3.22691">
        <ele>846</ele>
        <time>2014-10-24T09:33:02Z</time>
      </trkpt>
      <trkpt lat="44.1338" lon="3.22699">
        <ele>847</ele>
        <time>2014-10-24T09:33:19Z</time>
      </trkpt>
      <trkpt lat="44.134" lon="3.22692">
        <ele>851</ele>
        <time>2014-10-24T09:33:35Z</time>
      </trkpt>
      <trkpt lat="44.1342" lon="3.22677">
        <ele>851</ele>
        <time>2014-10-24T09:33:49Z</time>
      </trkpt>
      <trkpt lat="44.13439" lon="3.22683">
        <ele>851</ele>
        <time>2014-10-24T09:33:59Z</time>
      </trkpt>
      <trkpt lat="44.1346" lon="3.22687">
        <ele>853</ele>
        <time>2014-10-24T09:34:16Z</time>
      </trkpt>
      <trkpt lat="44.13478" lon="3.22703">
        <ele>853</ele>
        <time>2014-10-24T09:34:27Z</time>
      </trkpt>
      <trkpt lat="44.13481" lon="3.22731">
        <ele>855</ele>
        <time>2014-10-24T09:34:37Z</time>
      </trkpt>
      <trkpt lat="44.13486" lon="3.2276">
        <ele>855</ele>
        <time>2014-10-24T09:34:47Z</time>
      </trkpt>
      <trkpt lat="44.13504" lon="3.22776">
        <ele>851.1499904</ele>
        <time>2014-10-24T09:35:01Z</time>
      </trkpt>
      <trkpt lat="44.13518" lon="3.22784">
        <ele>848</ele>
        <time>2014-10-24T09:35:14Z</time>
      </trkpt>
      <trkpt lat="44.13529" lon="3.22813">
        <ele>843</ele>
        <time>2014-10-24T09:35:27Z</time>
      </trkpt>
      <trkpt lat="44.13541" lon="3.22835">
        <ele>842</ele>
        <time>2014-10-24T09:35:38Z</time>
      </trkpt>
      <trkpt lat="44.13558" lon="3.22851">
        <ele>843</ele>
        <time>2014-10-24T09:35:48Z</time>
      </trkpt>
      <trkpt lat="44.13564" lon="3.22879">
        <ele>845</ele>
        <time>2014-10-24T09:36:00Z</time>
      </trkpt>
      <trkpt lat="44.13565" lon="3.22909">
        <ele>844.0499968</ele>
        <time>2014-10-24T09:36:11Z</time>
      </trkpt>
      <trkpt lat="44.13552" lon="3.22936">
        <ele>842</ele>
        <time>2014-10-24T09:36:22Z</time>
      </trkpt>
      <trkpt lat="44.13542" lon="3.22961">
        <ele>837</ele>
        <time>2014-10-24T09:36:34Z</time>
      </trkpt>
      <trkpt lat="44.13548" lon="3.22992">
        <ele>837</ele>
        <time>2014-10-24T09:36:44Z</time>
      </trkpt>
      <trkpt lat="44.13559" lon="3.23015">
        <ele>837</ele>
        <time>2014-10-24T09:36:56Z</time>
      </trkpt>
      <trkpt lat="44.13579" lon="3.23007">
        <ele>837</ele>
        <time>2014-10-24T09:37:08Z</time>
      </trkpt>
      <trkpt lat="44.13591" lon="3.22982">
        <ele>837</ele>
        <time>2014-10-24T09:37:20Z</time>
      </trkpt>
      <trkpt lat="44.13602" lon="3.22955">
        <ele>832</ele>
        <time>2014-10-24T09:37:32Z</time>
      </trkpt>
      <trkpt lat="44.1362" lon="3.22937">
        <ele>829</ele>
        <time>2014-10-24T09:37:42Z</time>
      </trkpt>
      <trkpt lat="44.13653" lon="3.22934">
        <ele>828</ele>
        <time>2014-10-24T09:37:55Z</time>
      </trkpt>
      <trkpt lat="44.13674" lon="3.22943">
        <ele>827</ele>
        <time>2014-10-24T09:38:08Z</time>
      </trkpt>
      <trkpt lat="44.13691" lon="3.22964">
        <ele>829</ele>
        <time>2014-10-24T09:38:18Z</time>
      </trkpt>
      <trkpt lat="44.13708" lon="3.22981">
        <ele>829</ele>
        <time>2014-10-24T09:38:28Z</time>
      </trkpt>
      <trkpt lat="44.13716" lon="3.22991">
        <ele>830</ele>
        <time>2014-10-24T09:38:52Z</time>
      </trkpt>
      <trkpt lat="44.13733" lon="3.23008">
        <ele>828</ele>
        <time>2014-10-24T09:39:05Z</time>
      </trkpt>
      <trkpt lat="44.13754" lon="3.23011">
        <ele>830.9000064</ele>
        <time>2014-10-24T09:39:21Z</time>
      </trkpt>
      <trkpt lat="44.13775" lon="3.23015">
        <ele>833</ele>
        <time>2014-10-24T09:39:37Z</time>
      </trkpt>
      <trkpt lat="44.13792" lon="3.23005">
        <ele>835.9000064</ele>
        <time>2014-10-24T09:39:51Z</time>
      </trkpt>
      <trkpt lat="44.13811" lon="3.23007">
        <ele>837</ele>
        <time>2014-10-24T09:40:05Z</time>
      </trkpt>
      <trkpt lat="44.1382" lon="3.22998">
        <ele>838</ele>
        <time>2014-10-24T09:40:15Z</time>
      </trkpt>
      <trkpt lat="44.13833" lon="3.22973">
        <ele>838</ele>
        <time>2014-10-24T09:40:28Z</time>
      </trkpt>
      <trkpt lat="44.13835" lon="3.22959">
        <ele>839</ele>
        <time>2014-10-24T09:40:38Z</time>
      </trkpt>
      <trkpt lat="44.13834" lon="3.22945">
        <ele>841</ele>
        <time>2014-10-24T09:40:48Z</time>
      </trkpt>
      <trkpt lat="44.13824" lon="3.22944">
        <ele>845</ele>
        <time>2014-10-24T09:41:08Z</time>
      </trkpt>
      <trkpt lat="44.13814" lon="3.22942">
        <ele>848</ele>
        <time>2014-10-24T09:41:22Z</time>
      </trkpt>
      <trkpt lat="44.13792" lon="3.22942">
        <ele>849</ele>
        <time>2014-10-24T09:41:37Z</time>
      </trkpt>
      <trkpt lat="44.13773" lon="3.22931">
        <ele>843</ele>
        <time>2014-10-24T09:41:50Z</time>
      </trkpt>
      <trkpt lat="44.13776" lon="3.22901">
        <ele>835</ele>
        <time>2014-10-24T09:42:02Z</time>
      </trkpt>
      <trkpt lat="44.13771" lon="3.22889">
        <ele>832</ele>
        <time>2014-10-24T09:42:13Z</time>
      </trkpt>
      <trkpt lat="44.13746" lon="3.22874">
        <ele>828.0599936</ele>
        <time>2014-10-24T09:42:26Z</time>
      </trkpt>
      <trkpt lat="44.13743" lon="3.2285">
        <ele>828</ele>
        <time>2014-10-24T09:42:43Z</time>
      </trkpt>
      <trkpt lat="44.13735" lon="3.22842">
        <ele>825</ele>
        <time>2014-10-24T09:42:55Z</time>
      </trkpt>
      <trkpt lat="44.13712" lon="3.22831">
        <ele>816</ele>
        <time>2014-10-24T09:43:08Z</time>
      </trkpt>
      <trkpt lat="44.137" lon="3.22807">
        <ele>813</ele>
        <time>2014-10-24T09:43:18Z</time>
      </trkpt>
      <trkpt lat="44.13702" lon="3.22779">
        <ele>809</ele>
        <time>2014-10-24T09:43:28Z</time>
      </trkpt>
      <trkpt lat="44.13723" lon="3.22764">
        <ele>804</ele>
        <time>2014-10-24T09:43:40Z</time>
      </trkpt>
      <trkpt lat="44.13741" lon="3.22745">
        <ele>800</ele>
        <time>2014-10-24T09:43:50Z</time>
      </trkpt>
      <trkpt lat="44.1375" lon="3.22718">
        <ele>790</ele>
        <time>2014-10-24T09:44:03Z</time>
      </trkpt>
      <trkpt lat="44.13765" lon="3.22696">
        <ele>787</ele>
        <time>2014-10-24T09:44:13Z</time>
      </trkpt>
      <trkpt lat="44.13776" lon="3.2267">
        <ele>784</ele>
        <time>2014-10-24T09:44:24Z</time>
      </trkpt>
      <trkpt lat="44.13791" lon="3.2265">
        <ele>782</ele>
        <time>2014-10-24T09:44:34Z</time>
      </trkpt>
      <trkpt lat="44.1381" lon="3.22637">
        <ele>783</ele>
        <time>2014-10-24T09:44:47Z</time>
      </trkpt>
      <trkpt lat="44.13829" lon="3.22621">
        <ele>783.0499968</ele>
        <time>2014-10-24T09:45:01Z</time>
      </trkpt>
      <trkpt lat="44.13847" lon="3.22609">
        <ele>785</ele>
        <time>2014-10-24T09:45:15Z</time>
      </trkpt>
      <trkpt lat="44.13863" lon="3.22588">
        <ele>785</ele>
        <time>2014-10-24T09:45:30Z</time>
      </trkpt>
      <trkpt lat="44.13876" lon="3.22565">
        <ele>784</ele>
        <time>2014-10-24T09:45:40Z</time>
      </trkpt>
      <trkpt lat="44.13888" lon="3.2254">
        <ele>778</ele>
        <time>2014-10-24T09:45:50Z</time>
      </trkpt>
      <trkpt lat="44.13902" lon="3.22518">
        <ele>772</ele>
        <time>2014-10-24T09:46:03Z</time>
      </trkpt>
      <trkpt lat="44.1388" lon="3.22528">
        <ele>771</ele>
        <time>2014-10-24T09:46:16Z</time>
      </trkpt>
      <trkpt lat="44.1386" lon="3.22539">
        <ele>769</ele>
        <time>2014-10-24T09:46:26Z</time>
      </trkpt>
      <trkpt lat="44.13832" lon="3.22552">
        <ele>762</ele>
        <time>2014-10-24T09:46:39Z</time>
      </trkpt>
      <trkpt lat="44.13801" lon="3.2257">
        <ele>758</ele>
        <time>2014-10-24T09:46:53Z</time>
      </trkpt>
      <trkpt lat="44.1379" lon="3.22559">
        <ele>754</ele>
        <time>2014-10-24T09:47:08Z</time>
      </trkpt>
      <trkpt lat="44.13815" lon="3.22528">
        <ele>748</ele>
        <time>2014-10-24T09:47:22Z</time>
      </trkpt>
      <trkpt lat="44.13831" lon="3.22505">
        <ele>745</ele>
        <time>2014-10-24T09:47:32Z</time>
      </trkpt>
      <trkpt lat="44.13846" lon="3.22483">
        <ele>741</ele>
        <time>2014-10-24T09:47:44Z</time>
      </trkpt>
      <trkpt lat="44.13858" lon="3.22457">
        <ele>737</ele>
        <time>2014-10-24T09:47:55Z</time>
      </trkpt>
      <trkpt lat="44.1387" lon="3.22432">
        <ele>732</ele>
        <time>2014-10-24T09:48:05Z</time>
      </trkpt>
      <trkpt lat="44.13863" lon="3.22418">
        <ele>728</ele>
        <time>2014-10-24T09:48:20Z</time>
      </trkpt>
      <trkpt lat="44.13844" lon="3.22437">
        <ele>727</ele>
        <time>2014-10-24T09:48:30Z</time>
      </trkpt>
      <trkpt lat="44.13832" lon="3.22422">
        <ele>726</ele>
        <time>2014-10-24T09:48:40Z</time>
      </trkpt>
      <trkpt lat="44.13849" lon="3.22385">
        <ele>715.0499968</ele>
        <time>2014-10-24T09:48:56Z</time>
      </trkpt>
      <trkpt lat="44.13863" lon="3.22364">
        <ele>709</ele>
        <time>2014-10-24T09:49:08Z</time>
      </trkpt>
      <trkpt lat="44.13876" lon="3.22342">
        <ele>707</ele>
        <time>2014-10-24T09:49:18Z</time>
      </trkpt>
      <trkpt lat="44.13893" lon="3.22326">
        <ele>702</ele>
        <time>2014-10-24T09:49:30Z</time>
      </trkpt>
      <trkpt lat="44.1391" lon="3.22308">
        <ele>696.1499904</ele>
        <time>2014-10-24T09:49:41Z</time>
      </trkpt>
      <trkpt lat="44.13924" lon="3.22285">
        <ele>691</ele>
        <time>2014-10-24T09:49:53Z</time>
      </trkpt>
      <trkpt lat="44.13937" lon="3.2226">
        <ele>685</ele>
        <time>2014-10-24T09:50:06Z</time>
      </trkpt>
      <trkpt lat="44.1394" lon="3.22237">
        <ele>681</ele>
        <time>2014-10-24T09:50:20Z</time>
      </trkpt>
      <trkpt lat="44.13932" lon="3.22209">
        <ele>679.0499968</ele>
        <time>2014-10-24T09:50:31Z</time>
      </trkpt>
      <trkpt lat="44.13922" lon="3.22166">
        <ele>677</ele>
        <time>2014-10-24T09:50:45Z</time>
      </trkpt>
      <trkpt lat="44.13915" lon="3.22135">
        <ele>671</ele>
        <time>2014-10-24T09:50:57Z</time>
      </trkpt>
      <trkpt lat="44.13901" lon="3.22094">
        <ele>664</ele>
        <time>2014-10-24T09:51:14Z</time>
      </trkpt>
      <trkpt lat="44.13889" lon="3.22054">
        <ele>659</ele>
        <time>2014-10-24T09:51:28Z</time>
      </trkpt>
      <trkpt lat="44.13881" lon="3.22024">
        <ele>651.0499968</ele>
        <time>2014-10-24T09:51:41Z</time>
      </trkpt>
      <trkpt lat="44.13868" lon="3.22">
        <ele>647</ele>
        <time>2014-10-24T09:51:52Z</time>
      </trkpt>
      <trkpt lat="44.1384" lon="3.21975">
        <ele>643.0499968</ele>
        <time>2014-10-24T09:52:06Z</time>
      </trkpt>
      <trkpt lat="44.13821" lon="3.2196">
        <ele>637.1499904</ele>
        <time>2014-10-24T09:52:16Z</time>
      </trkpt>
      <trkpt lat="44.13801" lon="3.21953">
        <ele>633.12</ele>
        <time>2014-10-24T09:52:26Z</time>
      </trkpt>
      <trkpt lat="44.13781" lon="3.21958">
        <ele>628</ele>
        <time>2014-10-24T09:52:37Z</time>
      </trkpt>
      <trkpt lat="44.13761" lon="3.21963">
        <ele>619.0499968</ele>
        <time>2014-10-24T09:52:50Z</time>
      </trkpt>
      <trkpt lat="44.13752" lon="3.21941">
        <ele>610.0499968</ele>
        <time>2014-10-24T09:53:08Z</time>
      </trkpt>
      <trkpt lat="44.13759" lon="3.21915">
        <ele>607</ele>
        <time>2014-10-24T09:53:19Z</time>
      </trkpt>
      <trkpt lat="44.13749" lon="3.21912">
        <ele>603.1999872</ele>
        <time>2014-10-24T09:53:31Z</time>
      </trkpt>
      <trkpt lat="44.13744" lon="3.2189">
        <ele>595.0499968</ele>
        <time>2014-10-24T09:53:43Z</time>
      </trkpt>
      <trkpt lat="44.13755" lon="3.21866">
        <ele>592</ele>
        <time>2014-10-24T09:53:53Z</time>
      </trkpt>
      <trkpt lat="44.13769" lon="3.21842">
        <ele>588</ele>
        <time>2014-10-24T09:54:05Z</time>
      </trkpt>
      <trkpt lat="44.13772" lon="3.21828">
        <ele>582</ele>
        <time>2014-10-24T09:54:25Z</time>
      </trkpt>
      <trkpt lat="44.13753" lon="3.21844">
        <ele>580</ele>
        <time>2014-10-24T09:54:35Z</time>
      </trkpt>
      <trkpt lat="44.13722" lon="3.21857">
        <ele>574</ele>
        <time>2014-10-24T09:54:48Z</time>
      </trkpt>
      <trkpt lat="44.137" lon="3.21854">
        <ele>569</ele>
        <time>2014-10-24T09:54:59Z</time>
      </trkpt>
      <trkpt lat="44.13681" lon="3.21844">
        <ele>567</ele>
        <time>2014-10-24T09:55:10Z</time>
      </trkpt>
      <trkpt lat="44.13659" lon="3.21846">
        <ele>562</ele>
        <time>2014-10-24T09:55:22Z</time>
      </trkpt>
      <trkpt lat="44.13637" lon="3.21842">
        <ele>560</ele>
        <time>2014-10-24T09:55:32Z</time>
      </trkpt>
      <trkpt lat="44.13604" lon="3.21842">
        <ele>557</ele>
        <time>2014-10-24T09:55:44Z</time>
      </trkpt>
      <trkpt lat="44.13574" lon="3.21845">
        <ele>554</ele>
        <time>2014-10-24T09:55:55Z</time>
      </trkpt>
      <trkpt lat="44.13541" lon="3.21836">
        <ele>552</ele>
        <time>2014-10-24T09:56:08Z</time>
      </trkpt>
      <trkpt lat="44.13542" lon="3.21804">
        <ele>548</ele>
        <time>2014-10-24T09:56:24Z</time>
      </trkpt>
      <trkpt lat="44.13507" lon="3.2181">
        <ele>543</ele>
        <time>2014-10-24T09:56:37Z</time>
      </trkpt>
      <trkpt lat="44.13485" lon="3.21807">
        <ele>538</ele>
        <time>2014-10-24T09:56:48Z</time>
      </trkpt>
      <trkpt lat="44.13455" lon="3.21818">
        <ele>533.0499968</ele>
        <time>2014-10-24T09:57:00Z</time>
      </trkpt>
      <trkpt lat="44.13439" lon="3.21816">
        <ele>527</ele>
        <time>2014-10-24T09:57:17Z</time>
      </trkpt>
      <trkpt lat="44.1342" lon="3.21829">
        <ele>525.0499968</ele>
        <time>2014-10-24T09:57:31Z</time>
      </trkpt>
      <trkpt lat="44.13393" lon="3.21842">
        <ele>524</ele>
        <time>2014-10-24T09:57:47Z</time>
      </trkpt>
      <trkpt lat="44.13377" lon="3.21847">
        <ele>517</ele>
        <time>2014-10-24T09:57:59Z</time>
      </trkpt>
      <trkpt lat="44.13359" lon="3.21862">
        <ele>511</ele>
        <time>2014-10-24T09:58:14Z</time>
      </trkpt>
      <trkpt lat="44.13344" lon="3.21876">
        <ele>505</ele>
        <time>2014-10-24T09:58:31Z</time>
      </trkpt>
      <trkpt lat="44.13336" lon="3.21899">
        <ele>503</ele>
        <time>2014-10-24T09:58:44Z</time>
      </trkpt>
      <trkpt lat="44.13321" lon="3.21922">
        <ele>501</ele>
        <time>2014-10-24T09:59:00Z</time>
      </trkpt>
      <trkpt lat="44.13311" lon="3.21928">
        <ele>499</ele>
        <time>2014-10-24T09:59:10Z</time>
      </trkpt>
      <trkpt lat="44.13291" lon="3.21937">
        <ele>501</ele>
        <time>2014-10-24T09:59:20Z</time>
      </trkpt>
      <trkpt lat="44.13272" lon="3.21939">
        <ele>496</ele>
        <time>2014-10-24T09:59:33Z</time>
      </trkpt>
      <trkpt lat="44.13252" lon="3.21935">
        <ele>494</ele>
        <time>2014-10-24T09:59:50Z</time>
      </trkpt>
      <trkpt lat="44.1323" lon="3.21939">
        <ele>491</ele>
        <time>2014-10-24T10:00:02Z</time>
      </trkpt>
      <trkpt lat="44.13208" lon="3.21933">
        <ele>490</ele>
        <time>2014-10-24T10:00:14Z</time>
      </trkpt>
      <trkpt lat="44.1319" lon="3.21941">
        <ele>487</ele>
        <time>2014-10-24T10:00:29Z</time>
      </trkpt>
      <trkpt lat="44.13183" lon="3.2195">
        <ele>487</ele>
        <time>2014-10-24T10:00:39Z</time>
      </trkpt>
      <trkpt lat="44.13165" lon="3.21967">
        <ele>486</ele>
        <time>2014-10-24T10:00:50Z</time>
      </trkpt>
      <trkpt lat="44.13157" lon="3.21988">
        <ele>485</ele>
        <time>2014-10-24T10:01:00Z</time>
      </trkpt>
      <trkpt lat="44.13139" lon="3.22002">
        <ele>481</ele>
        <time>2014-10-24T10:01:12Z</time>
      </trkpt>
      <trkpt lat="44.13113" lon="3.22014">
        <ele>480</ele>
        <time>2014-10-24T10:01:26Z</time>
      </trkpt>
      <trkpt lat="44.13093" lon="3.22029">
        <ele>479</ele>
        <time>2014-10-24T10:01:37Z</time>
      </trkpt>
      <trkpt lat="44.1308" lon="3.22038">
        <ele>474</ele>
        <time>2014-10-24T10:01:48Z</time>
      </trkpt>
      <trkpt lat="44.13061" lon="3.22045">
        <ele>472</ele>
        <time>2014-10-24T10:02:01Z</time>
      </trkpt>
      <trkpt lat="44.13042" lon="3.2206">
        <ele>472</ele>
        <time>2014-10-24T10:02:12Z</time>
      </trkpt>
      <trkpt lat="44.13024" lon="3.22077">
        <ele>471</ele>
        <time>2014-10-24T10:02:25Z</time>
      </trkpt>
      <trkpt lat="44.13008" lon="3.22092">
        <ele>469</ele>
        <time>2014-10-24T10:02:38Z</time>
      </trkpt>
      <trkpt lat="44.13006" lon="3.22115">
        <ele>468</ele>
        <time>2014-10-24T10:02:51Z</time>
      </trkpt>
      <trkpt lat="44.13002" lon="3.22144">
        <ele>465</ele>
        <time>2014-10-24T10:03:02Z</time>
      </trkpt>
      <trkpt lat="44.12986" lon="3.22158">
        <ele>464</ele>
        <time>2014-10-24T10:03:20Z</time>
      </trkpt>
      <trkpt lat="44.1297" lon="3.2215">
        <ele>464</ele>
        <time>2014-10-24T10:03:33Z</time>
      </trkpt>
      <trkpt lat="44.12959" lon="3.22157">
        <ele>463</ele>
        <time>2014-10-24T10:03:48Z</time>
      </trkpt>
      <trkpt lat="44.12943" lon="3.22169">
        <ele>457</ele>
        <time>2014-10-24T10:04:00Z</time>
      </trkpt>
      <trkpt lat="44.12924" lon="3.22157">
        <ele>455</ele>
        <time>2014-10-24T10:04:13Z</time>
      </trkpt>
      <trkpt lat="44.12906" lon="3.22149">
        <ele>453</ele>
        <time>2014-10-24T10:04:27Z</time>
      </trkpt>
      <trkpt lat="44.12887" lon="3.22142">
        <ele>450</ele>
        <time>2014-10-24T10:04:42Z</time>
      </trkpt>
      <trkpt lat="44.12868" lon="3.22144">
        <ele>448</ele>
        <time>2014-10-24T10:04:58Z</time>
      </trkpt>
      <trkpt lat="44.12851" lon="3.22127">
        <ele>444.0499968</ele>
        <time>2014-10-24T10:05:11Z</time>
      </trkpt>
      <trkpt lat="44.12838" lon="3.22105">
        <ele>443</ele>
        <time>2014-10-24T10:05:25Z</time>
      </trkpt>
      <trkpt lat="44.12826" lon="3.22088">
        <ele>442</ele>
        <time>2014-10-24T10:05:35Z</time>
      </trkpt>
      <trkpt lat="44.12802" lon="3.22095">
        <ele>438.1499904</ele>
        <time>2014-10-24T10:05:51Z</time>
      </trkpt>
      <trkpt lat="44.12783" lon="3.22108">
        <ele>437</ele>
        <time>2014-10-24T10:06:03Z</time>
      </trkpt>
      <trkpt lat="44.12766" lon="3.22125">
        <ele>435</ele>
        <time>2014-10-24T10:06:13Z</time>
      </trkpt>
      <trkpt lat="44.1275" lon="3.22145">
        <ele>431</ele>
        <time>2014-10-24T10:06:23Z</time>
      </trkpt>
      <trkpt lat="44.12731" lon="3.22157">
        <ele>431</ele>
        <time>2014-10-24T10:06:33Z</time>
      </trkpt>
      <trkpt lat="44.12712" lon="3.22167">
        <ele>430</ele>
        <time>2014-10-24T10:06:43Z</time>
      </trkpt>
      <trkpt lat="44.12695" lon="3.22189">
        <ele>428</ele>
        <time>2014-10-24T10:06:53Z</time>
      </trkpt>
      <trkpt lat="44.1269" lon="3.22218">
        <ele>425</ele>
        <time>2014-10-24T10:07:03Z</time>
      </trkpt>
      <trkpt lat="44.12683" lon="3.22246">
        <ele>422</ele>
        <time>2014-10-24T10:07:13Z</time>
      </trkpt>
      <trkpt lat="44.12667" lon="3.22267">
        <ele>420</ele>
        <time>2014-10-24T10:07:23Z</time>
      </trkpt>
      <trkpt lat="44.12644" lon="3.22262">
        <ele>419</ele>
        <time>2014-10-24T10:07:33Z</time>
      </trkpt>
      <trkpt lat="44.12622" lon="3.22267">
        <ele>419</ele>
        <time>2014-10-24T10:07:45Z</time>
      </trkpt>
      <trkpt lat="44.12629" lon="3.2228">
        <ele>419</ele>
        <time>2014-10-24T10:07:58Z</time>
      </trkpt>
      <trkpt lat="44.12624" lon="3.22303">
        <ele>422</ele>
        <time>2014-10-24T10:08:12Z</time>
      </trkpt>
      <trkpt lat="44.12604" lon="3.22315">
        <ele>423</ele>
        <time>2014-10-24T10:08:26Z</time>
      </trkpt>
      <trkpt lat="44.1259" lon="3.22328">
        <ele>424</ele>
        <time>2014-10-24T10:08:37Z</time>
      </trkpt>
      <trkpt lat="44.12575" lon="3.2234">
        <ele>425</ele>
        <time>2014-10-24T10:08:49Z</time>
      </trkpt>
      <trkpt lat="44.12553" lon="3.22342">
        <ele>428</ele>
        <time>2014-10-24T10:09:03Z</time>
      </trkpt>
      <trkpt lat="44.12542" lon="3.22365">
        <ele>429</ele>
        <time>2014-10-24T10:09:19Z</time>
      </trkpt>
      <trkpt lat="44.12526" lon="3.22345">
        <ele>426.1499904</ele>
        <time>2014-10-24T10:09:31Z</time>
      </trkpt>
      <trkpt lat="44.12501" lon="3.22322">
        <ele>420</ele>
        <time>2014-10-24T10:09:43Z</time>
      </trkpt>
      <trkpt lat="44.12474" lon="3.22301">
        <ele>415</ele>
        <time>2014-10-24T10:09:58Z</time>
      </trkpt>
      <trkpt lat="44.12459" lon="3.22281">
        <ele>408</ele>
        <time>2014-10-24T10:10:10Z</time>
      </trkpt>
      <trkpt lat="44.12439" lon="3.22271">
        <ele>405.0999936</ele>
        <time>2014-10-24T10:10:21Z</time>
      </trkpt>
      <trkpt lat="44.12444" lon="3.22242">
        <ele>405</ele>
        <time>2014-10-24T10:10:31Z</time>
      </trkpt>
      <trkpt lat="44.12447" lon="3.22215">
        <ele>405</ele>
        <time>2014-10-24T10:10:42Z</time>
      </trkpt>
      <trkpt lat="44.12422" lon="3.22232">
        <ele>404</ele>
        <time>2014-10-24T10:10:53Z</time>
      </trkpt>
      <trkpt lat="44.12418" lon="3.22276">
        <ele>402</ele>
        <time>2014-10-24T10:11:06Z</time>
      </trkpt>
      <trkpt lat="44.12402" lon="3.22295">
        <ele>401</ele>
        <time>2014-10-24T10:11:16Z</time>
      </trkpt>
      <trkpt lat="44.12371" lon="3.22282">
        <ele>401</ele>
        <time>2014-10-24T10:11:29Z</time>
      </trkpt>
      <trkpt lat="44.12352" lon="3.22256">
        <ele>401</ele>
        <time>2014-10-24T10:11:40Z</time>
      </trkpt>
      <trkpt lat="44.12343" lon="3.22243">
        <ele>400</ele>
        <time>2014-10-24T10:13:59Z</time>
      </trkpt>
      <trkpt lat="44.12338" lon="3.2223">
        <ele>401</ele>
        <time>2014-10-24T10:15:29Z</time>
      </trkpt>
      <trkpt lat="44.12335" lon="3.22216">
        <ele>402</ele>
        <time>2014-10-24T10:16:46Z</time>
      </trkpt>
      <trkpt lat="44.1233" lon="3.22202">
        <ele>402</ele>
        <time>2014-10-24T10:16:56Z</time>
      </trkpt>
      <trkpt lat="44.12323" lon="3.22175">
        <ele>402</ele>
        <time>2014-10-24T10:17:11Z</time>
      </trkpt>
      <trkpt lat="44.12303" lon="3.22174">
        <ele>403</ele>
        <time>2014-10-24T10:17:25Z</time>
      </trkpt>
      <trkpt lat="44.1228" lon="3.22173">
        <ele>403</ele>
        <time>2014-10-24T10:17:35Z</time>
      </trkpt>
      <trkpt lat="44.12257" lon="3.22173">
        <ele>403</ele>
        <time>2014-10-24T10:17:45Z</time>
      </trkpt>
      <trkpt lat="44.12242" lon="3.2215">
        <ele>403</ele>
        <time>2014-10-24T10:17:55Z</time>
      </trkpt>
      <trkpt lat="44.12233" lon="3.22125">
        <ele>404</ele>
        <time>2014-10-24T10:18:17Z</time>
      </trkpt>
      <trkpt lat="44.12236" lon="3.22139">
        <ele>410</ele>
        <time>2014-10-24T10:18:43Z</time>
      </trkpt>
      <trkpt lat="44.12235" lon="3.22153">
        <ele>414</ele>
        <time>2014-10-24T10:19:08Z</time>
      </trkpt>
      <trkpt lat="44.12241" lon="3.22187">
        <ele>418</ele>
        <time>2014-10-24T10:19:23Z</time>
      </trkpt>
      <trkpt lat="44.12244" lon="3.22201">
        <ele>419</ele>
        <time>2014-10-24T10:19:34Z</time>
      </trkpt>
      <trkpt lat="44.12245" lon="3.22215">
        <ele>424</ele>
        <time>2014-10-24T10:20:13Z</time>
      </trkpt>
      <trkpt lat="44.12249" lon="3.22245">
        <ele>427</ele>
        <time>2014-10-24T10:20:28Z</time>
      </trkpt>
      <trkpt lat="44.12248" lon="3.22259">
        <ele>430.8500096</ele>
        <time>2014-10-24T10:20:41Z</time>
      </trkpt>
      <trkpt lat="44.12249" lon="3.22272">
        <ele>432</ele>
        <time>2014-10-24T10:20:52Z</time>
      </trkpt>
      <trkpt lat="44.12247" lon="3.22287">
        <ele>435</ele>
        <time>2014-10-24T10:21:05Z</time>
      </trkpt>
      <trkpt lat="44.12247" lon="3.22301">
        <ele>439</ele>
        <time>2014-10-24T10:21:22Z</time>
      </trkpt>
      <trkpt lat="44.12239" lon="3.2231">
        <ele>445</ele>
        <time>2014-10-24T10:21:55Z</time>
      </trkpt>
      <trkpt lat="44.12231" lon="3.22319">
        <ele>456.9500032</ele>
        <time>2014-10-24T10:22:41Z</time>
      </trkpt>
      <trkpt lat="44.12232" lon="3.22333">
        <ele>465</ele>
        <time>2014-10-24T10:23:26Z</time>
      </trkpt>
      <trkpt lat="44.12237" lon="3.22344">
        <ele>468</ele>
        <time>2014-10-24T10:23:38Z</time>
      </trkpt>
      <trkpt lat="44.12228" lon="3.2235">
        <ele>475</ele>
        <time>2014-10-24T10:24:15Z</time>
      </trkpt>
      <trkpt lat="44.12218" lon="3.22354">
        <ele>479</ele>
        <time>2014-10-24T10:24:36Z</time>
      </trkpt>
      <trkpt lat="44.12222" lon="3.22364">
        <ele>487</ele>
        <time>2014-10-24T10:25:16Z</time>
      </trkpt>
      <trkpt lat="44.12226" lon="3.22367">
        <ele>488</ele>
        <time>2014-10-24T10:25:27Z</time>
      </trkpt>
      <trkpt lat="44.12233" lon="3.22376">
        <ele>493</ele>
        <time>2014-10-24T10:25:38Z</time>
      </trkpt>
      <trkpt lat="44.12237" lon="3.22388">
        <ele>496</ele>
        <time>2014-10-24T10:25:52Z</time>
      </trkpt>
      <trkpt lat="44.12239" lon="3.22406">
        <ele>498.9500032</ele>
        <time>2014-10-24T10:26:11Z</time>
      </trkpt>
      <trkpt lat="44.12238" lon="3.22421">
        <ele>504.9500032</ele>
        <time>2014-10-24T10:26:36Z</time>
      </trkpt>
      <trkpt lat="44.12244" lon="3.22433">
        <ele>508</ele>
        <time>2014-10-24T10:26:55Z</time>
      </trkpt>
      <trkpt lat="44.1225" lon="3.22444">
        <ele>511</ele>
        <time>2014-10-24T10:27:14Z</time>
      </trkpt>
      <trkpt lat="44.1226" lon="3.2245">
        <ele>515</ele>
        <time>2014-10-24T10:27:30Z</time>
      </trkpt>
      <trkpt lat="44.12265" lon="3.22462">
        <ele>517</ele>
        <time>2014-10-24T10:27:43Z</time>
      </trkpt>
      <trkpt lat="44.12264" lon="3.22477">
        <ele>520</ele>
        <time>2014-10-24T10:27:55Z</time>
      </trkpt>
      <trkpt lat="44.12264" lon="3.22492">
        <ele>521</ele>
        <time>2014-10-24T10:28:07Z</time>
      </trkpt>
      <trkpt lat="44.12262" lon="3.22506">
        <ele>523</ele>
        <time>2014-10-24T10:28:20Z</time>
      </trkpt>
      <trkpt lat="44.12258" lon="3.22533">
        <ele>525</ele>
        <time>2014-10-24T10:28:35Z</time>
      </trkpt>
      <trkpt lat="44.12246" lon="3.2255">
        <ele>527</ele>
        <time>2014-10-24T10:28:52Z</time>
      </trkpt>
      <trkpt lat="44.1224" lon="3.22546">
        <ele>529</ele>
        <time>2014-10-24T10:29:07Z</time>
      </trkpt>
      <trkpt lat="44.12233" lon="3.22541">
        <ele>535</ele>
        <time>2014-10-24T10:29:24Z</time>
      </trkpt>
      <trkpt lat="44.12229" lon="3.22534">
        <ele>537</ele>
        <time>2014-10-24T10:29:39Z</time>
      </trkpt>
      <trkpt lat="44.12221" lon="3.22528">
        <ele>541</ele>
        <time>2014-10-24T10:29:52Z</time>
      </trkpt>
      <trkpt lat="44.12214" lon="3.22524">
        <ele>542</ele>
        <time>2014-10-24T10:30:07Z</time>
      </trkpt>
      <trkpt lat="44.12206" lon="3.22521">
        <ele>547</ele>
        <time>2014-10-24T10:30:27Z</time>
      </trkpt>
      <trkpt lat="44.12197" lon="3.22519">
        <ele>553</ele>
        <time>2014-10-24T10:30:52Z</time>
      </trkpt>
      <trkpt lat="44.1219" lon="3.22526">
        <ele>555</ele>
        <time>2014-10-24T10:31:03Z</time>
      </trkpt>
      <trkpt lat="44.12182" lon="3.22531">
        <ele>556</ele>
        <time>2014-10-24T10:31:13Z</time>
      </trkpt>
      <trkpt lat="44.12165" lon="3.2254">
        <ele>559</ele>
        <time>2014-10-24T10:31:28Z</time>
      </trkpt>
      <trkpt lat="44.12156" lon="3.22544">
        <ele>560</ele>
        <time>2014-10-24T10:31:39Z</time>
      </trkpt>
      <trkpt lat="44.1214" lon="3.22554">
        <ele>564</ele>
        <time>2014-10-24T10:31:53Z</time>
      </trkpt>
      <trkpt lat="44.12133" lon="3.22559">
        <ele>565</ele>
        <time>2014-10-24T10:32:05Z</time>
      </trkpt>
      <trkpt lat="44.12125" lon="3.22563">
        <ele>569.8500096</ele>
        <time>2014-10-24T10:32:21Z</time>
      </trkpt>
      <trkpt lat="44.1212" lon="3.2257">
        <ele>571</ele>
        <time>2014-10-24T10:32:49Z</time>
      </trkpt>
      <trkpt lat="44.12115" lon="3.2258">
        <ele>571</ele>
        <time>2014-10-24T10:32:59Z</time>
      </trkpt>
      <trkpt lat="44.12106" lon="3.22605">
        <ele>573</ele>
        <time>2014-10-24T10:33:27Z</time>
      </trkpt>
      <trkpt lat="44.12095" lon="3.22632">
        <ele>573</ele>
        <time>2014-10-24T10:33:37Z</time>
      </trkpt>
      <trkpt lat="44.12087" lon="3.2266">
        <ele>572</ele>
        <time>2014-10-24T10:33:47Z</time>
      </trkpt>
      <trkpt lat="44.12082" lon="3.22703">
        <ele>569.1499904</ele>
        <time>2014-10-24T10:34:01Z</time>
      </trkpt>
      <trkpt lat="44.12067" lon="3.2272">
        <ele>570</ele>
        <time>2014-10-24T10:34:12Z</time>
      </trkpt>
      <trkpt lat="44.1205" lon="3.22709">
        <ele>572</ele>
        <time>2014-10-24T10:34:30Z</time>
      </trkpt>
      <trkpt lat="44.12037" lon="3.22699">
        <ele>576</ele>
        <time>2014-10-24T10:34:44Z</time>
      </trkpt>
      <trkpt lat="44.12031" lon="3.22695">
        <ele>580</ele>
        <time>2014-10-24T10:34:54Z</time>
      </trkpt>
      <trkpt lat="44.12016" lon="3.22693">
        <ele>581</ele>
        <time>2014-10-24T10:35:10Z</time>
      </trkpt>
      <trkpt lat="44.12002" lon="3.22694">
        <ele>584</ele>
        <time>2014-10-24T10:35:24Z</time>
      </trkpt>
      <trkpt lat="44.11995" lon="3.22694">
        <ele>586</ele>
        <time>2014-10-24T10:35:34Z</time>
      </trkpt>
      <trkpt lat="44.11987" lon="3.22693">
        <ele>589.9500032</ele>
        <time>2014-10-24T10:35:46Z</time>
      </trkpt>
      <trkpt lat="44.11971" lon="3.22696">
        <ele>593</ele>
        <time>2014-10-24T10:36:04Z</time>
      </trkpt>
      <trkpt lat="44.11962" lon="3.22696">
        <ele>594</ele>
        <time>2014-10-24T10:36:14Z</time>
      </trkpt>
      <trkpt lat="44.11952" lon="3.22697">
        <ele>596</ele>
        <time>2014-10-24T10:36:25Z</time>
      </trkpt>
      <trkpt lat="44.11932" lon="3.22704">
        <ele>599.9000064</ele>
        <time>2014-10-24T10:36:41Z</time>
      </trkpt>
      <trkpt lat="44.11911" lon="3.22711">
        <ele>602.9500032</ele>
        <time>2014-10-24T10:37:01Z</time>
      </trkpt>
      <trkpt lat="44.11891" lon="3.22725">
        <ele>604</ele>
        <time>2014-10-24T10:37:16Z</time>
      </trkpt>
      <trkpt lat="44.1187" lon="3.22732">
        <ele>606</ele>
        <time>2014-10-24T10:37:32Z</time>
      </trkpt>
      <trkpt lat="44.11849" lon="3.22739">
        <ele>608.9500032</ele>
        <time>2014-10-24T10:37:51Z</time>
      </trkpt>
      <trkpt lat="44.11829" lon="3.22741">
        <ele>612</ele>
        <time>2014-10-24T10:38:08Z</time>
      </trkpt>
      <trkpt lat="44.11808" lon="3.22744">
        <ele>616</ele>
        <time>2014-10-24T10:38:30Z</time>
      </trkpt>
      <trkpt lat="44.11797" lon="3.22744">
        <ele>618.9000064</ele>
        <time>2014-10-24T10:38:41Z</time>
      </trkpt>
      <trkpt lat="44.11777" lon="3.22749">
        <ele>621</ele>
        <time>2014-10-24T10:38:59Z</time>
      </trkpt>
      <trkpt lat="44.11756" lon="3.22748">
        <ele>623</ele>
        <time>2014-10-24T10:39:14Z</time>
      </trkpt>
      <trkpt lat="44.11737" lon="3.22755">
        <ele>626</ele>
        <time>2014-10-24T10:39:34Z</time>
      </trkpt>
      <trkpt lat="44.11722" lon="3.22776">
        <ele>626</ele>
        <time>2014-10-24T10:39:47Z</time>
      </trkpt>
      <trkpt lat="44.11703" lon="3.22794">
        <ele>628</ele>
        <time>2014-10-24T10:39:57Z</time>
      </trkpt>
      <trkpt lat="44.11684" lon="3.228">
        <ele>629</ele>
        <time>2014-10-24T10:40:14Z</time>
      </trkpt>
      <trkpt lat="44.11674" lon="3.22802">
        <ele>631</ele>
        <time>2014-10-24T10:40:26Z</time>
      </trkpt>
      <trkpt lat="44.11667" lon="3.22814">
        <ele>635</ele>
        <time>2014-10-24T10:40:43Z</time>
      </trkpt>
      <trkpt lat="44.1166" lon="3.22824">
        <ele>637</ele>
        <time>2014-10-24T10:40:54Z</time>
      </trkpt>
      <trkpt lat="44.11653" lon="3.22835">
        <ele>639</ele>
        <time>2014-10-24T10:41:05Z</time>
      </trkpt>
      <trkpt lat="44.11641" lon="3.22858">
        <ele>642.9000064</ele>
        <time>2014-10-24T10:41:21Z</time>
      </trkpt>
      <trkpt lat="44.11634" lon="3.22869">
        <ele>645</ele>
        <time>2014-10-24T10:41:32Z</time>
      </trkpt>
      <trkpt lat="44.11627" lon="3.22879">
        <ele>647</ele>
        <time>2014-10-24T10:41:49Z</time>
      </trkpt>
      <trkpt lat="44.11631" lon="3.22893">
        <ele>653</ele>
        <time>2014-10-24T10:42:09Z</time>
      </trkpt>
      <trkpt lat="44.11635" lon="3.22906">
        <ele>655.9000064</ele>
        <time>2014-10-24T10:42:21Z</time>
      </trkpt>
      <trkpt lat="44.11624" lon="3.22909">
        <ele>657</ele>
        <time>2014-10-24T10:42:40Z</time>
      </trkpt>
      <trkpt lat="44.11614" lon="3.22906">
        <ele>662</ele>
        <time>2014-10-24T10:42:53Z</time>
      </trkpt>
      <trkpt lat="44.11604" lon="3.22904">
        <ele>664</ele>
        <time>2014-10-24T10:43:06Z</time>
      </trkpt>
      <trkpt lat="44.11596" lon="3.22898">
        <ele>665</ele>
        <time>2014-10-24T10:43:17Z</time>
      </trkpt>
      <trkpt lat="44.11588" lon="3.22893">
        <ele>669</ele>
        <time>2014-10-24T10:43:34Z</time>
      </trkpt>
      <trkpt lat="44.11581" lon="3.22889">
        <ele>671</ele>
        <time>2014-10-24T10:43:44Z</time>
      </trkpt>
      <trkpt lat="44.11572" lon="3.22883">
        <ele>675</ele>
        <time>2014-10-24T10:44:05Z</time>
      </trkpt>
      <trkpt lat="44.11563" lon="3.22881">
        <ele>679</ele>
        <time>2014-10-24T10:44:30Z</time>
      </trkpt>
      <trkpt lat="44.11553" lon="3.22878">
        <ele>684</ele>
        <time>2014-10-24T10:44:55Z</time>
      </trkpt>
      <trkpt lat="44.11544" lon="3.22873">
        <ele>689</ele>
        <time>2014-10-24T10:45:17Z</time>
      </trkpt>
      <trkpt lat="44.11535" lon="3.22875">
        <ele>694.9000064</ele>
        <time>2014-10-24T10:45:36Z</time>
      </trkpt>
      <trkpt lat="44.11528" lon="3.22879">
        <ele>697</ele>
        <time>2014-10-24T10:45:53Z</time>
      </trkpt>
      <trkpt lat="44.11513" lon="3.22883">
        <ele>700.9000064</ele>
        <time>2014-10-24T10:46:11Z</time>
      </trkpt>
      <trkpt lat="44.11507" lon="3.22889">
        <ele>703</ele>
        <time>2014-10-24T10:46:25Z</time>
      </trkpt>
      <trkpt lat="44.115" lon="3.22883">
        <ele>708</ele>
        <time>2014-10-24T10:46:38Z</time>
      </trkpt>
      <trkpt lat="44.11495" lon="3.22891">
        <ele>710</ele>
        <time>2014-10-24T10:46:55Z</time>
      </trkpt>
      <trkpt lat="44.11493" lon="3.22904">
        <ele>711</ele>
        <time>2014-10-24T10:47:06Z</time>
      </trkpt>
      <trkpt lat="44.11478" lon="3.22917">
        <ele>714.9500032</ele>
        <time>2014-10-24T10:47:26Z</time>
      </trkpt>
      <trkpt lat="44.11469" lon="3.22917">
        <ele>717.9299968</ele>
        <time>2014-10-24T10:47:36Z</time>
      </trkpt>
      <trkpt lat="44.11459" lon="3.22916">
        <ele>719</ele>
        <time>2014-10-24T10:47:52Z</time>
      </trkpt>
      <trkpt lat="44.11449" lon="3.22916">
        <ele>721</ele>
        <time>2014-10-24T10:48:05Z</time>
      </trkpt>
      <trkpt lat="44.1144" lon="3.22915">
        <ele>723</ele>
        <time>2014-10-24T10:48:18Z</time>
      </trkpt>
      <trkpt lat="44.1143" lon="3.22913">
        <ele>725</ele>
        <time>2014-10-24T10:48:30Z</time>
      </trkpt>
      <trkpt lat="44.1142" lon="3.22911">
        <ele>729</ele>
        <time>2014-10-24T10:48:43Z</time>
      </trkpt>
      <trkpt lat="44.11413" lon="3.2291">
        <ele>731</ele>
        <time>2014-10-24T10:48:54Z</time>
      </trkpt>
      <trkpt lat="44.11403" lon="3.2291">
        <ele>733</ele>
        <time>2014-10-24T10:49:06Z</time>
      </trkpt>
      <trkpt lat="44.11383" lon="3.22908">
        <ele>736</ele>
        <time>2014-10-24T10:49:24Z</time>
      </trkpt>
      <trkpt lat="44.11365" lon="3.22902">
        <ele>737</ele>
        <time>2014-10-24T10:49:39Z</time>
      </trkpt>
      <trkpt lat="44.11359" lon="3.22889">
        <ele>737</ele>
        <time>2014-10-24T10:49:50Z</time>
      </trkpt>
      <trkpt lat="44.11346" lon="3.22864">
        <ele>740</ele>
        <time>2014-10-24T10:50:05Z</time>
      </trkpt>
      <trkpt lat="44.11336" lon="3.22841">
        <ele>740</ele>
        <time>2014-10-24T10:50:17Z</time>
      </trkpt>
      <trkpt lat="44.11325" lon="3.22818">
        <ele>741</ele>
        <time>2014-10-24T10:50:29Z</time>
      </trkpt>
      <trkpt lat="44.11316" lon="3.22791">
        <ele>743</ele>
        <time>2014-10-24T10:50:42Z</time>
      </trkpt>
      <trkpt lat="44.11313" lon="3.22768">
        <ele>743</ele>
        <time>2014-10-24T10:50:53Z</time>
      </trkpt>
      <trkpt lat="44.11311" lon="3.22751">
        <ele>744</ele>
        <time>2014-10-24T10:51:03Z</time>
      </trkpt>
      <trkpt lat="44.11304" lon="3.2273">
        <ele>745</ele>
        <time>2014-10-24T10:51:15Z</time>
      </trkpt>
      <trkpt lat="44.11298" lon="3.22704">
        <ele>745</ele>
        <time>2014-10-24T10:51:25Z</time>
      </trkpt>
      <trkpt lat="44.11291" lon="3.2267">
        <ele>743</ele>
        <time>2014-10-24T10:51:39Z</time>
      </trkpt>
      <trkpt lat="44.11282" lon="3.22655">
        <ele>743.9500032</ele>
        <time>2014-10-24T10:51:51Z</time>
      </trkpt>
      <trkpt lat="44.11258" lon="3.22651">
        <ele>741</ele>
        <time>2014-10-24T10:52:04Z</time>
      </trkpt>
      <trkpt lat="44.11243" lon="3.22625">
        <ele>741</ele>
        <time>2014-10-24T10:52:17Z</time>
      </trkpt>
      <trkpt lat="44.11233" lon="3.22598">
        <ele>742</ele>
        <time>2014-10-24T10:52:29Z</time>
      </trkpt>
      <trkpt lat="44.11222" lon="3.22571">
        <ele>743</ele>
        <time>2014-10-24T10:52:42Z</time>
      </trkpt>
      <trkpt lat="44.11214" lon="3.22548">
        <ele>744</ele>
        <time>2014-10-24T10:52:52Z</time>
      </trkpt>
      <trkpt lat="44.11194" lon="3.22526">
        <ele>745</ele>
        <time>2014-10-24T10:53:05Z</time>
      </trkpt>
      <trkpt lat="44.11178" lon="3.22508">
        <ele>744</ele>
        <time>2014-10-24T10:53:18Z</time>
      </trkpt>
      <trkpt lat="44.11158" lon="3.22488">
        <ele>745</ele>
        <time>2014-10-24T10:53:30Z</time>
      </trkpt>
      <trkpt lat="44.11139" lon="3.22479">
        <ele>745</ele>
        <time>2014-10-24T10:53:40Z</time>
      </trkpt>
      <trkpt lat="44.11115" lon="3.22476">
        <ele>745</ele>
        <time>2014-10-24T10:53:51Z</time>
      </trkpt>
      <trkpt lat="44.11088" lon="3.22476">
        <ele>744</ele>
        <time>2014-10-24T10:54:04Z</time>
      </trkpt>
      <trkpt lat="44.11067" lon="3.22508">
        <ele>743</ele>
        <time>2014-10-24T10:54:16Z</time>
      </trkpt>
      <trkpt lat="44.11042" lon="3.2253">
        <ele>739</ele>
        <time>2014-10-24T10:54:28Z</time>
      </trkpt>
      <trkpt lat="44.11012" lon="3.22525">
        <ele>738</ele>
        <time>2014-10-24T10:54:40Z</time>
      </trkpt>
      <trkpt lat="44.10992" lon="3.22539">
        <ele>737</ele>
        <time>2014-10-24T10:54:50Z</time>
      </trkpt>
      <trkpt lat="44.10985" lon="3.22507">
        <ele>730.249984</ele>
        <time>2014-10-24T10:55:01Z</time>
      </trkpt>
      <trkpt lat="44.10986" lon="3.22467">
        <ele>727</ele>
        <time>2014-10-24T10:55:12Z</time>
      </trkpt>
      <trkpt lat="44.10991" lon="3.22426">
        <ele>725</ele>
        <time>2014-10-24T10:55:24Z</time>
      </trkpt>
      <trkpt lat="44.10996" lon="3.22382">
        <ele>721.0499968</ele>
        <time>2014-10-24T10:55:36Z</time>
      </trkpt>
      <trkpt lat="44.11001" lon="3.22345">
        <ele>720</ele>
        <time>2014-10-24T10:55:46Z</time>
      </trkpt>
      <trkpt lat="44.11003" lon="3.22303">
        <ele>717</ele>
        <time>2014-10-24T10:55:57Z</time>
      </trkpt>
      <trkpt lat="44.11008" lon="3.22263">
        <ele>711</ele>
        <time>2014-10-24T10:56:08Z</time>
      </trkpt>
      <trkpt lat="44.11012" lon="3.22219">
        <ele>710</ele>
        <time>2014-10-24T10:56:20Z</time>
      </trkpt>
      <trkpt lat="44.11017" lon="3.22178">
        <ele>705.0499968</ele>
        <time>2014-10-24T10:56:31Z</time>
      </trkpt>
      <trkpt lat="44.11021" lon="3.22132">
        <ele>703</ele>
        <time>2014-10-24T10:56:43Z</time>
      </trkpt>
      <trkpt lat="44.11029" lon="3.22088">
        <ele>697</ele>
        <time>2014-10-24T10:56:55Z</time>
      </trkpt>
      <trkpt lat="44.11016" lon="3.22059">
        <ele>697</ele>
        <time>2014-10-24T10:57:05Z</time>
      </trkpt>
      <trkpt lat="44.10988" lon="3.22042">
        <ele>697</ele>
        <time>2014-10-24T10:57:17Z</time>
      </trkpt>
      <trkpt lat="44.10964" lon="3.22013">
        <ele>697</ele>
        <time>2014-10-24T10:57:30Z</time>
      </trkpt>
      <trkpt lat="44.10947" lon="3.2198">
        <ele>694</ele>
        <time>2014-10-24T10:57:42Z</time>
      </trkpt>
      <trkpt lat="44.10929" lon="3.21955">
        <ele>693</ele>
        <time>2014-10-24T10:57:52Z</time>
      </trkpt>
      <trkpt lat="44.10904" lon="3.21927">
        <ele>688</ele>
        <time>2014-10-24T10:58:04Z</time>
      </trkpt>
      <trkpt lat="44.10879" lon="3.21903">
        <ele>688</ele>
        <time>2014-10-24T10:58:16Z</time>
      </trkpt>
      <trkpt lat="44.10854" lon="3.21881">
        <ele>687</ele>
        <time>2014-10-24T10:58:28Z</time>
      </trkpt>
      <trkpt lat="44.10832" lon="3.21858">
        <ele>686</ele>
        <time>2014-10-24T10:58:42Z</time>
      </trkpt>
      <trkpt lat="44.1083" lon="3.21836">
        <ele>688</ele>
        <time>2014-10-24T10:58:54Z</time>
      </trkpt>
      <trkpt lat="44.10818" lon="3.21816">
        <ele>689</ele>
        <time>2014-10-24T10:59:09Z</time>
      </trkpt>
      <trkpt lat="44.10809" lon="3.21804">
        <ele>692.9000064</ele>
        <time>2014-10-24T10:59:21Z</time>
      </trkpt>
      <trkpt lat="44.10799" lon="3.21787">
        <ele>694</ele>
        <time>2014-10-24T10:59:34Z</time>
      </trkpt>
      <trkpt lat="44.10799" lon="3.21764">
        <ele>695</ele>
        <time>2014-10-24T10:59:47Z</time>
      </trkpt>
      <trkpt lat="44.10777" lon="3.21751">
        <ele>695</ele>
        <time>2014-10-24T10:59:57Z</time>
      </trkpt>
      <trkpt lat="44.10754" lon="3.21751">
        <ele>696</ele>
        <time>2014-10-24T11:00:07Z</time>
      </trkpt>
      <trkpt lat="44.10738" lon="3.21749">
        <ele>696</ele>
        <time>2014-10-24T11:00:29Z</time>
      </trkpt>
      <trkpt lat="44.10721" lon="3.21747">
        <ele>696</ele>
        <time>2014-10-24T11:00:41Z</time>
      </trkpt>
      <trkpt lat="44.1072" lon="3.21723">
        <ele>695</ele>
        <time>2014-10-24T11:00:52Z</time>
      </trkpt>
      <trkpt lat="44.10723" lon="3.21687">
        <ele>692</ele>
        <time>2014-10-24T11:01:05Z</time>
      </trkpt>
      <trkpt lat="44.10704" lon="3.21657">
        <ele>690</ele>
        <time>2014-10-24T11:01:17Z</time>
      </trkpt>
      <trkpt lat="44.10685" lon="3.21626">
        <ele>689</ele>
        <time>2014-10-24T11:01:29Z</time>
      </trkpt>
      <trkpt lat="44.10672" lon="3.21599">
        <ele>688</ele>
        <time>2014-10-24T11:01:39Z</time>
      </trkpt>
      <trkpt lat="44.10659" lon="3.21574">
        <ele>687</ele>
        <time>2014-10-24T11:01:50Z</time>
      </trkpt>
      <trkpt lat="44.1065" lon="3.21547">
        <ele>690</ele>
        <time>2014-10-24T11:02:03Z</time>
      </trkpt>
      <trkpt lat="44.10645" lon="3.21524">
        <ele>691</ele>
        <time>2014-10-24T11:02:15Z</time>
      </trkpt>
      <trkpt lat="44.10647" lon="3.21502">
        <ele>692</ele>
        <time>2014-10-24T11:02:26Z</time>
      </trkpt>
      <trkpt lat="44.10668" lon="3.21491">
        <ele>694</ele>
        <time>2014-10-24T11:02:39Z</time>
      </trkpt>
      <trkpt lat="44.10693" lon="3.21492">
        <ele>695</ele>
        <time>2014-10-24T11:02:49Z</time>
      </trkpt>
      <trkpt lat="44.10722" lon="3.21487">
        <ele>695</ele>
        <time>2014-10-24T11:03:00Z</time>
      </trkpt>
      <trkpt lat="44.10748" lon="3.21488">
        <ele>691</ele>
        <time>2014-10-24T11:03:10Z</time>
      </trkpt>
      <trkpt lat="44.10781" lon="3.2149">
        <ele>687</ele>
        <time>2014-10-24T11:03:23Z</time>
      </trkpt>
      <trkpt lat="44.10811" lon="3.21481">
        <ele>685</ele>
        <time>2014-10-24T11:03:34Z</time>
      </trkpt>
      <trkpt lat="44.10834" lon="3.21457">
        <ele>683</ele>
        <time>2014-10-24T11:03:46Z</time>
      </trkpt>
      <trkpt lat="44.10854" lon="3.21433">
        <ele>684</ele>
        <time>2014-10-24T11:03:58Z</time>
      </trkpt>
      <trkpt lat="44.10874" lon="3.21407">
        <ele>684</ele>
        <time>2014-10-24T11:04:11Z</time>
      </trkpt>
      <trkpt lat="44.10889" lon="3.21384">
        <ele>683.0499968</ele>
        <time>2014-10-24T11:04:21Z</time>
      </trkpt>
      <trkpt lat="44.10903" lon="3.2136">
        <ele>683</ele>
        <time>2014-10-24T11:04:31Z</time>
      </trkpt>
      <trkpt lat="44.10915" lon="3.21333">
        <ele>683</ele>
        <time>2014-10-24T11:04:41Z</time>
      </trkpt>
      <trkpt lat="44.10914" lon="3.21297">
        <ele>682</ele>
        <time>2014-10-24T11:04:53Z</time>
      </trkpt>
      <trkpt lat="44.10907" lon="3.21265">
        <ele>680</ele>
        <time>2014-10-24T11:05:04Z</time>
      </trkpt>
      <trkpt lat="44.109" lon="3.21227">
        <ele>679</ele>
        <time>2014-10-24T11:05:17Z</time>
      </trkpt>
      <trkpt lat="44.109" lon="3.2118">
        <ele>675</ele>
        <time>2014-10-24T11:05:31Z</time>
      </trkpt>
      <trkpt lat="44.10896" lon="3.21142">
        <ele>674</ele>
        <time>2014-10-24T11:05:43Z</time>
      </trkpt>
      <trkpt lat="44.10898" lon="3.21105">
        <ele>674</ele>
        <time>2014-10-24T11:05:54Z</time>
      </trkpt>
      <trkpt lat="44.1091" lon="3.21066">
        <ele>670</ele>
        <time>2014-10-24T11:06:08Z</time>
      </trkpt>
      <trkpt lat="44.10905" lon="3.2104">
        <ele>670</ele>
        <time>2014-10-24T11:06:18Z</time>
      </trkpt>
      <trkpt lat="44.10894" lon="3.21007">
        <ele>666.0499968</ele>
        <time>2014-10-24T11:06:31Z</time>
      </trkpt>
      <trkpt lat="44.10885" lon="3.2098">
        <ele>664</ele>
        <time>2014-10-24T11:06:42Z</time>
      </trkpt>
      <trkpt lat="44.1088" lon="3.20953">
        <ele>662</ele>
        <time>2014-10-24T11:06:52Z</time>
      </trkpt>
      <trkpt lat="44.10873" lon="3.20926">
        <ele>659</ele>
        <time>2014-10-24T11:07:02Z</time>
      </trkpt>
      <trkpt lat="44.10857" lon="3.20899">
        <ele>658</ele>
        <time>2014-10-24T11:07:15Z</time>
      </trkpt>
      <trkpt lat="44.10839" lon="3.20883">
        <ele>653.0999936</ele>
        <time>2014-10-24T11:07:26Z</time>
      </trkpt>
      <trkpt lat="44.10824" lon="3.20863">
        <ele>651.0599936</ele>
        <time>2014-10-24T11:07:36Z</time>
      </trkpt>
      <trkpt lat="44.1084" lon="3.20845">
        <ele>650</ele>
        <time>2014-10-24T11:07:46Z</time>
      </trkpt>
      <trkpt lat="44.10861" lon="3.20838">
        <ele>651</ele>
        <time>2014-10-24T11:07:58Z</time>
      </trkpt>
      <trkpt lat="44.10877" lon="3.20822">
        <ele>651</ele>
        <time>2014-10-24T11:08:09Z</time>
      </trkpt>
      <trkpt lat="44.10894" lon="3.208">
        <ele>651</ele>
        <time>2014-10-24T11:08:22Z</time>
      </trkpt>
      <trkpt lat="44.10908" lon="3.20778">
        <ele>651</ele>
        <time>2014-10-24T11:08:33Z</time>
      </trkpt>
      <trkpt lat="44.10923" lon="3.20756">
        <ele>652</ele>
        <time>2014-10-24T11:08:44Z</time>
      </trkpt>
      <trkpt lat="44.10938" lon="3.20733">
        <ele>652</ele>
        <time>2014-10-24T11:08:55Z</time>
      </trkpt>
      <trkpt lat="44.10945" lon="3.20706">
        <ele>652</ele>
        <time>2014-10-24T11:09:08Z</time>
      </trkpt>
      <trkpt lat="44.10953" lon="3.2068">
        <ele>652</ele>
        <time>2014-10-24T11:09:18Z</time>
      </trkpt>
      <trkpt lat="44.10961" lon="3.20653">
        <ele>652</ele>
        <time>2014-10-24T11:09:28Z</time>
      </trkpt>
      <trkpt lat="44.10974" lon="3.2063">
        <ele>653</ele>
        <time>2014-10-24T11:09:38Z</time>
      </trkpt>
      <trkpt lat="44.10991" lon="3.20613">
        <ele>654</ele>
        <time>2014-10-24T11:09:50Z</time>
      </trkpt>
      <trkpt lat="44.11007" lon="3.20596">
        <ele>655</ele>
        <time>2014-10-24T11:10:03Z</time>
      </trkpt>
      <trkpt lat="44.11012" lon="3.20583">
        <ele>655</ele>
        <time>2014-10-24T11:10:13Z</time>
      </trkpt>
      <trkpt lat="44.11022" lon="3.20576">
        <ele>657</ele>
        <time>2014-10-24T11:10:23Z</time>
      </trkpt>
      <trkpt lat="44.11038" lon="3.20559">
        <ele>658</ele>
        <time>2014-10-24T11:10:37Z</time>
      </trkpt>
      <trkpt lat="44.11053" lon="3.20539">
        <ele>660</ele>
        <time>2014-10-24T11:10:54Z</time>
      </trkpt>
      <trkpt lat="44.1107" lon="3.20521">
        <ele>660</ele>
        <time>2014-10-24T11:11:10Z</time>
      </trkpt>
      <trkpt lat="44.11083" lon="3.20485">
        <ele>660</ele>
        <time>2014-10-24T11:11:23Z</time>
      </trkpt>
      <trkpt lat="44.11098" lon="3.20447">
        <ele>660</ele>
        <time>2014-10-24T11:11:36Z</time>
      </trkpt>
      <trkpt lat="44.11105" lon="3.20406">
        <ele>660</ele>
        <time>2014-10-24T11:11:51Z</time>
      </trkpt>
      <trkpt lat="44.11114" lon="3.20381">
        <ele>660</ele>
        <time>2014-10-24T11:12:03Z</time>
      </trkpt>
      <trkpt lat="44.11125" lon="3.20355">
        <ele>660</ele>
        <time>2014-10-24T11:12:13Z</time>
      </trkpt>
      <trkpt lat="44.11129" lon="3.20323">
        <ele>660</ele>
        <time>2014-10-24T11:12:23Z</time>
      </trkpt>
      <trkpt lat="44.11124" lon="3.20292">
        <ele>658</ele>
        <time>2014-10-24T11:12:34Z</time>
      </trkpt>
      <trkpt lat="44.11116" lon="3.20263">
        <ele>658</ele>
        <time>2014-10-24T11:12:44Z</time>
      </trkpt>
      <trkpt lat="44.11111" lon="3.20218">
        <ele>658</ele>
        <time>2014-10-24T11:12:58Z</time>
      </trkpt>
      <trkpt lat="44.11113" lon="3.20189">
        <ele>660</ele>
        <time>2014-10-24T11:13:12Z</time>
      </trkpt>
      <trkpt lat="44.11116" lon="3.20175">
        <ele>661</ele>
        <time>2014-10-24T11:13:22Z</time>
      </trkpt>
      <trkpt lat="44.11121" lon="3.20163">
        <ele>663</ele>
        <time>2014-10-24T11:13:32Z</time>
      </trkpt>
      <trkpt lat="44.11138" lon="3.20149">
        <ele>664</ele>
        <time>2014-10-24T11:13:46Z</time>
      </trkpt>
      <trkpt lat="44.11152" lon="3.20136">
        <ele>666</ele>
        <time>2014-10-24T11:14:00Z</time>
      </trkpt>
      <trkpt lat="44.11158" lon="3.20125">
        <ele>667</ele>
        <time>2014-10-24T11:14:10Z</time>
      </trkpt>
      <trkpt lat="44.11173" lon="3.20117">
        <ele>669</ele>
        <time>2014-10-24T11:14:27Z</time>
      </trkpt>
      <trkpt lat="44.11181" lon="3.20119">
        <ele>671</ele>
        <time>2014-10-24T11:14:38Z</time>
      </trkpt>
      <trkpt lat="44.11189" lon="3.20119">
        <ele>674</ele>
        <time>2014-10-24T11:14:48Z</time>
      </trkpt>
      <trkpt lat="44.11198" lon="3.20121">
        <ele>675</ele>
        <time>2014-10-24T11:15:00Z</time>
      </trkpt>
      <trkpt lat="44.11206" lon="3.20124">
        <ele>678</ele>
        <time>2014-10-24T11:15:10Z</time>
      </trkpt>
      <trkpt lat="44.1122" lon="3.20125">
        <ele>682</ele>
        <time>2014-10-24T11:15:24Z</time>
      </trkpt>
      <trkpt lat="44.11221" lon="3.20143">
        <ele>683</ele>
        <time>2014-10-24T11:15:40Z</time>
      </trkpt>
      <trkpt lat="44.11223" lon="3.20156">
        <ele>687</ele>
        <time>2014-10-24T11:15:53Z</time>
      </trkpt>
      <trkpt lat="44.11232" lon="3.20163">
        <ele>688</ele>
        <time>2014-10-24T11:16:05Z</time>
      </trkpt>
      <trkpt lat="44.11241" lon="3.20165">
        <ele>690</ele>
        <time>2014-10-24T11:16:16Z</time>
      </trkpt>
      <trkpt lat="44.1125" lon="3.20168">
        <ele>692</ele>
        <time>2014-10-24T11:16:27Z</time>
      </trkpt>
      <trkpt lat="44.11257" lon="3.20169">
        <ele>696</ele>
        <time>2014-10-24T11:16:37Z</time>
      </trkpt>
      <trkpt lat="44.11265" lon="3.20173">
        <ele>696</ele>
        <time>2014-10-24T11:16:47Z</time>
      </trkpt>
      <trkpt lat="44.11273" lon="3.2018">
        <ele>698</ele>
        <time>2014-10-24T11:16:58Z</time>
      </trkpt>
      <trkpt lat="44.11285" lon="3.20176">
        <ele>701</ele>
        <time>2014-10-24T11:17:12Z</time>
      </trkpt>
      <trkpt lat="44.11296" lon="3.20167">
        <ele>703</ele>
        <time>2014-10-24T11:17:24Z</time>
      </trkpt>
      <trkpt lat="44.11302" lon="3.20157">
        <ele>704</ele>
        <time>2014-10-24T11:17:34Z</time>
      </trkpt>
      <trkpt lat="44.1131" lon="3.20145">
        <ele>705</ele>
        <time>2014-10-24T11:17:45Z</time>
      </trkpt>
      <trkpt lat="44.11319" lon="3.20134">
        <ele>706</ele>
        <time>2014-10-24T11:17:55Z</time>
      </trkpt>
      <trkpt lat="44.11326" lon="3.20122">
        <ele>708</ele>
        <time>2014-10-24T11:18:06Z</time>
      </trkpt>
      <trkpt lat="44.11334" lon="3.20109">
        <ele>709</ele>
        <time>2014-10-24T11:18:17Z</time>
      </trkpt>
      <trkpt lat="44.11341" lon="3.20096">
        <ele>711</ele>
        <time>2014-10-24T11:18:29Z</time>
      </trkpt>
      <trkpt lat="44.11349" lon="3.20082">
        <ele>713.9500032</ele>
        <time>2014-10-24T11:18:41Z</time>
      </trkpt>
      <trkpt lat="44.11361" lon="3.20064">
        <ele>715</ele>
        <time>2014-10-24T11:18:56Z</time>
      </trkpt>
      <trkpt lat="44.11371" lon="3.20052">
        <ele>718</ele>
        <time>2014-10-24T11:19:09Z</time>
      </trkpt>
      <trkpt lat="44.1138" lon="3.20038">
        <ele>718.9500032</ele>
        <time>2014-10-24T11:19:21Z</time>
      </trkpt>
      <trkpt lat="44.11389" lon="3.20026">
        <ele>720</ele>
        <time>2014-10-24T11:19:33Z</time>
      </trkpt>
      <trkpt lat="44.11402" lon="3.2001">
        <ele>722</ele>
        <time>2014-10-24T11:19:46Z</time>
      </trkpt>
      <trkpt lat="44.11412" lon="3.20001">
        <ele>723</ele>
        <time>2014-10-24T11:19:56Z</time>
      </trkpt>
      <trkpt lat="44.11425" lon="3.19992">
        <ele>724</ele>
        <time>2014-10-24T11:20:06Z</time>
      </trkpt>
      <trkpt lat="44.11435" lon="3.19983">
        <ele>725</ele>
        <time>2014-10-24T11:20:16Z</time>
      </trkpt>
      <trkpt lat="44.11427" lon="3.19969">
        <ele>725</ele>
        <time>2014-10-24T11:20:28Z</time>
      </trkpt>
      <trkpt lat="44.11423" lon="3.19948">
        <ele>727</ele>
        <time>2014-10-24T11:20:40Z</time>
      </trkpt>
      <trkpt lat="44.11416" lon="3.1993">
        <ele>730</ele>
        <time>2014-10-24T11:20:52Z</time>
      </trkpt>
      <trkpt lat="44.11399" lon="3.19908">
        <ele>728</ele>
        <time>2014-10-24T11:21:04Z</time>
      </trkpt>
      <trkpt lat="44.11371" lon="3.19898">
        <ele>728</ele>
        <time>2014-10-24T11:21:16Z</time>
      </trkpt>
      <trkpt lat="44.11349" lon="3.19885">
        <ele>728</ele>
        <time>2014-10-24T11:21:27Z</time>
      </trkpt>
      <trkpt lat="44.11332" lon="3.19863">
        <ele>728</ele>
        <time>2014-10-24T11:21:37Z</time>
      </trkpt>
      <trkpt lat="44.11326" lon="3.19836">
        <ele>727</ele>
        <time>2014-10-24T11:21:47Z</time>
      </trkpt>
      <trkpt lat="44.1133" lon="3.19814">
        <ele>728</ele>
        <time>2014-10-24T11:21:59Z</time>
      </trkpt>
      <trkpt lat="44.11335" lon="3.19795">
        <ele>728</ele>
        <time>2014-10-24T11:22:09Z</time>
      </trkpt>
      <trkpt lat="44.11338" lon="3.19778">
        <ele>730</ele>
        <time>2014-10-24T11:22:19Z</time>
      </trkpt>
      <trkpt lat="44.1134" lon="3.19758">
        <ele>732</ele>
        <time>2014-10-24T11:22:30Z</time>
      </trkpt>
      <trkpt lat="44.11344" lon="3.1973">
        <ele>733</ele>
        <time>2014-10-24T11:22:44Z</time>
      </trkpt>
      <trkpt lat="44.11348" lon="3.19705">
        <ele>734</ele>
        <time>2014-10-24T11:22:56Z</time>
      </trkpt>
      <trkpt lat="44.11349" lon="3.19678">
        <ele>735</ele>
        <time>2014-10-24T11:23:06Z</time>
      </trkpt>
      <trkpt lat="44.11352" lon="3.19644">
        <ele>736</ele>
        <time>2014-10-24T11:23:18Z</time>
      </trkpt>
      <trkpt lat="44.11357" lon="3.19616">
        <ele>737</ele>
        <time>2014-10-24T11:23:28Z</time>
      </trkpt>
      <trkpt lat="44.11365" lon="3.19583">
        <ele>736.0499968</ele>
        <time>2014-10-24T11:23:41Z</time>
      </trkpt>
      <trkpt lat="44.1137" lon="3.19549">
        <ele>736</ele>
        <time>2014-10-24T11:23:54Z</time>
      </trkpt>
      <trkpt lat="44.11378" lon="3.19504">
        <ele>733</ele>
        <time>2014-10-24T11:24:07Z</time>
      </trkpt>
      <trkpt lat="44.11386" lon="3.19468">
        <ele>733</ele>
        <time>2014-10-24T11:24:21Z</time>
      </trkpt>
      <trkpt lat="44.11381" lon="3.19444">
        <ele>734</ele>
        <time>2014-10-24T11:24:38Z</time>
      </trkpt>
      <trkpt lat="44.11375" lon="3.19421">
        <ele>738</ele>
        <time>2014-10-24T11:24:55Z</time>
      </trkpt>
      <trkpt lat="44.11366" lon="3.19401">
        <ele>742</ele>
        <time>2014-10-24T11:25:15Z</time>
      </trkpt>
      <trkpt lat="44.11356" lon="3.19381">
        <ele>744.9000064</ele>
        <time>2014-10-24T11:25:31Z</time>
      </trkpt>
      <trkpt lat="44.11344" lon="3.19363">
        <ele>747.9500032</ele>
        <time>2014-10-24T11:25:51Z</time>
      </trkpt>
      <trkpt lat="44.11336" lon="3.19344">
        <ele>751</ele>
        <time>2014-10-24T11:26:08Z</time>
      </trkpt>
      <trkpt lat="44.11328" lon="3.19326">
        <ele>753</ele>
        <time>2014-10-24T11:26:25Z</time>
      </trkpt>
      <trkpt lat="44.11313" lon="3.19318">
        <ele>755</ele>
        <time>2014-10-24T11:26:39Z</time>
      </trkpt>
      <trkpt lat="44.11303" lon="3.19301">
        <ele>760</ele>
        <time>2014-10-24T11:27:13Z</time>
      </trkpt>
      <trkpt lat="44.11305" lon="3.1929">
        <ele>764</ele>
        <time>2014-10-24T11:27:28Z</time>
      </trkpt>
      <trkpt lat="44.11305" lon="3.1928">
        <ele>766</ele>
        <time>2014-10-24T11:27:44Z</time>
      </trkpt>
      <trkpt lat="44.11304" lon="3.19271">
        <ele>768</ele>
        <time>2014-10-24T11:28:00Z</time>
      </trkpt>
      <trkpt lat="44.11306" lon="3.19262">
        <ele>772</ele>
        <time>2014-10-24T11:28:12Z</time>
      </trkpt>
      <trkpt lat="44.11304" lon="3.19251">
        <ele>776</ele>
        <time>2014-10-24T11:28:36Z</time>
      </trkpt>
      <trkpt lat="44.11304" lon="3.19242">
        <ele>778</ele>
        <time>2014-10-24T11:28:49Z</time>
      </trkpt>
      <trkpt lat="44.11308" lon="3.19233">
        <ele>782</ele>
        <time>2014-10-24T11:29:08Z</time>
      </trkpt>
      <trkpt lat="44.1131" lon="3.19222">
        <ele>785</ele>
        <time>2014-10-24T11:29:29Z</time>
      </trkpt>
      <trkpt lat="44.11314" lon="3.19214">
        <ele>788.9500032</ele>
        <time>2014-10-24T11:29:41Z</time>
      </trkpt>
      <trkpt lat="44.11322" lon="3.1921">
        <ele>790</ele>
        <time>2014-10-24T11:29:54Z</time>
      </trkpt>
      <trkpt lat="44.11336" lon="3.19208">
        <ele>791</ele>
        <time>2014-10-24T11:30:09Z</time>
      </trkpt>
      <trkpt lat="44.1134" lon="3.19198">
        <ele>791</ele>
        <time>2014-10-24T11:30:23Z</time>
      </trkpt>
      <trkpt lat="44.11343" lon="3.19189">
        <ele>793</ele>
        <time>2014-10-24T11:30:33Z</time>
      </trkpt>
      <trkpt lat="44.11351" lon="3.19186">
        <ele>793</ele>
        <time>2014-10-24T11:30:44Z</time>
      </trkpt>
      <trkpt lat="44.11358" lon="3.19178">
        <ele>793</ele>
        <time>2014-10-24T11:30:57Z</time>
      </trkpt>
      <trkpt lat="44.11365" lon="3.1917">
        <ele>792</ele>
        <time>2014-10-24T11:31:08Z</time>
      </trkpt>
      <trkpt lat="44.11374" lon="3.19162">
        <ele>792</ele>
        <time>2014-10-24T11:31:20Z</time>
      </trkpt>
      <trkpt lat="44.11383" lon="3.19157">
        <ele>790</ele>
        <time>2014-10-24T11:31:30Z</time>
      </trkpt>
      <trkpt lat="44.11401" lon="3.19145">
        <ele>789</ele>
        <time>2014-10-24T11:31:46Z</time>
      </trkpt>
      <trkpt lat="44.11408" lon="3.19149">
        <ele>791</ele>
        <time>2014-10-24T11:32:57Z</time>
      </trkpt>
      <trkpt lat="44.11424" lon="3.19151">
        <ele>790</ele>
        <time>2014-10-24T11:33:13Z</time>
      </trkpt>
      <trkpt lat="44.11425" lon="3.19132">
        <ele>792</ele>
        <time>2014-10-24T11:33:29Z</time>
      </trkpt>
      <trkpt lat="44.11419" lon="3.19122">
        <ele>792</ele>
        <time>2014-10-24T11:33:40Z</time>
      </trkpt>
      <trkpt lat="44.11415" lon="3.19109">
        <ele>791</ele>
        <time>2014-10-24T11:33:52Z</time>
      </trkpt>
      <trkpt lat="44.11419" lon="3.19096">
        <ele>790</ele>
        <time>2014-10-24T11:34:06Z</time>
      </trkpt>
      <trkpt lat="44.11429" lon="3.19089">
        <ele>791</ele>
        <time>2014-10-24T11:34:16Z</time>
      </trkpt>
      <trkpt lat="44.11448" lon="3.19078">
        <ele>792</ele>
        <time>2014-10-24T11:34:33Z</time>
      </trkpt>
      <trkpt lat="44.11455" lon="3.19067">
        <ele>792</ele>
        <time>2014-10-24T11:34:44Z</time>
      </trkpt>
      <trkpt lat="44.11464" lon="3.19061">
        <ele>792</ele>
        <time>2014-10-24T11:34:55Z</time>
      </trkpt>
      <trkpt lat="44.1148" lon="3.19053">
        <ele>795</ele>
        <time>2014-10-24T11:35:08Z</time>
      </trkpt>
      <trkpt lat="44.11494" lon="3.19042">
        <ele>795</ele>
        <time>2014-10-24T11:35:20Z</time>
      </trkpt>
      <trkpt lat="44.115" lon="3.19019">
        <ele>796</ele>
        <time>2014-10-24T11:35:32Z</time>
      </trkpt>
      <trkpt lat="44.11496" lon="3.19006">
        <ele>796</ele>
        <time>2014-10-24T11:35:43Z</time>
      </trkpt>
      <trkpt lat="44.11489" lon="3.18979">
        <ele>796</ele>
        <time>2014-10-24T11:35:57Z</time>
      </trkpt>
      <trkpt lat="44.11477" lon="3.18954">
        <ele>795</ele>
        <time>2014-10-24T11:36:12Z</time>
      </trkpt>
      <trkpt lat="44.1146" lon="3.18937">
        <ele>795</ele>
        <time>2014-10-24T11:36:23Z</time>
      </trkpt>
      <trkpt lat="44.11443" lon="3.18922">
        <ele>793</ele>
        <time>2014-10-24T11:36:36Z</time>
      </trkpt>
      <trkpt lat="44.11442" lon="3.18895">
        <ele>791</ele>
        <time>2014-10-24T11:36:52Z</time>
      </trkpt>
      <trkpt lat="44.11445" lon="3.18881">
        <ele>793</ele>
        <time>2014-10-24T11:37:06Z</time>
      </trkpt>
      <trkpt lat="44.11453" lon="3.18871">
        <ele>795</ele>
        <time>2014-10-24T11:37:17Z</time>
      </trkpt>
      <trkpt lat="44.1147" lon="3.18855">
        <ele>797</ele>
        <time>2014-10-24T11:37:35Z</time>
      </trkpt>
      <trkpt lat="44.11477" lon="3.18845">
        <ele>798</ele>
        <time>2014-10-24T11:37:45Z</time>
      </trkpt>
      <trkpt lat="44.11483" lon="3.1883">
        <ele>799</ele>
        <time>2014-10-24T11:37:56Z</time>
      </trkpt>
      <trkpt lat="44.11499" lon="3.18813">
        <ele>798</ele>
        <time>2014-10-24T11:38:07Z</time>
      </trkpt>
      <trkpt lat="44.11517" lon="3.18801">
        <ele>799</ele>
        <time>2014-10-24T11:38:18Z</time>
      </trkpt>
      <trkpt lat="44.11526" lon="3.1878">
        <ele>801</ele>
        <time>2014-10-24T11:38:31Z</time>
      </trkpt>
      <trkpt lat="44.11532" lon="3.18757">
        <ele>802</ele>
        <time>2014-10-24T11:38:44Z</time>
      </trkpt>
      <trkpt lat="44.11529" lon="3.18742">
        <ele>802</ele>
        <time>2014-10-24T11:38:55Z</time>
      </trkpt>
      <trkpt lat="44.11525" lon="3.18743">
        <ele>802</ele>
        <time>2014-10-24T11:39:17Z</time>
      </trkpt>
      <trkpt lat="44.11512" lon="3.18744">
        <ele>801</ele>
        <time>2014-10-24T11:39:28Z</time>
      </trkpt>
      <trkpt lat="44.11488" lon="3.18754">
        <ele>799.0499968</ele>
        <time>2014-10-24T11:39:41Z</time>
      </trkpt>
      <trkpt lat="44.11467" lon="3.18746">
        <ele>798</ele>
        <time>2014-10-24T11:40:00Z</time>
      </trkpt>
      <trkpt lat="44.11465" lon="3.18732">
        <ele>800</ele>
        <time>2014-10-24T11:40:11Z</time>
      </trkpt>
      <trkpt lat="44.11465" lon="3.18717">
        <ele>801.9000064</ele>
        <time>2014-10-24T11:40:21Z</time>
      </trkpt>
      <trkpt lat="44.11469" lon="3.18691">
        <ele>802</ele>
        <time>2014-10-24T11:40:37Z</time>
      </trkpt>
      <trkpt lat="44.11457" lon="3.18681">
        <ele>801</ele>
        <time>2014-10-24T11:40:48Z</time>
      </trkpt>
      <trkpt lat="44.11441" lon="3.18676">
        <ele>802</ele>
        <time>2014-10-24T11:40:58Z</time>
      </trkpt>
      <trkpt lat="44.11422" lon="3.1866">
        <ele>800</ele>
        <time>2014-10-24T11:41:08Z</time>
      </trkpt>
      <trkpt lat="44.11402" lon="3.18646">
        <ele>799</ele>
        <time>2014-10-24T11:41:20Z</time>
      </trkpt>
      <trkpt lat="44.11386" lon="3.18668">
        <ele>797</ele>
        <time>2014-10-24T11:41:34Z</time>
      </trkpt>
      <trkpt lat="44.11372" lon="3.18688">
        <ele>796</ele>
        <time>2014-10-24T11:41:47Z</time>
      </trkpt>
      <trkpt lat="44.11354" lon="3.18677">
        <ele>795</ele>
        <time>2014-10-24T11:41:59Z</time>
      </trkpt>
      <trkpt lat="44.11338" lon="3.18657">
        <ele>793</ele>
        <time>2014-10-24T11:42:13Z</time>
      </trkpt>
      <trkpt lat="44.11322" lon="3.18635">
        <ele>793</ele>
        <time>2014-10-24T11:42:24Z</time>
      </trkpt>
      <trkpt lat="44.11325" lon="3.18606">
        <ele>793</ele>
        <time>2014-10-24T11:42:35Z</time>
      </trkpt>
      <trkpt lat="44.11327" lon="3.18582">
        <ele>794</ele>
        <time>2014-10-24T11:42:49Z</time>
      </trkpt>
      <trkpt lat="44.1131" lon="3.18573">
        <ele>794</ele>
        <time>2014-10-24T11:43:01Z</time>
      </trkpt>
      <trkpt lat="44.11286" lon="3.18575">
        <ele>794</ele>
        <time>2014-10-24T11:43:14Z</time>
      </trkpt>
      <trkpt lat="44.11263" lon="3.1857">
        <ele>792</ele>
        <time>2014-10-24T11:43:25Z</time>
      </trkpt>
      <trkpt lat="44.11245" lon="3.18579">
        <ele>791</ele>
        <time>2014-10-24T11:43:35Z</time>
      </trkpt>
      <trkpt lat="44.11217" lon="3.18591">
        <ele>790</ele>
        <time>2014-10-24T11:43:48Z</time>
      </trkpt>
      <trkpt lat="44.112" lon="3.18581">
        <ele>785</ele>
        <time>2014-10-24T11:44:02Z</time>
      </trkpt>
      <trkpt lat="44.1118" lon="3.18569">
        <ele>787</ele>
        <time>2014-10-24T11:44:14Z</time>
      </trkpt>
      <trkpt lat="44.11161" lon="3.18556">
        <ele>788</ele>
        <time>2014-10-24T11:44:27Z</time>
      </trkpt>
      <trkpt lat="44.11131" lon="3.18565">
        <ele>784</ele>
        <time>2014-10-24T11:44:43Z</time>
      </trkpt>
      <trkpt lat="44.11112" lon="3.18568">
        <ele>779.0499968</ele>
        <time>2014-10-24T11:44:56Z</time>
      </trkpt>
      <trkpt lat="44.11094" lon="3.18556">
        <ele>779</ele>
        <time>2014-10-24T11:45:09Z</time>
      </trkpt>
      <trkpt lat="44.11077" lon="3.18537">
        <ele>780</ele>
        <time>2014-10-24T11:45:19Z</time>
      </trkpt>
      <trkpt lat="44.1106" lon="3.18518">
        <ele>781</ele>
        <time>2014-10-24T11:45:33Z</time>
      </trkpt>
      <trkpt lat="44.11039" lon="3.18484">
        <ele>780</ele>
        <time>2014-10-24T11:45:47Z</time>
      </trkpt>
      <trkpt lat="44.11032" lon="3.18456">
        <ele>780.9399936</ele>
        <time>2014-10-24T11:46:01Z</time>
      </trkpt>
      <trkpt lat="44.11016" lon="3.18441">
        <ele>782</ele>
        <time>2014-10-24T11:46:15Z</time>
      </trkpt>
      <trkpt lat="44.1102" lon="3.18414">
        <ele>783</ele>
        <time>2014-10-24T11:46:26Z</time>
      </trkpt>
      <trkpt lat="44.11018" lon="3.18388">
        <ele>783</ele>
        <time>2014-10-24T11:46:40Z</time>
      </trkpt>
      <trkpt lat="44.11004" lon="3.18369">
        <ele>784</ele>
        <time>2014-10-24T11:46:53Z</time>
      </trkpt>
      <trkpt lat="44.10998" lon="3.1834">
        <ele>783</ele>
        <time>2014-10-24T11:47:06Z</time>
      </trkpt>
      <trkpt lat="44.10992" lon="3.18317">
        <ele>781</ele>
        <time>2014-10-24T11:47:16Z</time>
      </trkpt>
      <trkpt lat="44.10988" lon="3.18288">
        <ele>773</ele>
        <time>2014-10-24T11:47:31Z</time>
      </trkpt>
      <trkpt lat="44.10978" lon="3.18266">
        <ele>773</ele>
        <time>2014-10-24T11:47:45Z</time>
      </trkpt>
      <trkpt lat="44.10965" lon="3.18243">
        <ele>772</ele>
        <time>2014-10-24T11:47:58Z</time>
      </trkpt>
      <trkpt lat="44.10965" lon="3.18219">
        <ele>770</ele>
        <time>2014-10-24T11:48:09Z</time>
      </trkpt>
      <trkpt lat="44.10984" lon="3.18206">
        <ele>767.0999936</ele>
        <time>2014-10-24T11:48:21Z</time>
      </trkpt>
      <trkpt lat="44.10983" lon="3.1817">
        <ele>764</ele>
        <time>2014-10-24T11:48:35Z</time>
      </trkpt>
      <trkpt lat="44.10973" lon="3.18135">
        <ele>763</ele>
        <time>2014-10-24T11:48:47Z</time>
      </trkpt>
      <trkpt lat="44.10973" lon="3.18098">
        <ele>763</ele>
        <time>2014-10-24T11:49:00Z</time>
      </trkpt>
      <trkpt lat="44.10972" lon="3.18061">
        <ele>756</ele>
        <time>2014-10-24T11:49:12Z</time>
      </trkpt>
      <trkpt lat="44.10965" lon="3.18028">
        <ele>753</ele>
        <time>2014-10-24T11:49:24Z</time>
      </trkpt>
      <trkpt lat="44.1098" lon="3.17992">
        <ele>748.0499968</ele>
        <time>2014-10-24T11:49:36Z</time>
      </trkpt>
      <trkpt lat="44.11002" lon="3.17967">
        <ele>745</ele>
        <time>2014-10-24T11:49:48Z</time>
      </trkpt>
      <trkpt lat="44.11022" lon="3.17958">
        <ele>745</ele>
        <time>2014-10-24T11:49:58Z</time>
      </trkpt>
      <trkpt lat="44.11043" lon="3.17945">
        <ele>745</ele>
        <time>2014-10-24T11:50:10Z</time>
      </trkpt>
      <trkpt lat="44.11045" lon="3.17921">
        <ele>746</ele>
        <time>2014-10-24T11:50:22Z</time>
      </trkpt>
      <trkpt lat="44.11017" lon="3.17907">
        <ele>745</ele>
        <time>2014-10-24T11:50:35Z</time>
      </trkpt>
      <trkpt lat="44.10994" lon="3.17886">
        <ele>743</ele>
        <time>2014-10-24T11:50:48Z</time>
      </trkpt>
      <trkpt lat="44.10975" lon="3.1786">
        <ele>742.9500032</ele>
        <time>2014-10-24T11:51:01Z</time>
      </trkpt>
      <trkpt lat="44.10957" lon="3.17834">
        <ele>742</ele>
        <time>2014-10-24T11:51:13Z</time>
      </trkpt>
      <trkpt lat="44.10945" lon="3.17812">
        <ele>741</ele>
        <time>2014-10-24T11:51:23Z</time>
      </trkpt>
      <trkpt lat="44.10934" lon="3.17793">
        <ele>742</ele>
        <time>2014-10-24T11:51:33Z</time>
      </trkpt>
      <trkpt lat="44.1092" lon="3.1778">
        <ele>742</ele>
        <time>2014-10-24T11:51:43Z</time>
      </trkpt>
      <trkpt lat="44.10905" lon="3.17772">
        <ele>742</ele>
        <time>2014-10-24T11:51:53Z</time>
      </trkpt>
      <trkpt lat="44.10887" lon="3.1777">
        <ele>744</ele>
        <time>2014-10-24T11:52:03Z</time>
      </trkpt>
      <trkpt lat="44.10884" lon="3.17747">
        <ele>744</ele>
        <time>2014-10-24T11:52:14Z</time>
      </trkpt>
      <trkpt lat="44.10884" lon="3.17722">
        <ele>745</ele>
        <time>2014-10-24T11:52:27Z</time>
      </trkpt>
      <trkpt lat="44.10887" lon="3.1769">
        <ele>745</ele>
        <time>2014-10-24T11:52:38Z</time>
      </trkpt>
      <trkpt lat="44.10894" lon="3.17652">
        <ele>743</ele>
        <time>2014-10-24T11:52:50Z</time>
      </trkpt>
      <trkpt lat="44.1091" lon="3.17627">
        <ele>742</ele>
        <time>2014-10-24T11:53:00Z</time>
      </trkpt>
      <trkpt lat="44.10935" lon="3.17612">
        <ele>739</ele>
        <time>2014-10-24T11:53:13Z</time>
      </trkpt>
      <trkpt lat="44.10955" lon="3.176">
        <ele>738</ele>
        <time>2014-10-24T11:53:24Z</time>
      </trkpt>
      <trkpt lat="44.10974" lon="3.17591">
        <ele>733.0999936</ele>
        <time>2014-10-24T11:53:36Z</time>
      </trkpt>
      <trkpt lat="44.10993" lon="3.17572">
        <ele>727.1499904</ele>
        <time>2014-10-24T11:53:51Z</time>
      </trkpt>
      <trkpt lat="44.11012" lon="3.17554">
        <ele>722</ele>
        <time>2014-10-24T11:54:03Z</time>
      </trkpt>
      <trkpt lat="44.11024" lon="3.17542">
        <ele>718</ele>
        <time>2014-10-24T11:54:13Z</time>
      </trkpt>
      <trkpt lat="44.11031" lon="3.1752">
        <ele>715</ele>
        <time>2014-10-24T11:54:25Z</time>
      </trkpt>
      <trkpt lat="44.11036" lon="3.17496">
        <ele>706</ele>
        <time>2014-10-24T11:54:38Z</time>
      </trkpt>
      <trkpt lat="44.11041" lon="3.17466">
        <ele>700</ele>
        <time>2014-10-24T11:54:51Z</time>
      </trkpt>
      <trkpt lat="44.11049" lon="3.17444">
        <ele>696</ele>
        <time>2014-10-24T11:55:02Z</time>
      </trkpt>
      <trkpt lat="44.11046" lon="3.17431">
        <ele>694</ele>
        <time>2014-10-24T11:55:14Z</time>
      </trkpt>
      <trkpt lat="44.11036" lon="3.17423">
        <ele>691</ele>
        <time>2014-10-24T11:55:24Z</time>
      </trkpt>
      <trkpt lat="44.11038" lon="3.17392">
        <ele>682.0499968</ele>
        <time>2014-10-24T11:55:36Z</time>
      </trkpt>
      <trkpt lat="44.11043" lon="3.17375">
        <ele>681.0499968</ele>
        <time>2014-10-24T11:55:46Z</time>
      </trkpt>
      <trkpt lat="44.11042" lon="3.17358">
        <ele>680</ele>
        <time>2014-10-24T11:55:57Z</time>
      </trkpt>
      <trkpt lat="44.1105" lon="3.17338">
        <ele>676</ele>
        <time>2014-10-24T11:56:09Z</time>
      </trkpt>
      <trkpt lat="44.11055" lon="3.17327">
        <ele>672</ele>
        <time>2014-10-24T11:56:22Z</time>
      </trkpt>
      <trkpt lat="44.1105" lon="3.17318">
        <ele>665</ele>
        <time>2014-10-24T11:56:38Z</time>
      </trkpt>
      <trkpt lat="44.11038" lon="3.17315">
        <ele>662</ele>
        <time>2014-10-24T11:56:48Z</time>
      </trkpt>
      <trkpt lat="44.11027" lon="3.1731">
        <ele>662</ele>
        <time>2014-10-24T11:57:00Z</time>
      </trkpt>
      <trkpt lat="44.11029" lon="3.1729">
        <ele>661</ele>
        <time>2014-10-24T11:57:13Z</time>
      </trkpt>
      <trkpt lat="44.11024" lon="3.17277">
        <ele>660</ele>
        <time>2014-10-24T11:57:25Z</time>
      </trkpt>
      <trkpt lat="44.11026" lon="3.17261">
        <ele>653</ele>
        <time>2014-10-24T11:57:38Z</time>
      </trkpt>
      <trkpt lat="44.11031" lon="3.17238">
        <ele>646.0499968</ele>
        <time>2014-10-24T11:57:51Z</time>
      </trkpt>
      <trkpt lat="44.11041" lon="3.17228">
        <ele>643</ele>
        <time>2014-10-24T11:58:04Z</time>
      </trkpt>
      <trkpt lat="44.11042" lon="3.17204">
        <ele>642</ele>
        <time>2014-10-24T11:58:18Z</time>
      </trkpt>
      <trkpt lat="44.11046" lon="3.17182">
        <ele>637</ele>
        <time>2014-10-24T11:58:28Z</time>
      </trkpt>
      <trkpt lat="44.11047" lon="3.17159">
        <ele>637</ele>
        <time>2014-10-24T11:58:40Z</time>
      </trkpt>
      <trkpt lat="44.11048" lon="3.17146">
        <ele>632</ele>
        <time>2014-10-24T11:58:50Z</time>
      </trkpt>
      <trkpt lat="44.11035" lon="3.17133">
        <ele>626</ele>
        <time>2014-10-24T11:59:09Z</time>
      </trkpt>
      <trkpt lat="44.11022" lon="3.17146">
        <ele>622</ele>
        <time>2014-10-24T11:59:23Z</time>
      </trkpt>
      <trkpt lat="44.11017" lon="3.17175">
        <ele>621</ele>
        <time>2014-10-24T11:59:39Z</time>
      </trkpt>
      <trkpt lat="44.11005" lon="3.17196">
        <ele>619</ele>
        <time>2014-10-24T11:59:52Z</time>
      </trkpt>
      <trkpt lat="44.10988" lon="3.17213">
        <ele>615</ele>
        <time>2014-10-24T12:00:03Z</time>
      </trkpt>
      <trkpt lat="44.10977" lon="3.17239">
        <ele>614</ele>
        <time>2014-10-24T12:00:15Z</time>
      </trkpt>
      <trkpt lat="44.10963" lon="3.17263">
        <ele>613</ele>
        <time>2014-10-24T12:00:28Z</time>
      </trkpt>
      <trkpt lat="44.10943" lon="3.17254">
        <ele>609</ele>
        <time>2014-10-24T12:00:42Z</time>
      </trkpt>
      <trkpt lat="44.10924" lon="3.1724">
        <ele>608</ele>
        <time>2014-10-24T12:00:55Z</time>
      </trkpt>
      <trkpt lat="44.10902" lon="3.17229">
        <ele>606</ele>
        <time>2014-10-24T12:01:07Z</time>
      </trkpt>
      <trkpt lat="44.10881" lon="3.17221">
        <ele>606</ele>
        <time>2014-10-24T12:01:18Z</time>
      </trkpt>
      <trkpt lat="44.10864" lon="3.17205">
        <ele>602</ele>
        <time>2014-10-24T12:01:34Z</time>
      </trkpt>
      <trkpt lat="44.10844" lon="3.17198">
        <ele>601</ele>
        <time>2014-10-24T12:01:48Z</time>
      </trkpt>
      <trkpt lat="44.10824" lon="3.17203">
        <ele>597</ele>
        <time>2014-10-24T12:02:02Z</time>
      </trkpt>
      <trkpt lat="44.10803" lon="3.17209">
        <ele>597</ele>
        <time>2014-10-24T12:02:18Z</time>
      </trkpt>
      <trkpt lat="44.10789" lon="3.17233">
        <ele>594</ele>
        <time>2014-10-24T12:02:33Z</time>
      </trkpt>
      <trkpt lat="44.10777" lon="3.17258">
        <ele>594</ele>
        <time>2014-10-24T12:02:48Z</time>
      </trkpt>
      <trkpt lat="44.1076" lon="3.1727">
        <ele>592.0999936</ele>
        <time>2014-10-24T12:03:01Z</time>
      </trkpt>
      <trkpt lat="44.10741" lon="3.17267">
        <ele>592</ele>
        <time>2014-10-24T12:03:15Z</time>
      </trkpt>
      <trkpt lat="44.10721" lon="3.17254">
        <ele>594</ele>
        <time>2014-10-24T12:03:30Z</time>
      </trkpt>
      <trkpt lat="44.10712" lon="3.1725">
        <ele>594</ele>
        <time>2014-10-24T12:03:41Z</time>
      </trkpt>
      <trkpt lat="44.10693" lon="3.17235">
        <ele>592</ele>
        <time>2014-10-24T12:03:54Z</time>
      </trkpt>
      <trkpt lat="44.10672" lon="3.1723">
        <ele>594</ele>
        <time>2014-10-24T12:04:10Z</time>
      </trkpt>
      <trkpt lat="44.10653" lon="3.1724">
        <ele>592</ele>
        <time>2014-10-24T12:04:23Z</time>
      </trkpt>
      <trkpt lat="44.10636" lon="3.17256">
        <ele>591</ele>
        <time>2014-10-24T12:04:35Z</time>
      </trkpt>
      <trkpt lat="44.10619" lon="3.17273">
        <ele>590</ele>
        <time>2014-10-24T12:04:47Z</time>
      </trkpt>
      <trkpt lat="44.10599" lon="3.17281">
        <ele>589.9500032</ele>
        <time>2014-10-24T12:05:01Z</time>
      </trkpt>
      <trkpt lat="44.10582" lon="3.17297">
        <ele>592</ele>
        <time>2014-10-24T12:05:20Z</time>
      </trkpt>
      <trkpt lat="44.10574" lon="3.17305">
        <ele>593</ele>
        <time>2014-10-24T12:05:31Z</time>
      </trkpt>
      <trkpt lat="44.10563" lon="3.17329">
        <ele>593</ele>
        <time>2014-10-24T12:05:45Z</time>
      </trkpt>
      <trkpt lat="44.10559" lon="3.17359">
        <ele>593</ele>
        <time>2014-10-24T12:06:00Z</time>
      </trkpt>
      <trkpt lat="44.10542" lon="3.1738">
        <ele>591</ele>
        <time>2014-10-24T12:06:14Z</time>
      </trkpt>
      <trkpt lat="44.10521" lon="3.17392">
        <ele>589</ele>
        <time>2014-10-24T12:06:25Z</time>
      </trkpt>
      <trkpt lat="44.10509" lon="3.17413">
        <ele>585</ele>
        <time>2014-10-24T12:06:38Z</time>
      </trkpt>
      <trkpt lat="44.10496" lon="3.17437">
        <ele>581</ele>
        <time>2014-10-24T12:06:50Z</time>
      </trkpt>
      <trkpt lat="44.10482" lon="3.17461">
        <ele>577</ele>
        <time>2014-10-24T12:07:00Z</time>
      </trkpt>
      <trkpt lat="44.10463" lon="3.17474">
        <ele>576</ele>
        <time>2014-10-24T12:07:10Z</time>
      </trkpt>
      <trkpt lat="44.10444" lon="3.17485">
        <ele>576</ele>
        <time>2014-10-24T12:07:22Z</time>
      </trkpt>
      <trkpt lat="44.10425" lon="3.17499">
        <ele>576</ele>
        <time>2014-10-24T12:07:32Z</time>
      </trkpt>
      <trkpt lat="44.10423" lon="3.17528">
        <ele>573</ele>
        <time>2014-10-24T12:07:44Z</time>
      </trkpt>
      <trkpt lat="44.10426" lon="3.17557">
        <ele>571</ele>
        <time>2014-10-24T12:07:58Z</time>
      </trkpt>
      <trkpt lat="44.10408" lon="3.17564">
        <ele>572</ele>
        <time>2014-10-24T12:08:10Z</time>
      </trkpt>
      <trkpt lat="44.10395" lon="3.1755">
        <ele>574</ele>
        <time>2014-10-24T12:08:23Z</time>
      </trkpt>
      <trkpt lat="44.1038" lon="3.17523">
        <ele>574</ele>
        <time>2014-10-24T12:08:36Z</time>
      </trkpt>
      <trkpt lat="44.10376" lon="3.17485">
        <ele>574</ele>
        <time>2014-10-24T12:08:49Z</time>
      </trkpt>
      <trkpt lat="44.10383" lon="3.17458">
        <ele>574.9399936</ele>
        <time>2014-10-24T12:09:01Z</time>
      </trkpt>
      <trkpt lat="44.10388" lon="3.17431">
        <ele>576</ele>
        <time>2014-10-24T12:09:12Z</time>
      </trkpt>
      <trkpt lat="44.10393" lon="3.17402">
        <ele>576</ele>
        <time>2014-10-24T12:09:24Z</time>
      </trkpt>
      <trkpt lat="44.10397" lon="3.17373">
        <ele>575</ele>
        <time>2014-10-24T12:09:36Z</time>
      </trkpt>
      <trkpt lat="44.1041" lon="3.17347">
        <ele>570.0999936</ele>
        <time>2014-10-24T12:09:46Z</time>
      </trkpt>
      <trkpt lat="44.10409" lon="3.17316">
        <ele>568.0999936</ele>
        <time>2014-10-24T12:09:56Z</time>
      </trkpt>
      <trkpt lat="44.10409" lon="3.17287">
        <ele>566</ele>
        <time>2014-10-24T12:10:06Z</time>
      </trkpt>
      <trkpt lat="44.10393" lon="3.17265">
        <ele>566</ele>
        <time>2014-10-24T12:10:16Z</time>
      </trkpt>
      <trkpt lat="44.104" lon="3.17237">
        <ele>564</ele>
        <time>2014-10-24T12:10:26Z</time>
      </trkpt>
      <trkpt lat="44.10406" lon="3.1721">
        <ele>563</ele>
        <time>2014-10-24T12:10:36Z</time>
      </trkpt>
      <trkpt lat="44.10405" lon="3.17181">
        <ele>561</ele>
        <time>2014-10-24T12:10:48Z</time>
      </trkpt>
      <trkpt lat="44.10416" lon="3.17155">
        <ele>562</ele>
        <time>2014-10-24T12:11:00Z</time>
      </trkpt>
      <trkpt lat="44.10425" lon="3.17127">
        <ele>560.0499968</ele>
        <time>2014-10-24T12:11:11Z</time>
      </trkpt>
      <trkpt lat="44.10438" lon="3.17103">
        <ele>558.0999936</ele>
        <time>2014-10-24T12:11:21Z</time>
      </trkpt>
      <trkpt lat="44.10443" lon="3.17115">
        <ele>555.1499904</ele>
        <time>2014-10-24T12:11:31Z</time>
      </trkpt>
      <trkpt lat="44.10434" lon="3.17144">
        <ele>551.0499968</ele>
        <time>2014-10-24T12:11:41Z</time>
      </trkpt>
      <trkpt lat="44.10428" lon="3.17173">
        <ele>549.05939979216</ele>
        <time>2014-10-24T12:11:51Z</time>
      </trkpt>
      <trkpt lat="44.10427" lon="3.172">
        <ele>543.1499904</ele>
        <time>2014-10-24T12:12:01Z</time>
      </trkpt>
      <trkpt lat="44.10438" lon="3.1723">
        <ele>541.9500032</ele>
        <time>2014-10-24T12:12:11Z</time>
      </trkpt>
      <trkpt lat="44.10445" lon="3.17259">
        <ele>541</ele>
        <time>2014-10-24T12:12:22Z</time>
      </trkpt>
      <trkpt lat="44.10449" lon="3.17291">
        <ele>540</ele>
        <time>2014-10-24T12:12:32Z</time>
      </trkpt>
      <trkpt lat="44.10453" lon="3.17334">
        <ele>539</ele>
        <time>2014-10-24T12:12:46Z</time>
      </trkpt>
      <trkpt lat="44.10444" lon="3.17365">
        <ele>536.0499968</ele>
        <time>2014-10-24T12:12:56Z</time>
      </trkpt>
      <trkpt lat="44.10443" lon="3.17396">
        <ele>533.0499968</ele>
        <time>2014-10-24T12:13:06Z</time>
      </trkpt>
      <trkpt lat="44.10443" lon="3.1738">
        <ele>530</ele>
        <time>2014-10-24T12:13:18Z</time>
      </trkpt>
      <trkpt lat="44.10454" lon="3.17356">
        <ele>526</ele>
        <time>2014-10-24T12:13:28Z</time>
      </trkpt>
      <trkpt lat="44.10471" lon="3.17316">
        <ele>520</ele>
        <time>2014-10-24T12:13:42Z</time>
      </trkpt>
      <trkpt lat="44.10471" lon="3.17287">
        <ele>516</ele>
        <time>2014-10-24T12:13:52Z</time>
      </trkpt>
      <trkpt lat="44.10472" lon="3.17256">
        <ele>511</ele>
        <time>2014-10-24T12:14:02Z</time>
      </trkpt>
      <trkpt lat="44.10482" lon="3.17227">
        <ele>508</ele>
        <time>2014-10-24T12:14:13Z</time>
      </trkpt>
      <trkpt lat="44.10492" lon="3.17198">
        <ele>504</ele>
        <time>2014-10-24T12:14:23Z</time>
      </trkpt>
      <trkpt lat="44.10501" lon="3.17169">
        <ele>501</ele>
        <time>2014-10-24T12:14:33Z</time>
      </trkpt>
      <trkpt lat="44.1052" lon="3.17147">
        <ele>497</ele>
        <time>2014-10-24T12:14:43Z</time>
      </trkpt>
      <trkpt lat="44.10543" lon="3.17128">
        <ele>494</ele>
        <time>2014-10-24T12:14:54Z</time>
      </trkpt>
      <trkpt lat="44.10563" lon="3.17108">
        <ele>487</ele>
        <time>2014-10-24T12:15:05Z</time>
      </trkpt>
      <trkpt lat="44.10579" lon="3.17084">
        <ele>484.0499968</ele>
        <time>2014-10-24T12:15:16Z</time>
      </trkpt>
      <trkpt lat="44.10591" lon="3.17057">
        <ele>480.0999936</ele>
        <time>2014-10-24T12:15:26Z</time>
      </trkpt>
      <trkpt lat="44.10604" lon="3.17016">
        <ele>477</ele>
        <time>2014-10-24T12:15:40Z</time>
      </trkpt>
      <trkpt lat="44.10622" lon="3.17001">
        <ele>474</ele>
        <time>2014-10-24T12:15:50Z</time>
      </trkpt>
      <trkpt lat="44.10649" lon="3.16998">
        <ele>468</ele>
        <time>2014-10-24T12:16:02Z</time>
      </trkpt>
      <trkpt lat="44.10671" lon="3.16993">
        <ele>465</ele>
        <time>2014-10-24T12:16:12Z</time>
      </trkpt>
      <trkpt lat="44.107" lon="3.16983">
        <ele>462</ele>
        <time>2014-10-24T12:16:25Z</time>
      </trkpt>
      <trkpt lat="44.10721" lon="3.16974">
        <ele>456.1400064</ele>
        <time>2014-10-24T12:16:36Z</time>
      </trkpt>
      <trkpt lat="44.10743" lon="3.16965">
        <ele>454.0999936</ele>
        <time>2014-10-24T12:16:46Z</time>
      </trkpt>
      <trkpt lat="44.10775" lon="3.16952">
        <ele>451</ele>
        <time>2014-10-24T12:16:59Z</time>
      </trkpt>
      <trkpt lat="44.10802" lon="3.16931">
        <ele>448</ele>
        <time>2014-10-24T12:17:12Z</time>
      </trkpt>
      <trkpt lat="44.10813" lon="3.16907">
        <ele>445</ele>
        <time>2014-10-24T12:17:22Z</time>
      </trkpt>
      <trkpt lat="44.10811" lon="3.16876">
        <ele>443</ele>
        <time>2014-10-24T12:17:33Z</time>
      </trkpt>
      <trkpt lat="44.10808" lon="3.16831">
        <ele>437.10100330989</ele>
        <time>2014-10-24T12:17:46Z</time>
      </trkpt>
      <trkpt lat="44.10802" lon="3.16805">
        <ele>435</ele>
        <time>2014-10-24T12:17:57Z</time>
      </trkpt>
      <trkpt lat="44.10791" lon="3.16782">
        <ele>432</ele>
        <time>2014-10-24T12:18:07Z</time>
      </trkpt>
      <trkpt lat="44.10794" lon="3.16743">
        <ele>429</ele>
        <time>2014-10-24T12:18:19Z</time>
      </trkpt>
      <trkpt lat="44.10826" lon="3.1673">
        <ele>425</ele>
        <time>2014-10-24T12:18:32Z</time>
      </trkpt>
      <trkpt lat="44.10855" lon="3.1671">
        <ele>422</ele>
        <time>2014-10-24T12:18:44Z</time>
      </trkpt>
      <trkpt lat="44.10866" lon="3.16684">
        <ele>418</ele>
        <time>2014-10-24T12:18:54Z</time>
      </trkpt>
      <trkpt lat="44.10847" lon="3.16651">
        <ele>413</ele>
        <time>2014-10-24T12:19:07Z</time>
      </trkpt>
      <trkpt lat="44.10845" lon="3.16608">
        <ele>413</ele>
        <time>2014-10-24T12:19:20Z</time>
      </trkpt>
      <trkpt lat="44.1086" lon="3.16586">
        <ele>407</ele>
        <time>2014-10-24T12:19:31Z</time>
      </trkpt>
      <trkpt lat="44.10881" lon="3.1658">
        <ele>403.0499968</ele>
        <time>2014-10-24T12:19:41Z</time>
      </trkpt>
      <trkpt lat="44.10891" lon="3.16555">
        <ele>401.0499968</ele>
        <time>2014-10-24T12:19:51Z</time>
      </trkpt>
      <trkpt lat="44.10908" lon="3.16546">
        <ele>401</ele>
        <time>2014-10-24T12:20:03Z</time>
      </trkpt>
      <trkpt lat="44.1094" lon="3.16552">
        <ele>401</ele>
        <time>2014-10-24T12:20:16Z</time>
      </trkpt>
      <trkpt lat="44.10957" lon="3.16531">
        <ele>401</ele>
        <time>2014-10-24T12:20:29Z</time>
      </trkpt>
      <trkpt lat="44.10932" lon="3.16513">
        <ele>401</ele>
        <time>2014-10-24T12:20:44Z</time>
      </trkpt>
      <trkpt lat="44.10927" lon="3.16488">
        <ele>401</ele>
        <time>2014-10-24T12:20:58Z</time>
      </trkpt>
      <trkpt lat="44.10932" lon="3.16457">
        <ele>401</ele>
        <time>2014-10-24T12:21:09Z</time>
      </trkpt>
      <trkpt lat="44.10922" lon="3.16431">
        <ele>401</ele>
        <time>2014-10-24T12:21:20Z</time>
      </trkpt>
      <trkpt lat="44.10905" lon="3.16394">
        <ele>401</ele>
        <time>2014-10-24T12:21:34Z</time>
      </trkpt>
      <trkpt lat="44.10891" lon="3.16368">
        <ele>401</ele>
        <time>2014-10-24T12:21:45Z</time>
      </trkpt>
      <trkpt lat="44.10881" lon="3.16344">
        <ele>401</ele>
        <time>2014-10-24T12:21:55Z</time>
      </trkpt>
      <trkpt lat="44.10866" lon="3.16321">
        <ele>401</ele>
        <time>2014-10-24T12:22:08Z</time>
      </trkpt>
      <trkpt lat="44.10852" lon="3.16298">
        <ele>401</ele>
        <time>2014-10-24T12:22:19Z</time>
      </trkpt>
      <trkpt lat="44.10837" lon="3.16279">
        <ele>401</ele>
        <time>2014-10-24T12:22:29Z</time>
      </trkpt>
      <trkpt lat="44.10825" lon="3.16253">
        <ele>401</ele>
        <time>2014-10-24T12:22:40Z</time>
      </trkpt>
      <trkpt lat="44.10812" lon="3.1623">
        <ele>401</ele>
        <time>2014-10-24T12:22:50Z</time>
      </trkpt>
      <trkpt lat="44.10798" lon="3.16209">
        <ele>401</ele>
        <time>2014-10-24T12:23:00Z</time>
      </trkpt>
      <trkpt lat="44.10787" lon="3.16182">
        <ele>400</ele>
        <time>2014-10-24T12:23:11Z</time>
      </trkpt>
      <trkpt lat="44.10773" lon="3.16159">
        <ele>400</ele>
        <time>2014-10-24T12:23:21Z</time>
      </trkpt>
      <trkpt lat="44.1076" lon="3.16136">
        <ele>402</ele>
        <time>2014-10-24T12:23:39Z</time>
      </trkpt>
      <trkpt lat="44.10746" lon="3.16115">
        <ele>405</ele>
        <time>2014-10-24T12:23:56Z</time>
      </trkpt>
      <trkpt lat="44.10733" lon="3.16091">
        <ele>406</ele>
        <time>2014-10-24T12:24:14Z</time>
      </trkpt>
      <trkpt lat="44.10719" lon="3.16068">
        <ele>408</ele>
        <time>2014-10-24T12:24:32Z</time>
      </trkpt>
      <trkpt lat="44.1071" lon="3.16042">
        <ele>408</ele>
        <time>2014-10-24T12:24:46Z</time>
      </trkpt>
      <trkpt lat="44.10699" lon="3.16018">
        <ele>410.9500032</ele>
        <time>2014-10-24T12:25:01Z</time>
      </trkpt>
      <trkpt lat="44.10689" lon="3.15992">
        <ele>410</ele>
        <time>2014-10-24T12:25:12Z</time>
      </trkpt>
      <trkpt lat="44.10679" lon="3.15966">
        <ele>411</ele>
        <time>2014-10-24T12:25:23Z</time>
      </trkpt>
      <trkpt lat="44.10664" lon="3.15945">
        <ele>412</ele>
        <time>2014-10-24T12:25:35Z</time>
      </trkpt>
      <trkpt lat="44.10644" lon="3.1594">
        <ele>412</ele>
        <time>2014-10-24T12:25:45Z</time>
      </trkpt>
      <trkpt lat="44.10624" lon="3.15938">
        <ele>412</ele>
        <time>2014-10-24T12:25:57Z</time>
      </trkpt>
      <trkpt lat="44.10601" lon="3.15932">
        <ele>413</ele>
        <time>2014-10-24T12:26:08Z</time>
      </trkpt>
      <trkpt lat="44.10581" lon="3.15935">
        <ele>413</ele>
        <time>2014-10-24T12:26:20Z</time>
      </trkpt>
      <trkpt lat="44.10561" lon="3.15935">
        <ele>413</ele>
        <time>2014-10-24T12:26:33Z</time>
      </trkpt>
      <trkpt lat="44.10539" lon="3.15927">
        <ele>409</ele>
        <time>2014-10-24T12:26:43Z</time>
      </trkpt>
      <trkpt lat="44.10518" lon="3.15897">
        <ele>403.0999936</ele>
        <time>2014-10-24T12:26:56Z</time>
      </trkpt>
      <trkpt lat="44.10527" lon="3.15877">
        <ele>401</ele>
        <time>2014-10-24T12:27:07Z</time>
      </trkpt>
      <trkpt lat="44.10548" lon="3.15874">
        <ele>401</ele>
        <time>2014-10-24T12:27:17Z</time>
      </trkpt>
      <trkpt lat="44.10568" lon="3.15859">
        <ele>399</ele>
        <time>2014-10-24T12:27:28Z</time>
      </trkpt>
      <trkpt lat="44.10587" lon="3.15846">
        <ele>399</ele>
        <time>2014-10-24T12:27:40Z</time>
      </trkpt>
      <trkpt lat="44.10609" lon="3.15842">
        <ele>400.9500032</ele>
        <time>2014-10-24T12:27:51Z</time>
      </trkpt>
      <trkpt lat="44.10629" lon="3.15837">
        <ele>402</ele>
        <time>2014-10-24T12:28:02Z</time>
      </trkpt>
      <trkpt lat="44.10647" lon="3.15829">
        <ele>402</ele>
        <time>2014-10-24T12:28:12Z</time>
      </trkpt>
      <trkpt lat="44.10665" lon="3.15816">
        <ele>402</ele>
        <time>2014-10-24T12:28:23Z</time>
      </trkpt>
      <trkpt lat="44.10677" lon="3.15792">
        <ele>402</ele>
        <time>2014-10-24T12:28:35Z</time>
      </trkpt>
      <trkpt lat="44.10689" lon="3.15755">
        <ele>402</ele>
        <time>2014-10-24T12:28:49Z</time>
      </trkpt>
      <trkpt lat="44.10696" lon="3.15725">
        <ele>399</ele>
        <time>2014-10-24T12:29:03Z</time>
      </trkpt>
      <trkpt lat="44.10702" lon="3.15697">
        <ele>399</ele>
        <time>2014-10-24T12:29:13Z</time>
      </trkpt>
      <trkpt lat="44.10705" lon="3.15667">
        <ele>398</ele>
        <time>2014-10-24T12:29:26Z</time>
      </trkpt>
      <trkpt lat="44.10703" lon="3.15638">
        <ele>398</ele>
        <time>2014-10-24T12:29:38Z</time>
      </trkpt>
      <trkpt lat="44.10701" lon="3.15607">
        <ele>397</ele>
        <time>2014-10-24T12:29:49Z</time>
      </trkpt>
      <trkpt lat="44.10691" lon="3.15581">
        <ele>399</ele>
        <time>2014-10-24T12:30:03Z</time>
      </trkpt>
      <trkpt lat="44.10682" lon="3.15554">
        <ele>399</ele>
        <time>2014-10-24T12:30:18Z</time>
      </trkpt>
      <trkpt lat="44.10671" lon="3.15527">
        <ele>398</ele>
        <time>2014-10-24T12:30:32Z</time>
      </trkpt>
      <trkpt lat="44.10659" lon="3.15504">
        <ele>398</ele>
        <time>2014-10-24T12:30:42Z</time>
      </trkpt>
      <trkpt lat="44.10649" lon="3.15477">
        <ele>398</ele>
        <time>2014-10-24T12:30:54Z</time>
      </trkpt>
      <trkpt lat="44.10637" lon="3.15451">
        <ele>397</ele>
        <time>2014-10-24T12:31:08Z</time>
      </trkpt>
      <trkpt lat="44.10631" lon="3.15423">
        <ele>398</ele>
        <time>2014-10-24T12:31:23Z</time>
      </trkpt>
      <trkpt lat="44.10619" lon="3.15398">
        <ele>397</ele>
        <time>2014-10-24T12:31:36Z</time>
      </trkpt>
      <trkpt lat="44.10611" lon="3.1537">
        <ele>397</ele>
        <time>2014-10-24T12:31:52Z</time>
      </trkpt>
      <trkpt lat="44.10602" lon="3.15343">
        <ele>396</ele>
        <time>2014-10-24T12:32:04Z</time>
      </trkpt>
      <trkpt lat="44.10591" lon="3.15316">
        <ele>396</ele>
        <time>2014-10-24T12:32:15Z</time>
      </trkpt>
      <trkpt lat="44.1058" lon="3.15294">
        <ele>396</ele>
        <time>2014-10-24T12:32:27Z</time>
      </trkpt>
      <trkpt lat="44.10571" lon="3.15267">
        <ele>396</ele>
        <time>2014-10-24T12:32:40Z</time>
      </trkpt>
      <trkpt lat="44.10561" lon="3.15239">
        <ele>397</ele>
        <time>2014-10-24T12:32:53Z</time>
      </trkpt>
      <trkpt lat="44.10552" lon="3.15212">
        <ele>396</ele>
        <time>2014-10-24T12:33:06Z</time>
      </trkpt>
      <trkpt lat="44.10545" lon="3.15186">
        <ele>395</ele>
        <time>2014-10-24T12:33:22Z</time>
      </trkpt>
      <trkpt lat="44.10535" lon="3.15159">
        <ele>396</ele>
        <time>2014-10-24T12:33:40Z</time>
      </trkpt>
      <trkpt lat="44.10525" lon="3.15132">
        <ele>396</ele>
        <time>2014-10-24T12:33:56Z</time>
      </trkpt>
      <trkpt lat="44.10523" lon="3.15103">
        <ele>396</ele>
        <time>2014-10-24T12:34:09Z</time>
      </trkpt>
      <trkpt lat="44.1052" lon="3.15074">
        <ele>395.0499968</ele>
        <time>2014-10-24T12:34:21Z</time>
      </trkpt>
      <trkpt lat="44.10516" lon="3.15044">
        <ele>395</ele>
        <time>2014-10-24T12:34:34Z</time>
      </trkpt>
      <trkpt lat="44.10514" lon="3.15015">
        <ele>395</ele>
        <time>2014-10-24T12:34:50Z</time>
      </trkpt>
      <trkpt lat="44.10511" lon="3.14986">
        <ele>394</ele>
        <time>2014-10-24T12:35:03Z</time>
      </trkpt>
      <trkpt lat="44.10508" lon="3.14958">
        <ele>395</ele>
        <time>2014-10-24T12:35:15Z</time>
      </trkpt>
      <trkpt lat="44.10507" lon="3.14929">
        <ele>395</ele>
        <time>2014-10-24T12:35:30Z</time>
      </trkpt>
      <trkpt lat="44.10507" lon="3.14897">
        <ele>393</ele>
        <time>2014-10-24T12:35:46Z</time>
      </trkpt>
      <trkpt lat="44.10494" lon="3.14874">
        <ele>394</ele>
        <time>2014-10-24T12:36:09Z</time>
      </trkpt>
      <trkpt lat="44.10496" lon="3.1486">
        <ele>398</ele>
        <time>2014-10-24T12:36:22Z</time>
      </trkpt>
      <trkpt lat="44.105" lon="3.14848">
        <ele>401</ele>
        <time>2014-10-24T12:36:33Z</time>
      </trkpt>
      <trkpt lat="44.10505" lon="3.14834">
        <ele>402</ele>
        <time>2014-10-24T12:36:43Z</time>
      </trkpt>
      <trkpt lat="44.10504" lon="3.14805">
        <ele>402</ele>
        <time>2014-10-24T12:36:58Z</time>
      </trkpt>
      <trkpt lat="44.10511" lon="3.14778">
        <ele>401</ele>
        <time>2014-10-24T12:37:09Z</time>
      </trkpt>
      <trkpt lat="44.10515" lon="3.1475">
        <ele>401</ele>
        <time>2014-10-24T12:37:21Z</time>
      </trkpt>
      <trkpt lat="44.10517" lon="3.14722">
        <ele>402</ele>
        <time>2014-10-24T12:37:35Z</time>
      </trkpt>
      <trkpt lat="44.10521" lon="3.14693">
        <ele>403</ele>
        <time>2014-10-24T12:37:48Z</time>
      </trkpt>
      <trkpt lat="44.10528" lon="3.14664">
        <ele>404</ele>
        <time>2014-10-24T12:38:03Z</time>
      </trkpt>
      <trkpt lat="44.10537" lon="3.14636">
        <ele>404</ele>
        <time>2014-10-24T12:38:17Z</time>
      </trkpt>
      <trkpt lat="44.10548" lon="3.14608">
        <ele>404</ele>
        <time>2014-10-24T12:38:29Z</time>
      </trkpt>
      <trkpt lat="44.10555" lon="3.14581">
        <ele>403</ele>
        <time>2014-10-24T12:38:44Z</time>
      </trkpt>
      <trkpt lat="44.10565" lon="3.14554">
        <ele>404.9500032</ele>
        <time>2014-10-24T12:39:01Z</time>
      </trkpt>
      <trkpt lat="44.10568" lon="3.1453">
        <ele>405</ele>
        <time>2014-10-24T12:39:16Z</time>
      </trkpt>
      <trkpt lat="44.10556" lon="3.1451">
        <ele>402</ele>
        <time>2014-10-24T12:39:28Z</time>
      </trkpt>
      <trkpt lat="44.10553" lon="3.14485">
        <ele>399.0999936</ele>
        <time>2014-10-24T12:39:41Z</time>
      </trkpt>
      <trkpt lat="44.10569" lon="3.14467">
        <ele>398</ele>
        <time>2014-10-24T12:39:54Z</time>
      </trkpt>
      <trkpt lat="44.1059" lon="3.14458">
        <ele>399</ele>
        <time>2014-10-24T12:40:06Z</time>
      </trkpt>
      <trkpt lat="44.10607" lon="3.14444">
        <ele>400.9500032</ele>
        <time>2014-10-24T12:40:21Z</time>
      </trkpt>
      <trkpt lat="44.10614" lon="3.14414">
        <ele>402</ele>
        <time>2014-10-24T12:40:36Z</time>
      </trkpt>
      <trkpt lat="44.10625" lon="3.14388">
        <ele>401</ele>
        <time>2014-10-24T12:40:48Z</time>
      </trkpt>
      <trkpt lat="44.1064" lon="3.14367">
        <ele>400</ele>
        <time>2014-10-24T12:40:58Z</time>
      </trkpt>
      <trkpt lat="44.10652" lon="3.14342">
        <ele>397</ele>
        <time>2014-10-24T12:41:11Z</time>
      </trkpt>
      <trkpt lat="44.10664" lon="3.14318">
        <ele>395</ele>
        <time>2014-10-24T12:41:22Z</time>
      </trkpt>
      <trkpt lat="44.10678" lon="3.14294">
        <ele>392</ele>
        <time>2014-10-24T12:41:33Z</time>
      </trkpt>
      <trkpt lat="44.10688" lon="3.14268">
        <ele>391</ele>
        <time>2014-10-24T12:41:44Z</time>
      </trkpt>
      <trkpt lat="44.10694" lon="3.14241">
        <ele>392</ele>
        <time>2014-10-24T12:41:56Z</time>
      </trkpt>
      <trkpt lat="44.10704" lon="3.14213">
        <ele>394</ele>
        <time>2014-10-24T12:42:07Z</time>
      </trkpt>
      <trkpt lat="44.10708" lon="3.14183">
        <ele>395</ele>
        <time>2014-10-24T12:42:20Z</time>
      </trkpt>
      <trkpt lat="44.10714" lon="3.14155">
        <ele>394</ele>
        <time>2014-10-24T12:42:34Z</time>
      </trkpt>
      <trkpt lat="44.10718" lon="3.14125">
        <ele>394</ele>
        <time>2014-10-24T12:42:45Z</time>
      </trkpt>
      <trkpt lat="44.1072" lon="3.14095">
        <ele>394</ele>
        <time>2014-10-24T12:42:56Z</time>
      </trkpt>
      <trkpt lat="44.10717" lon="3.14064">
        <ele>393</ele>
        <time>2014-10-24T12:43:08Z</time>
      </trkpt>
      <trkpt lat="44.10712" lon="3.14034">
        <ele>392.0499968</ele>
        <time>2014-10-24T12:43:21Z</time>
      </trkpt>
      <trkpt lat="44.10707" lon="3.14021">
        <ele>392.9500032</ele>
        <time>2014-10-24T12:43:31Z</time>
      </trkpt>
      <trkpt lat="44.10701" lon="3.14009">
        <ele>393</ele>
        <time>2014-10-24T12:43:41Z</time>
      </trkpt>
      <trkpt lat="44.10691" lon="3.13982">
        <ele>392</ele>
        <time>2014-10-24T12:43:58Z</time>
      </trkpt>
      <trkpt lat="44.10682" lon="3.13956">
        <ele>395</ele>
        <time>2014-10-24T12:44:17Z</time>
      </trkpt>
      <trkpt lat="44.10669" lon="3.13935">
        <ele>393</ele>
        <time>2014-10-24T12:44:33Z</time>
      </trkpt>
      <trkpt lat="44.10666" lon="3.13919">
        <ele>394</ele>
        <time>2014-10-24T12:44:43Z</time>
      </trkpt>
      <trkpt lat="44.10671" lon="3.13891">
        <ele>394</ele>
        <time>2014-10-24T12:44:58Z</time>
      </trkpt>
      <trkpt lat="44.10684" lon="3.13867">
        <ele>394</ele>
        <time>2014-10-24T12:45:12Z</time>
      </trkpt>
      <trkpt lat="44.10681" lon="3.13853">
        <ele>395</ele>
        <time>2014-10-24T12:45:26Z</time>
      </trkpt>
      <trkpt lat="44.10674" lon="3.13844">
        <ele>399</ele>
        <time>2014-10-24T12:45:49Z</time>
      </trkpt>
      <trkpt lat="44.10672" lon="3.1383">
        <ele>402</ele>
        <time>2014-10-24T12:46:04Z</time>
      </trkpt>
      <trkpt lat="44.10671" lon="3.13816">
        <ele>404</ele>
        <time>2014-10-24T12:46:16Z</time>
      </trkpt>
      <trkpt lat="44.10667" lon="3.13803">
        <ele>405</ele>
        <time>2014-10-24T12:46:28Z</time>
      </trkpt>
      <trkpt lat="44.10662" lon="3.13791">
        <ele>409</ele>
        <time>2014-10-24T12:46:47Z</time>
      </trkpt>
      <trkpt lat="44.10659" lon="3.13778">
        <ele>414</ele>
        <time>2014-10-24T12:47:07Z</time>
      </trkpt>
      <trkpt lat="44.10657" lon="3.13764">
        <ele>417</ele>
        <time>2014-10-24T12:47:27Z</time>
      </trkpt>
      <trkpt lat="44.10656" lon="3.1375">
        <ele>418.9500032</ele>
        <time>2014-10-24T12:47:41Z</time>
      </trkpt>
      <trkpt lat="44.10654" lon="3.13736">
        <ele>421</ele>
        <time>2014-10-24T12:47:54Z</time>
      </trkpt>
      <trkpt lat="44.10652" lon="3.13722">
        <ele>425</ele>
        <time>2014-10-24T12:48:12Z</time>
      </trkpt>
      <trkpt lat="44.10651" lon="3.13708">
        <ele>426</ele>
        <time>2014-10-24T12:48:25Z</time>
      </trkpt>
      <trkpt lat="44.10658" lon="3.1368">
        <ele>426</ele>
        <time>2014-10-24T12:48:43Z</time>
      </trkpt>
      <trkpt lat="44.10672" lon="3.13657">
        <ele>424</ele>
        <time>2014-10-24T12:49:02Z</time>
      </trkpt>
      <trkpt lat="44.10682" lon="3.13631">
        <ele>422</ele>
        <time>2014-10-24T12:49:20Z</time>
      </trkpt>
      <trkpt lat="44.10695" lon="3.13611">
        <ele>424</ele>
        <time>2014-10-24T12:49:34Z</time>
      </trkpt>
      <trkpt lat="44.10709" lon="3.13587">
        <ele>423</ele>
        <time>2014-10-24T12:49:49Z</time>
      </trkpt>
      <trkpt lat="44.10721" lon="3.13562">
        <ele>422</ele>
        <time>2014-10-24T12:50:05Z</time>
      </trkpt>
      <trkpt lat="44.10733" lon="3.13539">
        <ele>422</ele>
        <time>2014-10-24T12:50:23Z</time>
      </trkpt>
      <trkpt lat="44.10748" lon="3.13519">
        <ele>422</ele>
        <time>2014-10-24T12:50:35Z</time>
      </trkpt>
      <trkpt lat="44.10758" lon="3.13495">
        <ele>421</ele>
        <time>2014-10-24T12:50:45Z</time>
      </trkpt>
      <trkpt lat="44.10768" lon="3.1347">
        <ele>423</ele>
        <time>2014-10-24T12:50:56Z</time>
      </trkpt>
      <trkpt lat="44.10778" lon="3.13443">
        <ele>422</ele>
        <time>2014-10-24T12:51:08Z</time>
      </trkpt>
      <trkpt lat="44.10781" lon="3.13413">
        <ele>423</ele>
        <time>2014-10-24T12:51:20Z</time>
      </trkpt>
      <trkpt lat="44.10784" lon="3.13383">
        <ele>422</ele>
        <time>2014-10-24T12:51:32Z</time>
      </trkpt>
      <trkpt lat="44.10779" lon="3.13354">
        <ele>422</ele>
        <time>2014-10-24T12:51:47Z</time>
      </trkpt>
      <trkpt lat="44.10772" lon="3.13326">
        <ele>422</ele>
        <time>2014-10-24T12:52:03Z</time>
      </trkpt>
      <trkpt lat="44.10761" lon="3.13299">
        <ele>422</ele>
        <time>2014-10-24T12:52:16Z</time>
      </trkpt>
      <trkpt lat="44.10749" lon="3.13275">
        <ele>422</ele>
        <time>2014-10-24T12:52:27Z</time>
      </trkpt>
      <trkpt lat="44.10734" lon="3.13252">
        <ele>421</ele>
        <time>2014-10-24T12:52:45Z</time>
      </trkpt>
      <trkpt lat="44.10717" lon="3.13233">
        <ele>422</ele>
        <time>2014-10-24T12:52:56Z</time>
      </trkpt>
      <trkpt lat="44.10701" lon="3.13214">
        <ele>423</ele>
        <time>2014-10-24T12:53:07Z</time>
      </trkpt>
      <trkpt lat="44.10684" lon="3.13196">
        <ele>421</ele>
        <time>2014-10-24T12:53:19Z</time>
      </trkpt>
      <trkpt lat="44.10661" lon="3.1319">
        <ele>414</ele>
        <time>2014-10-24T12:53:30Z</time>
      </trkpt>
      <trkpt lat="44.10641" lon="3.13179">
        <ele>413</ele>
        <time>2014-10-24T12:53:42Z</time>
      </trkpt>
      <trkpt lat="44.10621" lon="3.13164">
        <ele>412</ele>
        <time>2014-10-24T12:53:53Z</time>
      </trkpt>
      <trkpt lat="44.10594" lon="3.13142">
        <ele>407.0499968</ele>
        <time>2014-10-24T12:54:06Z</time>
      </trkpt>
      <trkpt lat="44.10574" lon="3.13127">
        <ele>406</ele>
        <time>2014-10-24T12:54:16Z</time>
      </trkpt>
      <trkpt lat="44.10545" lon="3.13107">
        <ele>402</ele>
        <time>2014-10-24T12:54:29Z</time>
      </trkpt>
      <trkpt lat="44.10523" lon="3.13094">
        <ele>398</ele>
        <time>2014-10-24T12:54:39Z</time>
      </trkpt>
      <trkpt lat="44.10493" lon="3.13079">
        <ele>391</ele>
        <time>2014-10-24T12:54:52Z</time>
      </trkpt>
      <trkpt lat="44.10472" lon="3.13069">
        <ele>385</ele>
        <time>2014-10-24T12:55:02Z</time>
      </trkpt>
      <trkpt lat="44.10439" lon="3.13058">
        <ele>381</ele>
        <time>2014-10-24T12:55:15Z</time>
      </trkpt>
      <trkpt lat="44.10419" lon="3.13056">
        <ele>377</ele>
        <time>2014-10-24T12:55:25Z</time>
      </trkpt>
      <trkpt lat="44.10387" lon="3.13049">
        <ele>372</ele>
        <time>2014-10-24T12:55:39Z</time>
      </trkpt>
      <trkpt lat="44.10365" lon="3.13048">
        <ele>370</ele>
        <time>2014-10-24T12:55:49Z</time>
      </trkpt>
      <trkpt lat="44.10343" lon="3.13049">
        <ele>370</ele>
        <time>2014-10-24T12:56:00Z</time>
      </trkpt>
      <trkpt lat="44.10321" lon="3.13049">
        <ele>370</ele>
        <time>2014-10-24T12:56:10Z</time>
      </trkpt>
      <trkpt lat="44.103" lon="3.13055">
        <ele>370</ele>
        <time>2014-10-24T12:56:20Z</time>
      </trkpt>
      <trkpt lat="44.10269" lon="3.13054">
        <ele>370</ele>
        <time>2014-10-24T12:56:34Z</time>
      </trkpt>
      <trkpt lat="44.1025" lon="3.13048">
        <ele>371</ele>
        <time>2014-10-24T12:56:46Z</time>
      </trkpt>
      <trkpt lat="44.10231" lon="3.1304">
        <ele>373</ele>
        <time>2014-10-24T12:57:00Z</time>
      </trkpt>
      <trkpt lat="44.10211" lon="3.13031">
        <ele>375</ele>
        <time>2014-10-24T12:57:18Z</time>
      </trkpt>
      <trkpt lat="44.10196" lon="3.13007">
        <ele>376</ele>
        <time>2014-10-24T12:57:30Z</time>
      </trkpt>
      <trkpt lat="44.10171" lon="3.12974">
        <ele>374</ele>
        <time>2014-10-24T12:57:44Z</time>
      </trkpt>
      <trkpt lat="44.10185" lon="3.12935">
        <ele>372</ele>
        <time>2014-10-24T12:57:58Z</time>
      </trkpt>
      <trkpt lat="44.10213" lon="3.12917">
        <ele>370</ele>
        <time>2014-10-24T12:58:11Z</time>
      </trkpt>
      <trkpt lat="44.10228" lon="3.12905">
        <ele>370</ele>
        <time>2014-10-24T12:58:24Z</time>
      </trkpt>
      <trkpt lat="44.10218" lon="3.12884">
        <ele>370</ele>
        <time>2014-10-24T12:59:49Z</time>
      </trkpt>
      <trkpt lat="44.1021" lon="3.12875">
        <ele>370</ele>
        <time>2014-10-24T13:02:13Z</time>
      </trkpt>
      <trkpt lat="44.10202" lon="3.12849">
        <ele>371</ele>
        <time>2014-10-24T13:02:29Z</time>
      </trkpt>
      <trkpt lat="44.10196" lon="3.12821">
        <ele>370</ele>
        <time>2014-10-24T13:02:44Z</time>
      </trkpt>
      <trkpt lat="44.10192" lon="3.12793">
        <ele>370</ele>
        <time>2014-10-24T13:02:58Z</time>
      </trkpt>
      <trkpt lat="44.10189" lon="3.12764">
        <ele>370</ele>
        <time>2014-10-24T13:03:13Z</time>
      </trkpt>
      <trkpt lat="44.10183" lon="3.12735">
        <ele>370</ele>
        <time>2014-10-24T13:03:29Z</time>
      </trkpt>
      <trkpt lat="44.10191" lon="3.12716">
        <ele>370</ele>
        <time>2014-10-24T13:03:44Z</time>
      </trkpt>
      <trkpt lat="44.10207" lon="3.1272">
        <ele>371</ele>
        <time>2014-10-24T13:03:58Z</time>
      </trkpt>
      <trkpt lat="44.10224" lon="3.12723">
        <ele>374</ele>
        <time>2014-10-24T13:04:15Z</time>
      </trkpt>
      <trkpt lat="44.10231" lon="3.12729">
        <ele>376</ele>
        <time>2014-10-24T13:04:25Z</time>
      </trkpt>
      <trkpt lat="44.10246" lon="3.12734">
        <ele>381</ele>
        <time>2014-10-24T13:04:42Z</time>
      </trkpt>
      <trkpt lat="44.10253" lon="3.12728">
        <ele>382</ele>
        <time>2014-10-24T13:04:52Z</time>
      </trkpt>
      <trkpt lat="44.10257" lon="3.12722">
        <ele>384</ele>
        <time>2014-10-24T13:05:06Z</time>
      </trkpt>
      <trkpt lat="44.10266" lon="3.12708">
        <ele>384.0499968</ele>
        <time>2014-10-24T13:05:17Z</time>
      </trkpt>
      <trkpt lat="44.10277" lon="3.12694">
        <ele>385</ele>
        <time>2014-10-24T13:05:30Z</time>
      </trkpt>
      <trkpt lat="44.10285" lon="3.12688">
        <ele>387.88120041568</ele>
        <time>2014-10-24T13:05:41Z</time>
      </trkpt>
      <trkpt lat="44.10294" lon="3.12684">
        <ele>390</ele>
        <time>2014-10-24T13:05:52Z</time>
      </trkpt>
      <trkpt lat="44.103" lon="3.12678">
        <ele>392</ele>
        <time>2014-10-24T13:06:03Z</time>
      </trkpt>
      <trkpt lat="44.10309" lon="3.12673">
        <ele>396</ele>
        <time>2014-10-24T13:06:32Z</time>
      </trkpt>
      <trkpt lat="44.10312" lon="3.12686">
        <ele>396</ele>
        <time>2014-10-24T13:07:57Z</time>
      </trkpt>
      <trkpt lat="44.10315" lon="3.12698">
        <ele>398</ele>
        <time>2014-10-24T13:08:07Z</time>
      </trkpt>
      <trkpt lat="44.10322" lon="3.12692">
        <ele>400</ele>
        <time>2014-10-24T13:08:19Z</time>
      </trkpt>
      <trkpt lat="44.10333" lon="3.12675">
        <ele>403</ele>
        <time>2014-10-24T13:08:34Z</time>
      </trkpt>
      <trkpt lat="44.10342" lon="3.12659">
        <ele>405</ele>
        <time>2014-10-24T13:08:50Z</time>
      </trkpt>
      <trkpt lat="44.10347" lon="3.12668">
        <ele>407.9000064</ele>
        <time>2014-10-24T13:09:01Z</time>
      </trkpt>
      <trkpt lat="44.10347" lon="3.12681">
        <ele>408.9500032</ele>
        <time>2014-10-24T13:09:11Z</time>
      </trkpt>
      <trkpt lat="44.10354" lon="3.12673">
        <ele>410</ele>
        <time>2014-10-24T13:09:24Z</time>
      </trkpt>
      <trkpt lat="44.10361" lon="3.12651">
        <ele>411</ele>
        <time>2014-10-24T13:09:40Z</time>
      </trkpt>
      <trkpt lat="44.10373" lon="3.12635">
        <ele>415</ele>
        <time>2014-10-24T13:09:58Z</time>
      </trkpt>
      <trkpt lat="44.10383" lon="3.12638">
        <ele>419</ele>
        <time>2014-10-24T13:10:15Z</time>
      </trkpt>
      <trkpt lat="44.10388" lon="3.12645">
        <ele>420</ele>
        <time>2014-10-24T13:10:29Z</time>
      </trkpt>
      <trkpt lat="44.10394" lon="3.12655">
        <ele>424</ele>
        <time>2014-10-24T13:10:43Z</time>
      </trkpt>
      <trkpt lat="44.10399" lon="3.12662">
        <ele>427</ele>
        <time>2014-10-24T13:10:53Z</time>
      </trkpt>
      <trkpt lat="44.10406" lon="3.12666">
        <ele>429</ele>
        <time>2014-10-24T13:11:05Z</time>
      </trkpt>
      <trkpt lat="44.10415" lon="3.12672">
        <ele>431</ele>
        <time>2014-10-24T13:11:20Z</time>
      </trkpt>
      <trkpt lat="44.10421" lon="3.12679">
        <ele>433.9500032</ele>
        <time>2014-10-24T13:11:31Z</time>
      </trkpt>
      <trkpt lat="44.1043" lon="3.12683">
        <ele>436</ele>
        <time>2014-10-24T13:11:45Z</time>
      </trkpt>
      <trkpt lat="44.10438" lon="3.12684">
        <ele>438</ele>
        <time>2014-10-24T13:11:59Z</time>
      </trkpt>
      <trkpt lat="44.10446" lon="3.1268">
        <ele>441</ele>
        <time>2014-10-24T13:12:18Z</time>
      </trkpt>
      <trkpt lat="44.10453" lon="3.12675">
        <ele>446</ele>
        <time>2014-10-24T13:12:37Z</time>
      </trkpt>
      <trkpt lat="44.10454" lon="3.12663">
        <ele>447</ele>
        <time>2014-10-24T13:12:50Z</time>
      </trkpt>
      <trkpt lat="44.10456" lon="3.1265">
        <ele>450</ele>
        <time>2014-10-24T13:13:06Z</time>
      </trkpt>
      <trkpt lat="44.10459" lon="3.12637">
        <ele>452</ele>
        <time>2014-10-24T13:13:28Z</time>
      </trkpt>
      <trkpt lat="44.10462" lon="3.12623">
        <ele>453</ele>
        <time>2014-10-24T13:13:39Z</time>
      </trkpt>
      <trkpt lat="44.10466" lon="3.12612">
        <ele>455</ele>
        <time>2014-10-24T13:13:49Z</time>
      </trkpt>
      <trkpt lat="44.10469" lon="3.12601">
        <ele>458.9000064</ele>
        <time>2014-10-24T13:14:01Z</time>
      </trkpt>
      <trkpt lat="44.10474" lon="3.12596">
        <ele>461</ele>
        <time>2014-10-24T13:14:13Z</time>
      </trkpt>
      <trkpt lat="44.10479" lon="3.12587">
        <ele>464.9000064</ele>
        <time>2014-10-24T13:14:31Z</time>
      </trkpt>
      <trkpt lat="44.10485" lon="3.12579">
        <ele>467</ele>
        <time>2014-10-24T13:14:45Z</time>
      </trkpt>
      <trkpt lat="44.10491" lon="3.12573">
        <ele>468</ele>
        <time>2014-10-24T13:15:00Z</time>
      </trkpt>
      <trkpt lat="44.10495" lon="3.12566">
        <ele>473</ele>
        <time>2014-10-24T13:15:14Z</time>
      </trkpt>
      <trkpt lat="44.10496" lon="3.12553">
        <ele>474</ele>
        <time>2014-10-24T13:15:28Z</time>
      </trkpt>
      <trkpt lat="44.10499" lon="3.12543">
        <ele>476</ele>
        <time>2014-10-24T13:15:38Z</time>
      </trkpt>
      <trkpt lat="44.10501" lon="3.12532">
        <ele>478.9000064</ele>
        <time>2014-10-24T13:15:51Z</time>
      </trkpt>
      <trkpt lat="44.10504" lon="3.12522">
        <ele>482</ele>
        <time>2014-10-24T13:16:04Z</time>
      </trkpt>
      <trkpt lat="44.10509" lon="3.12514">
        <ele>483</ele>
        <time>2014-10-24T13:16:18Z</time>
      </trkpt>
      <trkpt lat="44.10513" lon="3.12506">
        <ele>485</ele>
        <time>2014-10-24T13:16:30Z</time>
      </trkpt>
      <trkpt lat="44.10516" lon="3.12495">
        <ele>488</ele>
        <time>2014-10-24T13:16:45Z</time>
      </trkpt>
      <trkpt lat="44.10517" lon="3.12475">
        <ele>488</ele>
        <time>2014-10-24T13:16:59Z</time>
      </trkpt>
      <trkpt lat="44.10517" lon="3.12455">
        <ele>491.9500032</ele>
        <time>2014-10-24T13:17:11Z</time>
      </trkpt>
      <trkpt lat="44.1052" lon="3.12438">
        <ele>493</ele>
        <time>2014-10-24T13:17:24Z</time>
      </trkpt>
      <trkpt lat="44.10524" lon="3.12418">
        <ele>495</ele>
        <time>2014-10-24T13:17:39Z</time>
      </trkpt>
      <trkpt lat="44.10526" lon="3.12407">
        <ele>496</ele>
        <time>2014-10-24T13:17:49Z</time>
      </trkpt>
      <trkpt lat="44.10533" lon="3.12413">
        <ele>500.9500032</ele>
        <time>2014-10-24T13:18:11Z</time>
      </trkpt>
      <trkpt lat="44.1054" lon="3.12416">
        <ele>507</ele>
        <time>2014-10-24T13:18:40Z</time>
      </trkpt>
      <trkpt lat="44.10547" lon="3.12419">
        <ele>509</ele>
        <time>2014-10-24T13:19:09Z</time>
      </trkpt>
      <trkpt lat="44.10554" lon="3.12425">
        <ele>513</ele>
        <time>2014-10-24T13:19:24Z</time>
      </trkpt>
      <trkpt lat="44.10561" lon="3.12432">
        <ele>516</ele>
        <time>2014-10-24T13:19:44Z</time>
      </trkpt>
      <trkpt lat="44.10567" lon="3.12443">
        <ele>519.9000064</ele>
        <time>2014-10-24T13:20:01Z</time>
      </trkpt>
      <trkpt lat="44.10572" lon="3.12453">
        <ele>522</ele>
        <time>2014-10-24T13:20:14Z</time>
      </trkpt>
      <trkpt lat="44.10578" lon="3.12459">
        <ele>525</ele>
        <time>2014-10-24T13:20:39Z</time>
      </trkpt>
      <trkpt lat="44.10586" lon="3.12465">
        <ele>529</ele>
        <time>2014-10-24T13:20:55Z</time>
      </trkpt>
      <trkpt lat="44.10591" lon="3.12471">
        <ele>531</ele>
        <time>2014-10-24T13:21:08Z</time>
      </trkpt>
      <trkpt lat="44.10595" lon="3.12482">
        <ele>532</ele>
        <time>2014-10-24T13:21:19Z</time>
      </trkpt>
      <trkpt lat="44.10603" lon="3.12491">
        <ele>536</ele>
        <time>2014-10-24T13:21:36Z</time>
      </trkpt>
      <trkpt lat="44.1061" lon="3.125">
        <ele>538</ele>
        <time>2014-10-24T13:21:50Z</time>
      </trkpt>
      <trkpt lat="44.10618" lon="3.12508">
        <ele>540</ele>
        <time>2014-10-24T13:22:06Z</time>
      </trkpt>
      <trkpt lat="44.10627" lon="3.12512">
        <ele>546.8500096</ele>
        <time>2014-10-24T13:22:31Z</time>
      </trkpt>
      <trkpt lat="44.10637" lon="3.12517">
        <ele>550</ele>
        <time>2014-10-24T13:22:59Z</time>
      </trkpt>
      <trkpt lat="44.10647" lon="3.12518">
        <ele>556</ele>
        <time>2014-10-24T13:23:36Z</time>
      </trkpt>
      <trkpt lat="44.10654" lon="3.12525">
        <ele>558</ele>
        <time>2014-10-24T13:23:56Z</time>
      </trkpt>
      <trkpt lat="44.10664" lon="3.12527">
        <ele>561</ele>
        <time>2014-10-24T13:24:20Z</time>
      </trkpt>
      <trkpt lat="44.10674" lon="3.12529">
        <ele>567</ele>
        <time>2014-10-24T13:24:44Z</time>
      </trkpt>
      <trkpt lat="44.10683" lon="3.12527">
        <ele>572</ele>
        <time>2014-10-24T13:25:03Z</time>
      </trkpt>
      <trkpt lat="44.10693" lon="3.12529">
        <ele>575</ele>
        <time>2014-10-24T13:25:24Z</time>
      </trkpt>
      <trkpt lat="44.10703" lon="3.12528">
        <ele>580</ele>
        <time>2014-10-24T13:25:55Z</time>
      </trkpt>
      <trkpt lat="44.10711" lon="3.12519">
        <ele>588</ele>
        <time>2014-10-24T13:26:43Z</time>
      </trkpt>
      <trkpt lat="44.10721" lon="3.12521">
        <ele>591</ele>
        <time>2014-10-24T13:27:04Z</time>
      </trkpt>
      <trkpt lat="44.10729" lon="3.12526">
        <ele>593</ele>
        <time>2014-10-24T13:27:17Z</time>
      </trkpt>
      <trkpt lat="44.10739" lon="3.12527">
        <ele>597</ele>
        <time>2014-10-24T13:27:38Z</time>
      </trkpt>
      <trkpt lat="44.10734" lon="3.12516">
        <ele>602</ele>
        <time>2014-10-24T13:28:11Z</time>
      </trkpt>
      <trkpt lat="44.1073" lon="3.12505">
        <ele>604</ele>
        <time>2014-10-24T13:28:27Z</time>
      </trkpt>
      <trkpt lat="44.10732" lon="3.12494">
        <ele>606</ele>
        <time>2014-10-24T13:28:40Z</time>
      </trkpt>
      <trkpt lat="44.10737" lon="3.12488">
        <ele>612</ele>
        <time>2014-10-24T13:28:59Z</time>
      </trkpt>
      <trkpt lat="44.1074" lon="3.12477">
        <ele>617</ele>
        <time>2014-10-24T13:29:23Z</time>
      </trkpt>
      <trkpt lat="44.10744" lon="3.12469">
        <ele>619</ele>
        <time>2014-10-24T13:29:34Z</time>
      </trkpt>
      <trkpt lat="44.10746" lon="3.12461">
        <ele>619</ele>
        <time>2014-10-24T13:29:44Z</time>
      </trkpt>
      <trkpt lat="44.10748" lon="3.12445">
        <ele>623</ele>
        <time>2014-10-24T13:30:02Z</time>
      </trkpt>
      <trkpt lat="44.10736" lon="3.12432">
        <ele>624</ele>
        <time>2014-10-24T13:30:16Z</time>
      </trkpt>
      <trkpt lat="44.10722" lon="3.12421">
        <ele>625</ele>
        <time>2014-10-24T13:30:28Z</time>
      </trkpt>
      <trkpt lat="44.10713" lon="3.12406">
        <ele>625</ele>
        <time>2014-10-24T13:30:39Z</time>
      </trkpt>
      <trkpt lat="44.10705" lon="3.1238">
        <ele>628</ele>
        <time>2014-10-24T13:30:55Z</time>
      </trkpt>
      <trkpt lat="44.10697" lon="3.12355">
        <ele>629.9500032</ele>
        <time>2014-10-24T13:31:11Z</time>
      </trkpt>
      <trkpt lat="44.10694" lon="3.12331">
        <ele>631</ele>
        <time>2014-10-24T13:31:27Z</time>
      </trkpt>
      <trkpt lat="44.10697" lon="3.12306">
        <ele>633</ele>
        <time>2014-10-24T13:31:43Z</time>
      </trkpt>
      <trkpt lat="44.10695" lon="3.12286">
        <ele>635</ele>
        <time>2014-10-24T13:31:55Z</time>
      </trkpt>
      <trkpt lat="44.10692" lon="3.12265">
        <ele>633</ele>
        <time>2014-10-24T13:32:08Z</time>
      </trkpt>
      <trkpt lat="44.10683" lon="3.12245">
        <ele>636</ele>
        <time>2014-10-24T13:32:23Z</time>
      </trkpt>
      <trkpt lat="44.10679" lon="3.12224">
        <ele>636</ele>
        <time>2014-10-24T13:32:39Z</time>
      </trkpt>
      <trkpt lat="44.10685" lon="3.12206">
        <ele>638</ele>
        <time>2014-10-24T13:32:52Z</time>
      </trkpt>
      <trkpt lat="44.10694" lon="3.12194">
        <ele>638</ele>
        <time>2014-10-24T13:33:02Z</time>
      </trkpt>
      <trkpt lat="44.10703" lon="3.12185">
        <ele>639</ele>
        <time>2014-10-24T13:33:18Z</time>
      </trkpt>
      <trkpt lat="44.10712" lon="3.12183">
        <ele>643</ele>
        <time>2014-10-24T13:33:36Z</time>
      </trkpt>
      <trkpt lat="44.10719" lon="3.12183">
        <ele>647</ele>
        <time>2014-10-24T13:33:57Z</time>
      </trkpt>
      <trkpt lat="44.10726" lon="3.12185">
        <ele>651</ele>
        <time>2014-10-24T13:34:13Z</time>
      </trkpt>
      <trkpt lat="44.10733" lon="3.12185">
        <ele>653</ele>
        <time>2014-10-24T13:34:27Z</time>
      </trkpt>
      <trkpt lat="44.10741" lon="3.12182">
        <ele>656</ele>
        <time>2014-10-24T13:34:46Z</time>
      </trkpt>
      <trkpt lat="44.1075" lon="3.12179">
        <ele>662</ele>
        <time>2014-10-24T13:35:12Z</time>
      </trkpt>
      <trkpt lat="44.10754" lon="3.12168">
        <ele>664</ele>
        <time>2014-10-24T13:35:27Z</time>
      </trkpt>
      <trkpt lat="44.10755" lon="3.12155">
        <ele>668</ele>
        <time>2014-10-24T13:35:56Z</time>
      </trkpt>
      <trkpt lat="44.10758" lon="3.12144">
        <ele>670</ele>
        <time>2014-10-24T13:36:09Z</time>
      </trkpt>
      <trkpt lat="44.10762" lon="3.12133">
        <ele>674</ele>
        <time>2014-10-24T13:36:29Z</time>
      </trkpt>
      <trkpt lat="44.10765" lon="3.12114">
        <ele>678</ele>
        <time>2014-10-24T13:36:47Z</time>
      </trkpt>
      <trkpt lat="44.10771" lon="3.12095">
        <ele>681</ele>
        <time>2014-10-24T13:37:08Z</time>
      </trkpt>
      <trkpt lat="44.10776" lon="3.12087">
        <ele>683</ele>
        <time>2014-10-24T13:37:22Z</time>
      </trkpt>
      <trkpt lat="44.10781" lon="3.12078">
        <ele>687</ele>
        <time>2014-10-24T13:37:45Z</time>
      </trkpt>
      <trkpt lat="44.10784" lon="3.1207">
        <ele>688</ele>
        <time>2014-10-24T13:37:56Z</time>
      </trkpt>
      <trkpt lat="44.1079" lon="3.12069">
        <ele>692</ele>
        <time>2014-10-24T13:38:17Z</time>
      </trkpt>
      <trkpt lat="44.10794" lon="3.12079">
        <ele>696</ele>
        <time>2014-10-24T13:38:30Z</time>
      </trkpt>
      <trkpt lat="44.10805" lon="3.12083">
        <ele>698</ele>
        <time>2014-10-24T13:38:56Z</time>
      </trkpt>
      <trkpt lat="44.10812" lon="3.12075">
        <ele>702</ele>
        <time>2014-10-24T13:39:23Z</time>
      </trkpt>
      <trkpt lat="44.1082" lon="3.12075">
        <ele>706</ele>
        <time>2014-10-24T13:39:38Z</time>
      </trkpt>
      <trkpt lat="44.10827" lon="3.12074">
        <ele>708</ele>
        <time>2014-10-24T13:39:52Z</time>
      </trkpt>
      <trkpt lat="44.10834" lon="3.12069">
        <ele>712</ele>
        <time>2014-10-24T13:40:10Z</time>
      </trkpt>
      <trkpt lat="44.10839" lon="3.12062">
        <ele>714</ele>
        <time>2014-10-24T13:40:25Z</time>
      </trkpt>
      <trkpt lat="44.10846" lon="3.12057">
        <ele>716</ele>
        <time>2014-10-24T13:40:46Z</time>
      </trkpt>
      <trkpt lat="44.10853" lon="3.12051">
        <ele>720</ele>
        <time>2014-10-24T13:41:03Z</time>
      </trkpt>
      <trkpt lat="44.10861" lon="3.12053">
        <ele>721</ele>
        <time>2014-10-24T13:41:15Z</time>
      </trkpt>
      <trkpt lat="44.10878" lon="3.12048">
        <ele>726</ele>
        <time>2014-10-24T13:41:41Z</time>
      </trkpt>
      <trkpt lat="44.10887" lon="3.12047">
        <ele>728</ele>
        <time>2014-10-24T13:41:56Z</time>
      </trkpt>
      <trkpt lat="44.10895" lon="3.12044">
        <ele>728</ele>
        <time>2014-10-24T13:42:10Z</time>
      </trkpt>
      <trkpt lat="44.10902" lon="3.12036">
        <ele>733</ele>
        <time>2014-10-24T13:42:30Z</time>
      </trkpt>
      <trkpt lat="44.10907" lon="3.12027">
        <ele>737</ele>
        <time>2014-10-24T13:42:45Z</time>
      </trkpt>
      <trkpt lat="44.10915" lon="3.12024">
        <ele>738</ele>
        <time>2014-10-24T13:42:59Z</time>
      </trkpt>
      <trkpt lat="44.10924" lon="3.12018">
        <ele>742.9000064</ele>
        <time>2014-10-24T13:43:21Z</time>
      </trkpt>
      <trkpt lat="44.10932" lon="3.12013">
        <ele>745</ele>
        <time>2014-10-24T13:43:37Z</time>
      </trkpt>
      <trkpt lat="44.10939" lon="3.12006">
        <ele>747</ele>
        <time>2014-10-24T13:43:54Z</time>
      </trkpt>
      <trkpt lat="44.10951" lon="3.12002">
        <ele>750</ele>
        <time>2014-10-24T13:44:17Z</time>
      </trkpt>
      <trkpt lat="44.10956" lon="3.11994">
        <ele>752</ele>
        <time>2014-10-24T13:44:30Z</time>
      </trkpt>
      <trkpt lat="44.10972" lon="3.11994">
        <ele>755</ele>
        <time>2014-10-24T13:44:51Z</time>
      </trkpt>
      <trkpt lat="44.10978" lon="3.11989">
        <ele>758</ele>
        <time>2014-10-24T13:45:02Z</time>
      </trkpt>
      <trkpt lat="44.10982" lon="3.11982">
        <ele>760</ele>
        <time>2014-10-24T13:45:12Z</time>
      </trkpt>
      <trkpt lat="44.10989" lon="3.11978">
        <ele>761</ele>
        <time>2014-10-24T13:45:22Z</time>
      </trkpt>
      <trkpt lat="44.10995" lon="3.11972">
        <ele>763</ele>
        <time>2014-10-24T13:45:34Z</time>
      </trkpt>
      <trkpt lat="44.11" lon="3.11965">
        <ele>764</ele>
        <time>2014-10-24T13:45:46Z</time>
      </trkpt>
      <trkpt lat="44.11005" lon="3.11959">
        <ele>767</ele>
        <time>2014-10-24T13:45:58Z</time>
      </trkpt>
      <trkpt lat="44.11009" lon="3.11952">
        <ele>769</ele>
        <time>2014-10-24T13:46:12Z</time>
      </trkpt>
      <trkpt lat="44.11016" lon="3.11945">
        <ele>772</ele>
        <time>2014-10-24T13:46:24Z</time>
      </trkpt>
      <trkpt lat="44.11021" lon="3.11937">
        <ele>774</ele>
        <time>2014-10-24T13:46:36Z</time>
      </trkpt>
      <trkpt lat="44.11028" lon="3.11942">
        <ele>775</ele>
        <time>2014-10-24T13:46:46Z</time>
      </trkpt>
      <trkpt lat="44.11041" lon="3.1196">
        <ele>774</ele>
        <time>2014-10-24T13:47:01Z</time>
      </trkpt>
      <trkpt lat="44.1106" lon="3.11981">
        <ele>774</ele>
        <time>2014-10-24T13:47:11Z</time>
      </trkpt>
      <trkpt lat="44.11086" lon="3.12002">
        <ele>773</ele>
        <time>2014-10-24T13:47:25Z</time>
      </trkpt>
      <trkpt lat="44.1111" lon="3.12021">
        <ele>768</ele>
        <time>2014-10-24T13:47:38Z</time>
      </trkpt>
      <trkpt lat="44.11127" lon="3.12029">
        <ele>769</ele>
        <time>2014-10-24T13:47:48Z</time>
      </trkpt>
      <trkpt lat="44.11148" lon="3.12034">
        <ele>769</ele>
        <time>2014-10-24T13:47:59Z</time>
      </trkpt>
      <trkpt lat="44.11166" lon="3.12049">
        <ele>769</ele>
        <time>2014-10-24T13:48:10Z</time>
      </trkpt>
      <trkpt lat="44.11189" lon="3.12067">
        <ele>768</ele>
        <time>2014-10-24T13:48:24Z</time>
      </trkpt>
      <trkpt lat="44.11205" lon="3.12068">
        <ele>768</ele>
        <time>2014-10-24T13:48:34Z</time>
      </trkpt>
      <trkpt lat="44.11228" lon="3.1207">
        <ele>769</ele>
        <time>2014-10-24T13:48:49Z</time>
      </trkpt>
      <trkpt lat="44.11245" lon="3.12075">
        <ele>771</ele>
        <time>2014-10-24T13:49:06Z</time>
      </trkpt>
      <trkpt lat="44.11259" lon="3.12069">
        <ele>774</ele>
        <time>2014-10-24T13:49:26Z</time>
      </trkpt>
      <trkpt lat="44.11267" lon="3.12068">
        <ele>775</ele>
        <time>2014-10-24T13:49:36Z</time>
      </trkpt>
      <trkpt lat="44.11275" lon="3.12067">
        <ele>778</ele>
        <time>2014-10-24T13:49:52Z</time>
      </trkpt>
      <trkpt lat="44.11284" lon="3.12069">
        <ele>783</ele>
        <time>2014-10-24T13:50:13Z</time>
      </trkpt>
      <trkpt lat="44.1129" lon="3.12079">
        <ele>783</ele>
        <time>2014-10-24T13:50:24Z</time>
      </trkpt>
      <trkpt lat="44.11302" lon="3.12087">
        <ele>787</ele>
        <time>2014-10-24T13:50:44Z</time>
      </trkpt>
      <trkpt lat="44.11308" lon="3.12088">
        <ele>788</ele>
        <time>2014-10-24T13:50:57Z</time>
      </trkpt>
      <trkpt lat="44.11316" lon="3.12093">
        <ele>791</ele>
        <time>2014-10-24T13:51:15Z</time>
      </trkpt>
      <trkpt lat="44.11327" lon="3.12091">
        <ele>793.9000064</ele>
        <time>2014-10-24T13:51:31Z</time>
      </trkpt>
      <trkpt lat="44.11346" lon="3.12097">
        <ele>794</ele>
        <time>2014-10-24T13:51:47Z</time>
      </trkpt>
      <trkpt lat="44.11365" lon="3.12102">
        <ele>797</ele>
        <time>2014-10-24T13:52:03Z</time>
      </trkpt>
      <trkpt lat="44.11385" lon="3.12098">
        <ele>799</ele>
        <time>2014-10-24T13:52:21Z</time>
      </trkpt>
      <trkpt lat="44.11408" lon="3.12096">
        <ele>801</ele>
        <time>2014-10-24T13:52:35Z</time>
      </trkpt>
      <trkpt lat="44.11428" lon="3.12093">
        <ele>802.9500032</ele>
        <time>2014-10-24T13:52:51Z</time>
      </trkpt>
      <trkpt lat="44.11437" lon="3.1209">
        <ele>805</ele>
        <time>2014-10-24T13:53:02Z</time>
      </trkpt>
      <trkpt lat="44.11454" lon="3.12078">
        <ele>806</ele>
        <time>2014-10-24T13:53:20Z</time>
      </trkpt>
      <trkpt lat="44.11464" lon="3.12073">
        <ele>808.9000064</ele>
        <time>2014-10-24T13:53:31Z</time>
      </trkpt>
      <trkpt lat="44.11483" lon="3.12063">
        <ele>810</ele>
        <time>2014-10-24T13:53:50Z</time>
      </trkpt>
      <trkpt lat="44.115" lon="3.12049">
        <ele>813</ele>
        <time>2014-10-24T13:54:08Z</time>
      </trkpt>
      <trkpt lat="44.11517" lon="3.12041">
        <ele>815</ele>
        <time>2014-10-24T13:54:23Z</time>
      </trkpt>
      <trkpt lat="44.11531" lon="3.12029">
        <ele>817</ele>
        <time>2014-10-24T13:54:38Z</time>
      </trkpt>
      <trkpt lat="44.1155" lon="3.12016">
        <ele>818.9500032</ele>
        <time>2014-10-24T13:54:51Z</time>
      </trkpt>
      <trkpt lat="44.1157" lon="3.12002">
        <ele>820</ele>
        <time>2014-10-24T13:55:05Z</time>
      </trkpt>
      <trkpt lat="44.11591" lon="3.11998">
        <ele>821</ele>
        <time>2014-10-24T13:55:16Z</time>
      </trkpt>
      <trkpt lat="44.11614" lon="3.12006">
        <ele>821</ele>
        <time>2014-10-24T13:55:27Z</time>
      </trkpt>
      <trkpt lat="44.11637" lon="3.12012">
        <ele>817</ele>
        <time>2014-10-24T13:55:38Z</time>
      </trkpt>
      <trkpt lat="44.11658" lon="3.12019">
        <ele>818</ele>
        <time>2014-10-24T13:55:49Z</time>
      </trkpt>
      <trkpt lat="44.11677" lon="3.12027">
        <ele>817</ele>
        <time>2014-10-24T13:56:04Z</time>
      </trkpt>
      <trkpt lat="44.11698" lon="3.12041">
        <ele>818</ele>
        <time>2014-10-24T13:56:17Z</time>
      </trkpt>
      <trkpt lat="44.11716" lon="3.12051">
        <ele>820</ele>
        <time>2014-10-24T13:56:28Z</time>
      </trkpt>
      <trkpt lat="44.11732" lon="3.1205">
        <ele>823</ele>
        <time>2014-10-24T13:56:42Z</time>
      </trkpt>
      <trkpt lat="44.11751" lon="3.12048">
        <ele>824</ele>
        <time>2014-10-24T13:56:57Z</time>
      </trkpt>
      <trkpt lat="44.1176" lon="3.12047">
        <ele>826</ele>
        <time>2014-10-24T13:57:07Z</time>
      </trkpt>
      <trkpt lat="44.11776" lon="3.12046">
        <ele>827</ele>
        <time>2014-10-24T13:57:22Z</time>
      </trkpt>
      <trkpt lat="44.1179" lon="3.12032">
        <ele>828</ele>
        <time>2014-10-24T13:57:32Z</time>
      </trkpt>
      <trkpt lat="44.11811" lon="3.12017">
        <ele>830</ele>
        <time>2014-10-24T13:57:44Z</time>
      </trkpt>
      <trkpt lat="44.11833" lon="3.11995">
        <ele>830</ele>
        <time>2014-10-24T13:57:56Z</time>
      </trkpt>
      <trkpt lat="44.1185" lon="3.11979">
        <ele>829</ele>
        <time>2014-10-24T13:58:06Z</time>
      </trkpt>
      <trkpt lat="44.11871" lon="3.11963">
        <ele>829</ele>
        <time>2014-10-24T13:58:18Z</time>
      </trkpt>
      <trkpt lat="44.11892" lon="3.11956">
        <ele>829</ele>
        <time>2014-10-24T13:58:28Z</time>
      </trkpt>
      <trkpt lat="44.11923" lon="3.11963">
        <ele>828</ele>
        <time>2014-10-24T13:58:43Z</time>
      </trkpt>
      <trkpt lat="44.11934" lon="3.11944">
        <ele>827</ele>
        <time>2014-10-24T13:58:53Z</time>
      </trkpt>
      <trkpt lat="44.1195" lon="3.11927">
        <ele>827</ele>
        <time>2014-10-24T13:59:03Z</time>
      </trkpt>
      <trkpt lat="44.1197" lon="3.11917">
        <ele>827</ele>
        <time>2014-10-24T13:59:13Z</time>
      </trkpt>
      <trkpt lat="44.11999" lon="3.11907">
        <ele>827</ele>
        <time>2014-10-24T13:59:27Z</time>
      </trkpt>
      <trkpt lat="44.12027" lon="3.11896">
        <ele>826</ele>
        <time>2014-10-24T13:59:39Z</time>
      </trkpt>
      <trkpt lat="44.12043" lon="3.11887">
        <ele>826</ele>
        <time>2014-10-24T13:59:49Z</time>
      </trkpt>
      <trkpt lat="44.12058" lon="3.11872">
        <ele>827</ele>
        <time>2014-10-24T14:00:04Z</time>
      </trkpt>
      <trkpt lat="44.12085" lon="3.11875">
        <ele>830</ele>
        <time>2014-10-24T14:00:22Z</time>
      </trkpt>
      <trkpt lat="44.12102" lon="3.11873">
        <ele>831</ele>
        <time>2014-10-24T14:00:58Z</time>
      </trkpt>
      <trkpt lat="44.12093" lon="3.11876">
        <ele>832</ele>
        <time>2014-10-24T14:01:59Z</time>
      </trkpt>
      <trkpt lat="44.12099" lon="3.11866">
        <ele>831</ele>
        <time>2014-10-24T14:03:53Z</time>
      </trkpt>
      <trkpt lat="44.12084" lon="3.11861">
        <ele>831</ele>
        <time>2014-10-24T14:04:07Z</time>
      </trkpt>
      <trkpt lat="44.1207" lon="3.11862">
        <ele>832</ele>
        <time>2014-10-24T14:04:19Z</time>
      </trkpt>
      <trkpt lat="44.12055" lon="3.11849">
        <ele>830</ele>
        <time>2014-10-24T14:04:33Z</time>
      </trkpt>
      <trkpt lat="44.12043" lon="3.11829">
        <ele>832</ele>
        <time>2014-10-24T14:04:46Z</time>
      </trkpt>
      <trkpt lat="44.12033" lon="3.11816">
        <ele>832</ele>
        <time>2014-10-24T14:04:57Z</time>
      </trkpt>
      <trkpt lat="44.12021" lon="3.11806">
        <ele>834</ele>
        <time>2014-10-24T14:05:08Z</time>
      </trkpt>
      <trkpt lat="44.12003" lon="3.11802">
        <ele>834</ele>
        <time>2014-10-24T14:05:18Z</time>
      </trkpt>
      <trkpt lat="44.11982" lon="3.11801">
        <ele>834</ele>
        <time>2014-10-24T14:05:30Z</time>
      </trkpt>
      <trkpt lat="44.11953" lon="3.1181">
        <ele>834</ele>
        <time>2014-10-24T14:05:43Z</time>
      </trkpt>
      <trkpt lat="44.11931" lon="3.11822">
        <ele>834</ele>
        <time>2014-10-24T14:05:56Z</time>
      </trkpt>
      <trkpt lat="44.11911" lon="3.11835">
        <ele>835</ele>
        <time>2014-10-24T14:06:07Z</time>
      </trkpt>
      <trkpt lat="44.11891" lon="3.11846">
        <ele>837</ele>
        <time>2014-10-24T14:06:19Z</time>
      </trkpt>
      <trkpt lat="44.1187" lon="3.11856">
        <ele>837</ele>
        <time>2014-10-24T14:06:33Z</time>
      </trkpt>
      <trkpt lat="44.11849" lon="3.11853">
        <ele>839</ele>
        <time>2014-10-24T14:06:49Z</time>
      </trkpt>
      <trkpt lat="44.1184" lon="3.11847">
        <ele>841</ele>
        <time>2014-10-24T14:06:59Z</time>
      </trkpt>
      <trkpt lat="44.11824" lon="3.11826">
        <ele>844</ele>
        <time>2014-10-24T14:07:14Z</time>
      </trkpt>
      <trkpt lat="44.11812" lon="3.11804">
        <ele>846</ele>
        <time>2014-10-24T14:07:30Z</time>
      </trkpt>
      <trkpt lat="44.11794" lon="3.11787">
        <ele>848</ele>
        <time>2014-10-24T14:07:46Z</time>
      </trkpt>
      <trkpt lat="44.11777" lon="3.11771">
        <ele>849</ele>
        <time>2014-10-24T14:07:59Z</time>
      </trkpt>
      <trkpt lat="44.11761" lon="3.11755">
        <ele>851</ele>
        <time>2014-10-24T14:08:10Z</time>
      </trkpt>
      <trkpt lat="44.11742" lon="3.11742">
        <ele>853</ele>
        <time>2014-10-24T14:08:25Z</time>
      </trkpt>
      <trkpt lat="44.11721" lon="3.11737">
        <ele>854</ele>
        <time>2014-10-24T14:08:40Z</time>
      </trkpt>
      <trkpt lat="44.117" lon="3.11729">
        <ele>855</ele>
        <time>2014-10-24T14:08:53Z</time>
      </trkpt>
      <trkpt lat="44.1168" lon="3.1172">
        <ele>856</ele>
        <time>2014-10-24T14:09:05Z</time>
      </trkpt>
      <trkpt lat="44.11659" lon="3.11713">
        <ele>856</ele>
        <time>2014-10-24T14:09:17Z</time>
      </trkpt>
      <trkpt lat="44.11626" lon="3.11717">
        <ele>856</ele>
        <time>2014-10-24T14:09:31Z</time>
      </trkpt>
      <trkpt lat="44.11604" lon="3.11724">
        <ele>856</ele>
        <time>2014-10-24T14:09:41Z</time>
      </trkpt>
      <trkpt lat="44.11582" lon="3.11727">
        <ele>855</ele>
        <time>2014-10-24T14:09:52Z</time>
      </trkpt>
      <trkpt lat="44.11558" lon="3.11723">
        <ele>852</ele>
        <time>2014-10-24T14:10:03Z</time>
      </trkpt>
      <trkpt lat="44.11529" lon="3.11706">
        <ele>852</ele>
        <time>2014-10-24T14:10:16Z</time>
      </trkpt>
      <trkpt lat="44.11496" lon="3.11688">
        <ele>849</ele>
        <time>2014-10-24T14:10:31Z</time>
      </trkpt>
      <trkpt lat="44.11474" lon="3.11687">
        <ele>849</ele>
        <time>2014-10-24T14:10:41Z</time>
      </trkpt>
      <trkpt lat="44.11453" lon="3.11684">
        <ele>848.0499968</ele>
        <time>2014-10-24T14:10:51Z</time>
      </trkpt>
      <trkpt lat="44.1142" lon="3.11669">
        <ele>848</ele>
        <time>2014-10-24T14:11:04Z</time>
      </trkpt>
      <trkpt lat="44.11387" lon="3.11659">
        <ele>847.9500032</ele>
        <time>2014-10-24T14:11:18Z</time>
      </trkpt>
      <trkpt lat="44.11365" lon="3.11653">
        <ele>846</ele>
        <time>2014-10-24T14:11:28Z</time>
      </trkpt>
      <trkpt lat="44.11342" lon="3.11643">
        <ele>845</ele>
        <time>2014-10-24T14:11:38Z</time>
      </trkpt>
      <trkpt lat="44.11322" lon="3.11632">
        <ele>843</ele>
        <time>2014-10-24T14:11:48Z</time>
      </trkpt>
      <trkpt lat="44.11287" lon="3.11625">
        <ele>840.12</ele>
        <time>2014-10-24T14:12:01Z</time>
      </trkpt>
      <trkpt lat="44.11253" lon="3.11625">
        <ele>839</ele>
        <time>2014-10-24T14:12:15Z</time>
      </trkpt>
      <trkpt lat="44.1123" lon="3.11627">
        <ele>836</ele>
        <time>2014-10-24T14:12:25Z</time>
      </trkpt>
      <trkpt lat="44.11199" lon="3.11633">
        <ele>831</ele>
        <time>2014-10-24T14:12:38Z</time>
      </trkpt>
      <trkpt lat="44.11166" lon="3.11622">
        <ele>825.0499968</ele>
        <time>2014-10-24T14:12:51Z</time>
      </trkpt>
      <trkpt lat="44.11135" lon="3.11611">
        <ele>820</ele>
        <time>2014-10-24T14:13:03Z</time>
      </trkpt>
      <trkpt lat="44.11101" lon="3.11609">
        <ele>818</ele>
        <time>2014-10-24T14:13:17Z</time>
      </trkpt>
      <trkpt lat="44.11093" lon="3.11577">
        <ele>815</ele>
        <time>2014-10-24T14:13:30Z</time>
      </trkpt>
      <trkpt lat="44.11109" lon="3.11555">
        <ele>814</ele>
        <time>2014-10-24T14:13:41Z</time>
      </trkpt>
      <trkpt lat="44.11124" lon="3.11534">
        <ele>816</ele>
        <time>2014-10-24T14:13:54Z</time>
      </trkpt>
      <trkpt lat="44.11139" lon="3.11512">
        <ele>816</ele>
        <time>2014-10-24T14:14:06Z</time>
      </trkpt>
      <trkpt lat="44.11153" lon="3.11493">
        <ele>817</ele>
        <time>2014-10-24T14:14:19Z</time>
      </trkpt>
      <trkpt lat="44.11168" lon="3.11473">
        <ele>818</ele>
        <time>2014-10-24T14:14:34Z</time>
      </trkpt>
      <trkpt lat="44.11189" lon="3.11463">
        <ele>819</ele>
        <time>2014-10-24T14:14:46Z</time>
      </trkpt>
      <trkpt lat="44.11208" lon="3.11454">
        <ele>820</ele>
        <time>2014-10-24T14:14:56Z</time>
      </trkpt>
      <trkpt lat="44.11227" lon="3.11447">
        <ele>821</ele>
        <time>2014-10-24T14:15:06Z</time>
      </trkpt>
      <trkpt lat="44.11248" lon="3.11443">
        <ele>821</ele>
        <time>2014-10-24T14:15:18Z</time>
      </trkpt>
      <trkpt lat="44.11282" lon="3.11443">
        <ele>822</ele>
        <time>2014-10-24T14:15:32Z</time>
      </trkpt>
      <trkpt lat="44.11303" lon="3.11445">
        <ele>822</ele>
        <time>2014-10-24T14:15:42Z</time>
      </trkpt>
      <trkpt lat="44.11324" lon="3.11443">
        <ele>822</ele>
        <time>2014-10-24T14:15:52Z</time>
      </trkpt>
      <trkpt lat="44.11342" lon="3.11429">
        <ele>819</ele>
        <time>2014-10-24T14:16:02Z</time>
      </trkpt>
      <trkpt lat="44.11359" lon="3.1141">
        <ele>818</ele>
        <time>2014-10-24T14:16:12Z</time>
      </trkpt>
      <trkpt lat="44.11384" lon="3.11383">
        <ele>814</ele>
        <time>2014-10-24T14:16:25Z</time>
      </trkpt>
      <trkpt lat="44.11412" lon="3.11356">
        <ele>810</ele>
        <time>2014-10-24T14:16:39Z</time>
      </trkpt>
      <trkpt lat="44.11444" lon="3.11343">
        <ele>806</ele>
        <time>2014-10-24T14:16:53Z</time>
      </trkpt>
      <trkpt lat="44.11465" lon="3.11329">
        <ele>805</ele>
        <time>2014-10-24T14:17:03Z</time>
      </trkpt>
      <trkpt lat="44.11486" lon="3.11318">
        <ele>806</ele>
        <time>2014-10-24T14:17:13Z</time>
      </trkpt>
      <trkpt lat="44.11502" lon="3.11298">
        <ele>806</ele>
        <time>2014-10-24T14:17:23Z</time>
      </trkpt>
      <trkpt lat="44.1151" lon="3.11271">
        <ele>804</ele>
        <time>2014-10-24T14:17:33Z</time>
      </trkpt>
      <trkpt lat="44.11493" lon="3.11253">
        <ele>800</ele>
        <time>2014-10-24T14:17:44Z</time>
      </trkpt>
      <trkpt lat="44.11475" lon="3.11232">
        <ele>792</ele>
        <time>2014-10-24T14:17:56Z</time>
      </trkpt>
      <trkpt lat="44.11466" lon="3.11208">
        <ele>789.0999936</ele>
        <time>2014-10-24T14:18:06Z</time>
      </trkpt>
      <trkpt lat="44.11474" lon="3.11179">
        <ele>787</ele>
        <time>2014-10-24T14:18:16Z</time>
      </trkpt>
      <trkpt lat="44.11486" lon="3.11156">
        <ele>788</ele>
        <time>2014-10-24T14:18:27Z</time>
      </trkpt>
      <trkpt lat="44.11497" lon="3.11131">
        <ele>788</ele>
        <time>2014-10-24T14:18:39Z</time>
      </trkpt>
      <trkpt lat="44.11495" lon="3.11117">
        <ele>790</ele>
        <time>2014-10-24T14:18:50Z</time>
      </trkpt>
      <trkpt lat="44.11476" lon="3.11112">
        <ele>792</ele>
        <time>2014-10-24T14:19:10Z</time>
      </trkpt>
      <trkpt lat="44.11459" lon="3.11131">
        <ele>792</ele>
        <time>2014-10-24T14:19:20Z</time>
      </trkpt>
      <trkpt lat="44.11438" lon="3.11142">
        <ele>792</ele>
        <time>2014-10-24T14:19:30Z</time>
      </trkpt>
      <trkpt lat="44.11415" lon="3.11146">
        <ele>792</ele>
        <time>2014-10-24T14:19:44Z</time>
      </trkpt>
      <trkpt lat="44.11393" lon="3.11143">
        <ele>793</ele>
        <time>2014-10-24T14:19:54Z</time>
      </trkpt>
      <trkpt lat="44.11372" lon="3.11136">
        <ele>793</ele>
        <time>2014-10-24T14:20:04Z</time>
      </trkpt>
      <trkpt lat="44.11354" lon="3.11123">
        <ele>794</ele>
        <time>2014-10-24T14:20:19Z</time>
      </trkpt>
      <trkpt lat="44.11333" lon="3.11119">
        <ele>794</ele>
        <time>2014-10-24T14:20:29Z</time>
      </trkpt>
      <trkpt lat="44.11313" lon="3.11104">
        <ele>795.9000064</ele>
        <time>2014-10-24T14:20:41Z</time>
      </trkpt>
      <trkpt lat="44.11292" lon="3.11095">
        <ele>796</ele>
        <time>2014-10-24T14:20:52Z</time>
      </trkpt>
      <trkpt lat="44.11266" lon="3.11068">
        <ele>795</ele>
        <time>2014-10-24T14:21:06Z</time>
      </trkpt>
      <trkpt lat="44.11249" lon="3.11051">
        <ele>795</ele>
        <time>2014-10-24T14:21:16Z</time>
      </trkpt>
      <trkpt lat="44.1123" lon="3.11033">
        <ele>795</ele>
        <time>2014-10-24T14:21:27Z</time>
      </trkpt>
      <trkpt lat="44.11204" lon="3.11007">
        <ele>794</ele>
        <time>2014-10-24T14:21:41Z</time>
      </trkpt>
      <trkpt lat="44.11188" lon="3.10986">
        <ele>794</ele>
        <time>2014-10-24T14:21:52Z</time>
      </trkpt>
      <trkpt lat="44.11182" lon="3.10976">
        <ele>796</ele>
        <time>2014-10-24T14:22:02Z</time>
      </trkpt>
      <trkpt lat="44.11164" lon="3.10962">
        <ele>797</ele>
        <time>2014-10-24T14:22:20Z</time>
      </trkpt>
      <trkpt lat="44.11141" lon="3.10957">
        <ele>797</ele>
        <time>2014-10-24T14:22:30Z</time>
      </trkpt>
      <trkpt lat="44.11111" lon="3.10945">
        <ele>798</ele>
        <time>2014-10-24T14:22:44Z</time>
      </trkpt>
      <trkpt lat="44.11096" lon="3.10928">
        <ele>798</ele>
        <time>2014-10-24T14:22:58Z</time>
      </trkpt>
      <trkpt lat="44.11085" lon="3.10906">
        <ele>801</ele>
        <time>2014-10-24T14:23:13Z</time>
      </trkpt>
      <trkpt lat="44.11075" lon="3.1088">
        <ele>802</ele>
        <time>2014-10-24T14:23:28Z</time>
      </trkpt>
      <trkpt lat="44.11073" lon="3.10855">
        <ele>804</ele>
        <time>2014-10-24T14:23:40Z</time>
      </trkpt>
      <trkpt lat="44.11073" lon="3.10828">
        <ele>805</ele>
        <time>2014-10-24T14:23:55Z</time>
      </trkpt>
      <trkpt lat="44.11078" lon="3.10798">
        <ele>805.9500032</ele>
        <time>2014-10-24T14:24:11Z</time>
      </trkpt>
      <trkpt lat="44.11079" lon="3.10783">
        <ele>806.9500032</ele>
        <time>2014-10-24T14:24:21Z</time>
      </trkpt>
      <trkpt lat="44.11072" lon="3.10766">
        <ele>809</ele>
        <time>2014-10-24T14:24:40Z</time>
      </trkpt>
      <trkpt lat="44.11071" lon="3.10752">
        <ele>812.9000064</ele>
        <time>2014-10-24T14:24:51Z</time>
      </trkpt>
      <trkpt lat="44.11069" lon="3.10738">
        <ele>814</ele>
        <time>2014-10-24T14:25:03Z</time>
      </trkpt>
      <trkpt lat="44.11065" lon="3.10726">
        <ele>816</ele>
        <time>2014-10-24T14:25:14Z</time>
      </trkpt>
      <trkpt lat="44.11063" lon="3.10712">
        <ele>818</ele>
        <time>2014-10-24T14:25:29Z</time>
      </trkpt>
      <trkpt lat="44.11061" lon="3.10696">
        <ele>819</ele>
        <time>2014-10-24T14:25:39Z</time>
      </trkpt>
      <trkpt lat="44.11046" lon="3.10684">
        <ele>823</ele>
        <time>2014-10-24T14:25:58Z</time>
      </trkpt>
      <trkpt lat="44.11024" lon="3.10682">
        <ele>823.9500032</ele>
        <time>2014-10-24T14:26:11Z</time>
      </trkpt>
      <trkpt lat="44.11009" lon="3.10666">
        <ele>825</ele>
        <time>2014-10-24T14:26:23Z</time>
      </trkpt>
      <trkpt lat="44.10995" lon="3.1066">
        <ele>825</ele>
        <time>2014-10-24T14:26:34Z</time>
      </trkpt>
      <trkpt lat="44.10988" lon="3.10652">
        <ele>824</ele>
        <time>2014-10-24T14:27:00Z</time>
      </trkpt>
      <trkpt lat="44.10984" lon="3.10625">
        <ele>824</ele>
        <time>2014-10-24T14:27:13Z</time>
      </trkpt>
      <trkpt lat="44.10992" lon="3.10605">
        <ele>831</ele>
        <time>2014-10-24T14:27:42Z</time>
      </trkpt>
      <trkpt lat="44.10993" lon="3.10577">
        <ele>831</ele>
        <time>2014-10-24T14:27:59Z</time>
      </trkpt>
      <trkpt lat="44.10997" lon="3.10554">
        <ele>834</ele>
        <time>2014-10-24T14:28:16Z</time>
      </trkpt>
      <trkpt lat="44.11003" lon="3.10542">
        <ele>836</ele>
        <time>2014-10-24T14:28:26Z</time>
      </trkpt>
      <trkpt lat="44.11" lon="3.10513">
        <ele>838</ele>
        <time>2014-10-24T14:28:38Z</time>
      </trkpt>
      <trkpt lat="44.11003" lon="3.10467">
        <ele>838.9500032</ele>
        <time>2014-10-24T14:28:51Z</time>
      </trkpt>
      <trkpt lat="44.11012" lon="3.10425">
        <ele>836</ele>
        <time>2014-10-24T14:29:03Z</time>
      </trkpt>
      <trkpt lat="44.11015" lon="3.10382">
        <ele>835</ele>
        <time>2014-10-24T14:29:15Z</time>
      </trkpt>
      <trkpt lat="44.11021" lon="3.10341">
        <ele>835</ele>
        <time>2014-10-24T14:29:29Z</time>
      </trkpt>
      <trkpt lat="44.11022" lon="3.10311">
        <ele>837.9500032</ele>
        <time>2014-10-24T14:29:41Z</time>
      </trkpt>
      <trkpt lat="44.11022" lon="3.10283">
        <ele>838</ele>
        <time>2014-10-24T14:29:54Z</time>
      </trkpt>
      <trkpt lat="44.11019" lon="3.1026">
        <ele>839</ele>
        <time>2014-10-24T14:30:05Z</time>
      </trkpt>
      <trkpt lat="44.11039" lon="3.10252">
        <ele>839</ele>
        <time>2014-10-24T14:30:19Z</time>
      </trkpt>
      <trkpt lat="44.11059" lon="3.1027">
        <ele>838</ele>
        <time>2014-10-24T14:30:29Z</time>
      </trkpt>
      <trkpt lat="44.1108" lon="3.10274">
        <ele>836</ele>
        <time>2014-10-24T14:30:39Z</time>
      </trkpt>
      <trkpt lat="44.11089" lon="3.10303">
        <ele>835</ele>
        <time>2014-10-24T14:30:50Z</time>
      </trkpt>
      <trkpt lat="44.11094" lon="3.10332">
        <ele>834</ele>
        <time>2014-10-24T14:31:02Z</time>
      </trkpt>
      <trkpt lat="44.11107" lon="3.10355">
        <ele>835</ele>
        <time>2014-10-24T14:31:16Z</time>
      </trkpt>
      <trkpt lat="44.11122" lon="3.10379">
        <ele>835</ele>
        <time>2014-10-24T14:31:26Z</time>
      </trkpt>
      <trkpt lat="44.11145" lon="3.10407">
        <ele>835</ele>
        <time>2014-10-24T14:31:40Z</time>
      </trkpt>
      <trkpt lat="44.11162" lon="3.10433">
        <ele>834</ele>
        <time>2014-10-24T14:31:50Z</time>
      </trkpt>
      <trkpt lat="44.11177" lon="3.10442">
        <ele>828</ele>
        <time>2014-10-24T14:32:03Z</time>
      </trkpt>
      <trkpt lat="44.11192" lon="3.10421">
        <ele>826</ele>
        <time>2014-10-24T14:32:15Z</time>
      </trkpt>
      <trkpt lat="44.11214" lon="3.10413">
        <ele>821</ele>
        <time>2014-10-24T14:32:25Z</time>
      </trkpt>
      <trkpt lat="44.11243" lon="3.1039">
        <ele>812.0499968</ele>
        <time>2014-10-24T14:32:38Z</time>
      </trkpt>
      <trkpt lat="44.11257" lon="3.10369">
        <ele>809</ele>
        <time>2014-10-24T14:32:55Z</time>
      </trkpt>
      <trkpt lat="44.11263" lon="3.10358">
        <ele>799</ele>
        <time>2014-10-24T14:33:11Z</time>
      </trkpt>
      <trkpt lat="44.11272" lon="3.10349">
        <ele>795</ele>
        <time>2014-10-24T14:33:35Z</time>
      </trkpt>
      <trkpt lat="44.11279" lon="3.1034">
        <ele>791</ele>
        <time>2014-10-24T14:33:45Z</time>
      </trkpt>
      <trkpt lat="44.11288" lon="3.10332">
        <ele>783</ele>
        <time>2014-10-24T14:33:55Z</time>
      </trkpt>
      <trkpt lat="44.11281" lon="3.10321">
        <ele>778</ele>
        <time>2014-10-24T14:34:07Z</time>
      </trkpt>
      <trkpt lat="44.11275" lon="3.10307">
        <ele>777</ele>
        <time>2014-10-24T14:34:26Z</time>
      </trkpt>
      <trkpt lat="44.1128" lon="3.10295">
        <ele>768.1999872</ele>
        <time>2014-10-24T14:34:41Z</time>
      </trkpt>
      <trkpt lat="44.11301" lon="3.10287">
        <ele>763</ele>
        <time>2014-10-24T14:34:52Z</time>
      </trkpt>
      <trkpt lat="44.11291" lon="3.1028">
        <ele>759</ele>
        <time>2014-10-24T14:35:05Z</time>
      </trkpt>
      <trkpt lat="44.11268" lon="3.10275">
        <ele>758.9500032</ele>
        <time>2014-10-24T14:35:21Z</time>
      </trkpt>
      <trkpt lat="44.11267" lon="3.1026">
        <ele>756.1499904</ele>
        <time>2014-10-24T14:35:31Z</time>
      </trkpt>
      <trkpt lat="44.11281" lon="3.10242">
        <ele>745</ele>
        <time>2014-10-24T14:35:48Z</time>
      </trkpt>
      <trkpt lat="44.11288" lon="3.10221">
        <ele>735.0999936</ele>
        <time>2014-10-24T14:36:01Z</time>
      </trkpt>
      <trkpt lat="44.11297" lon="3.10211">
        <ele>731</ele>
        <time>2014-10-24T14:36:11Z</time>
      </trkpt>
      <trkpt lat="44.11301" lon="3.10198">
        <ele>726.0999936</ele>
        <time>2014-10-24T14:36:26Z</time>
      </trkpt>
      <trkpt lat="44.11289" lon="3.10175">
        <ele>719</ele>
        <time>2014-10-24T14:36:38Z</time>
      </trkpt>
      <trkpt lat="44.11302" lon="3.10159">
        <ele>710</ele>
        <time>2014-10-24T14:36:51Z</time>
      </trkpt>
      <trkpt lat="44.11312" lon="3.10161">
        <ele>709</ele>
        <time>2014-10-24T14:37:04Z</time>
      </trkpt>
      <trkpt lat="44.11304" lon="3.10153">
        <ele>702</ele>
        <time>2014-10-24T14:37:18Z</time>
      </trkpt>
      <trkpt lat="44.11307" lon="3.10126">
        <ele>694</ele>
        <time>2014-10-24T14:37:34Z</time>
      </trkpt>
      <trkpt lat="44.11318" lon="3.10126">
        <ele>692</ele>
        <time>2014-10-24T14:37:45Z</time>
      </trkpt>
      <trkpt lat="44.11326" lon="3.10116">
        <ele>683</ele>
        <time>2014-10-24T14:37:57Z</time>
      </trkpt>
      <trkpt lat="44.11347" lon="3.1011">
        <ele>674</ele>
        <time>2014-10-24T14:38:12Z</time>
      </trkpt>
      <trkpt lat="44.11357" lon="3.10113">
        <ele>675</ele>
        <time>2014-10-24T14:38:32Z</time>
      </trkpt>
      <trkpt lat="44.11364" lon="3.10122">
        <ele>675</ele>
        <time>2014-10-24T14:38:49Z</time>
      </trkpt>
      <trkpt lat="44.1137" lon="3.10134">
        <ele>682</ele>
        <time>2014-10-24T14:39:12Z</time>
      </trkpt>
      <trkpt lat="44.11371" lon="3.10147">
        <ele>686</ele>
        <time>2014-10-24T14:39:32Z</time>
      </trkpt>
      <trkpt lat="44.11379" lon="3.10155">
        <ele>688</ele>
        <time>2014-10-24T14:39:45Z</time>
      </trkpt>
      <trkpt lat="44.11398" lon="3.10167">
        <ele>688</ele>
        <time>2014-10-24T14:40:00Z</time>
      </trkpt>
      <trkpt lat="44.11408" lon="3.10171">
        <ele>689</ele>
        <time>2014-10-24T14:40:10Z</time>
      </trkpt>
      <trkpt lat="44.11415" lon="3.1018">
        <ele>690</ele>
        <time>2014-10-24T14:40:24Z</time>
      </trkpt>
      <trkpt lat="44.11433" lon="3.10198">
        <ele>689</ele>
        <time>2014-10-24T14:40:41Z</time>
      </trkpt>
      <trkpt lat="44.11431" lon="3.10212">
        <ele>693</ele>
        <time>2014-10-24T14:41:05Z</time>
      </trkpt>
      <trkpt lat="44.11445" lon="3.10211">
        <ele>698</ele>
        <time>2014-10-24T14:41:46Z</time>
      </trkpt>
      <trkpt lat="44.11455" lon="3.10218">
        <ele>688.3999744</ele>
        <time>2014-10-24T14:42:01Z</time>
      </trkpt>
      <trkpt lat="44.11476" lon="3.10219">
        <ele>681.0499968</ele>
        <time>2014-10-24T14:42:16Z</time>
      </trkpt>
      <trkpt lat="44.11496" lon="3.10226">
        <ele>676</ele>
        <time>2014-10-24T14:42:34Z</time>
      </trkpt>
      <trkpt lat="44.11517" lon="3.10229">
        <ele>669</ele>
        <time>2014-10-24T14:42:50Z</time>
      </trkpt>
      <trkpt lat="44.11537" lon="3.10226">
        <ele>656</ele>
        <time>2014-10-24T14:43:04Z</time>
      </trkpt>
      <trkpt lat="44.11551" lon="3.10213">
        <ele>645</ele>
        <time>2014-10-24T14:43:22Z</time>
      </trkpt>
      <trkpt lat="44.11551" lon="3.10183">
        <ele>635</ele>
        <time>2014-10-24T14:43:40Z</time>
      </trkpt>
      <trkpt lat="44.11544" lon="3.10157">
        <ele>631</ele>
        <time>2014-10-24T14:43:53Z</time>
      </trkpt>
      <trkpt lat="44.11557" lon="3.10141">
        <ele>619.0700032</ele>
        <time>2014-10-24T14:44:09Z</time>
      </trkpt>
      <trkpt lat="44.11556" lon="3.10111">
        <ele>610</ele>
        <time>2014-10-24T14:44:25Z</time>
      </trkpt>
      <trkpt lat="44.11545" lon="3.10085">
        <ele>605</ele>
        <time>2014-10-24T14:44:40Z</time>
      </trkpt>
      <trkpt lat="44.11535" lon="3.10083">
        <ele>604</ele>
        <time>2014-10-24T14:44:51Z</time>
      </trkpt>
      <trkpt lat="44.11525" lon="3.10079">
        <ele>607</ele>
        <time>2014-10-24T14:45:05Z</time>
      </trkpt>
      <trkpt lat="44.11516" lon="3.10073">
        <ele>608</ele>
        <time>2014-10-24T14:45:16Z</time>
      </trkpt>
      <trkpt lat="44.11507" lon="3.10065">
        <ele>610</ele>
        <time>2014-10-24T14:45:28Z</time>
      </trkpt>
      <trkpt lat="44.11495" lon="3.10041">
        <ele>609</ele>
        <time>2014-10-24T14:45:39Z</time>
      </trkpt>
      <trkpt lat="44.11479" lon="3.1002">
        <ele>602</ele>
        <time>2014-10-24T14:45:53Z</time>
      </trkpt>
      <trkpt lat="44.11467" lon="3.09995">
        <ele>602</ele>
        <time>2014-10-24T14:46:07Z</time>
      </trkpt>
      <trkpt lat="44.11455" lon="3.09971">
        <ele>598</ele>
        <time>2014-10-24T14:46:18Z</time>
      </trkpt>
      <trkpt lat="44.11443" lon="3.09944">
        <ele>595</ele>
        <time>2014-10-24T14:46:28Z</time>
      </trkpt>
      <trkpt lat="44.11448" lon="3.0992">
        <ele>589</ele>
        <time>2014-10-24T14:46:39Z</time>
      </trkpt>
      <trkpt lat="44.11467" lon="3.09919">
        <ele>579.04</ele>
        <time>2014-10-24T14:46:52Z</time>
      </trkpt>
      <trkpt lat="44.11478" lon="3.09919">
        <ele>573.9000064</ele>
        <time>2014-10-24T14:47:02Z</time>
      </trkpt>
      <trkpt lat="44.11485" lon="3.09891">
        <ele>566</ele>
        <time>2014-10-24T14:47:12Z</time>
      </trkpt>
      <trkpt lat="44.11501" lon="3.09861">
        <ele>558</ele>
        <time>2014-10-24T14:47:25Z</time>
      </trkpt>
      <trkpt lat="44.11511" lon="3.09835">
        <ele>553</ele>
        <time>2014-10-24T14:47:35Z</time>
      </trkpt>
      <trkpt lat="44.1151" lon="3.09789">
        <ele>547</ele>
        <time>2014-10-24T14:47:48Z</time>
      </trkpt>
      <trkpt lat="44.11511" lon="3.09743">
        <ele>544</ele>
        <time>2014-10-24T14:48:00Z</time>
      </trkpt>
      <trkpt lat="44.11512" lon="3.09697">
        <ele>533</ele>
        <time>2014-10-24T14:48:12Z</time>
      </trkpt>
      <trkpt lat="44.11505" lon="3.09651">
        <ele>530</ele>
        <time>2014-10-24T14:48:24Z</time>
      </trkpt>
      <trkpt lat="44.11496" lon="3.09604">
        <ele>523.1499904</ele>
        <time>2014-10-24T14:48:36Z</time>
      </trkpt>
      <trkpt lat="44.11487" lon="3.09562">
        <ele>521</ele>
        <time>2014-10-24T14:48:47Z</time>
      </trkpt>
      <trkpt lat="44.11478" lon="3.09523">
        <ele>516</ele>
        <time>2014-10-24T14:48:58Z</time>
      </trkpt>
      <trkpt lat="44.11468" lon="3.0947">
        <ele>511.1499904</ele>
        <time>2014-10-24T14:49:11Z</time>
      </trkpt>
      <trkpt lat="44.1148" lon="3.09416">
        <ele>509</ele>
        <time>2014-10-24T14:49:24Z</time>
      </trkpt>
      <trkpt lat="44.11451" lon="3.09392">
        <ele>504</ele>
        <time>2014-10-24T14:49:35Z</time>
      </trkpt>
      <trkpt lat="44.11427" lon="3.09365">
        <ele>496</ele>
        <time>2014-10-24T14:49:46Z</time>
      </trkpt>
      <trkpt lat="44.1144" lon="3.09348">
        <ele>490</ele>
        <time>2014-10-24T14:49:58Z</time>
      </trkpt>
      <trkpt lat="44.11477" lon="3.09349">
        <ele>490</ele>
        <time>2014-10-24T14:50:08Z</time>
      </trkpt>
      <trkpt lat="44.11511" lon="3.09344">
        <ele>488</ele>
        <time>2014-10-24T14:50:18Z</time>
      </trkpt>
      <trkpt lat="44.1155" lon="3.09333">
        <ele>484</ele>
        <time>2014-10-24T14:50:30Z</time>
      </trkpt>
      <trkpt lat="44.11586" lon="3.0932">
        <ele>478</ele>
        <time>2014-10-24T14:50:42Z</time>
      </trkpt>
      <trkpt lat="44.11622" lon="3.09322">
        <ele>478</ele>
        <time>2014-10-24T14:50:54Z</time>
      </trkpt>
      <trkpt lat="44.1162" lon="3.09285">
        <ele>473</ele>
        <time>2014-10-24T14:51:04Z</time>
      </trkpt>
      <trkpt lat="44.11595" lon="3.09245">
        <ele>469.0499968</ele>
        <time>2014-10-24T14:51:16Z</time>
      </trkpt>
      <trkpt lat="44.11565" lon="3.09217">
        <ele>465</ele>
        <time>2014-10-24T14:51:27Z</time>
      </trkpt>
      <trkpt lat="44.1154" lon="3.09201">
        <ele>461</ele>
        <time>2014-10-24T14:51:37Z</time>
      </trkpt>
      <trkpt lat="44.11527" lon="3.09172">
        <ele>458</ele>
        <time>2014-10-24T14:51:49Z</time>
      </trkpt>
      <trkpt lat="44.11499" lon="3.09148">
        <ele>449.0700032</ele>
        <time>2014-10-24T14:52:02Z</time>
      </trkpt>
      <trkpt lat="44.11478" lon="3.09113">
        <ele>447</ele>
        <time>2014-10-24T14:52:12Z</time>
      </trkpt>
      <trkpt lat="44.11452" lon="3.09081">
        <ele>445</ele>
        <time>2014-10-24T14:52:23Z</time>
      </trkpt>
      <trkpt lat="44.11425" lon="3.09046">
        <ele>435</ele>
        <time>2014-10-24T14:52:35Z</time>
      </trkpt>
      <trkpt lat="44.11406" lon="3.08995">
        <ele>428.0499968</ele>
        <time>2014-10-24T14:52:47Z</time>
      </trkpt>
      <trkpt lat="44.11396" lon="3.08963">
        <ele>423</ele>
        <time>2014-10-24T14:52:58Z</time>
      </trkpt>
      <trkpt lat="44.11406" lon="3.08938">
        <ele>416.9500032</ele>
        <time>2014-10-24T14:53:09Z</time>
      </trkpt>
      <trkpt lat="44.1142" lon="3.08914">
        <ele>411.1499904</ele>
        <time>2014-10-24T14:53:21Z</time>
      </trkpt>
      <trkpt lat="44.11454" lon="3.08921">
        <ele>407</ele>
        <time>2014-10-24T14:53:32Z</time>
      </trkpt>
      <trkpt lat="44.11484" lon="3.08939">
        <ele>409</ele>
        <time>2014-10-24T14:53:44Z</time>
      </trkpt>
      <trkpt lat="44.11468" lon="3.08948">
        <ele>411</ele>
        <time>2014-10-24T14:53:56Z</time>
      </trkpt>
      <trkpt lat="44.11452" lon="3.08951">
        <ele>412</ele>
        <time>2014-10-24T14:54:07Z</time>
      </trkpt>
      <trkpt lat="44.11427" lon="3.0895">
        <ele>413</ele>
        <time>2014-10-24T14:54:19Z</time>
      </trkpt>
      <trkpt lat="44.11424" lon="3.08954">
        <ele>414</ele>
        <time>2014-10-24T14:54:26Z</time>
      </trkpt>
    </trkseg>
  </trk>
</gpx>